GFSSE_850_spd_000.txt.gz
Wind_Speed
24 24 25 30 31 29 26 26 24 23 22 25 24 24 24 22 20 19 17 14 11 11 10 8 9 8 7 8 8 5 6 5 4 4 4 4 4 4 4 3 3 5 6
26 27 27 29 28 26 25 24 21 21 22 23 23 23 24 22 19 17 14 12 11 10 9 8 9 8 8 8 8 7 6 5 4 4 3 4 4 4 3 4 5 7 8
23 26 25 24 25 23 21 22 20 20 21 23 22 22 21 19 16 14 10 9 9 8 7 6 6 6 8 8 8 8 6 4 3 3 5 4 4 4 4 5 7 8 9
21 23 24 21 21 20 20 20 21 23 26 22 19 19 18 16 14 13 9 8 6 6 4 4 4 6 7 8 8 7 6 4 2 3 1 2 4 4 2 3 6 7 10
22 24 22 21 21 21 20 20 22 26 25 18 17 17 17 16 15 11 8 6 5 4 3 3 4 5 6 7 7 6 4 4 2 0 1 1 3 3 3 3 6 7 10
25 24 23 21 21 21 20 20 22 24 21 16 16 16 17 15 11 8 6 5 3 2 2 2 3 5 6 7 6 5 3 3 3 3 2 1 2 2 4 5 6 8 9
24 23 22 20 20 19 19 20 21 22 20 18 14 14 13 12 8 6 5 2 1 1 1 3 4 5 6 6 6 5 4 4 2 0 2 3 3 2 2 3 6 5 6
23 21 20 19 19 20 20 21 20 19 18 15 13 13 11 10 8 5 2 2 2 0 2 5 6 7 6 6 5 5 4 4 5 4 3 3 4 1 1 3 5 7 7
20 20 20 20 20 20 19 18 18 17 16 15 13 12 11 8 6 3 1 2 2 3 5 6 7 7 6 5 5 4 4 3 3 3 2 4 3 3 3 4 5 7 10
21 20 20 21 21 20 19 17 15 15 15 15 12 9 7 6 4 3 3 3 3 5 4 6 6 6 6 5 5 7 6 5 3 5 5 3 4 5 5 4 6 7 9
21 20 21 21 21 20 18 16 16 15 15 14 11 9 7 5 4 3 5 5 4 5 6 5 5 6 6 5 4 6 8 6 5 6 6 3 6 6 6 6 7 8 10
23 22 21 21 21 19 17 16 15 15 14 13 12 10 6 5 3 3 4 4 7 4 5 5 5 6 6 5 6 9 9 9 7 6 5 7 5 7 8 7 9 8 10
24 21 21 20 19 19 18 17 14 14 14 12 11 10 6 4 2 3 3 4 4 4 4 5 5 4 7 8 10 10 11 9 9 7 8 9 9 8 9 10 7 9 11
25 22 19 19 19 19 17 16 13 13 13 12 11 11 7 5 4 2 2 3 5 6 6 7 8 9 9 11 12 11 11 10 11 11 10 9 9 8 8 11 11 8 10
26 23 20 19 18 17 17 15 14 14 13 11 12 12 10 7 7 6 5 6 7 8 9 10 10 11 13 14 14 15 13 13 12 13 11 9 10 10 9 9 11 11 11
23 23 21 19 17 18 18 15 14 14 13 12 12 10 11 10 10 8 8 8 8 9 10 11 12 13 14 15 13 13 13 13 13 12 13 12 13 12 12 12 10 13 11
20 21 20 19 16 18 17 15 14 11 14 15 15 12 12 11 10 10 8 8 8 10 12 13 15 15 15 14 13 12 13 13 13 13 13 12 12 13 13 12 13 12 13
22 24 21 19 19 19 17 17 16 14 14 14 14 14 12 13 12 11 11 10 11 12 13 14 13 13 13 14 15 14 13 10 11 9 11 14 16 16 16 14 14 14 13
24 22 23 21 20 19 17 17 17 16 15 13 14 15 13 13 13 13 13 14 15 14 15 13 12 12 12 12 13 13 11 8 6 7 8 9 12 16 15 15 15 15 16
24 25 22 24 22 18 17 17 17 18 17 17 18 17 16 15 15 15 14 11 14 14 12 13 13 12 12 11 12 10 8 4 2 2 3 3 5 9 14 16 16 16 18
25 27 25 25 21 20 20 21 21 20 19 19 21 19 18 17 17 16 16 15 12 12 15 14 12 13 11 13 12 10 3 4 4 3 3 4 5 7 7 9 15 18 19
27 26 24 23 21 22 22 21 20 18 19 17 16 17 17 16 15 13 12 12 15 16 15 12 11 11 11 9 11 10 5 2 2 3 2 4 6 7 8 8 8 10 12
32 27 24 23 23 23 22 21 21 20 19 18 18 17 15 11 10 10 12 15 12 6 4 8 10 10 9 8 7 6 4 2 10 1 3 6 8 8 7 9 11 12 12
33 28 25 23 23 25 23 22 22 20 17 15 14 13 12 12 12 11 12 8 7 4 6 9 8 8 9 8 7 4 4 7 3 4 5 6 10 10 9 9 9 11 14
35 31 27 25 25 26 25 24 22 20 17 15 15 14 15 14 13 10 8 6 6 6 8 9 7 7 7 7 5 5 5 5 6 8 9 13 9 10 11 12 12 12 10
35 32 29 28 27 27 27 26 24 21 19 17 15 14 13 15 13 11 10 9 7 6 9 5 4 4 5 5 5 3 2 4 5 6 11 15 14 15 16 16 14 13 13

GFSSE_850_spd_003.txt.gz
Wind_Speed
25 26 23 26 32 26 23 22 22 23 24 24 23 24 23 21 18 15 13 11 12 10 10 10 11 11 10 10 10 8 5 4 5 6 5 5 4 5 5 5 5 7 8
23 22 23 30 27 20 22 21 20 22 26 22 23 23 21 19 16 14 13 11 10 9 9 9 10 11 11 11 10 7 6 4 5 6 6 6 7 4 5 5 9 7 9
25 25 25 28 23 21 21 20 20 22 23 21 21 21 20 18 14 11 9 9 8 7 8 7 8 9 11 10 10 8 5 3 4 3 6 7 6 5 8 7 8 9 11
27 27 26 24 23 20 19 19 21 21 21 19 20 19 18 14 10 7 6 7 6 6 5 4 6 8 10 11 10 7 5 5 3 2 4 5 5 5 6 5 6 8 9
25 24 23 21 19 17 18 19 21 23 21 18 18 18 15 12 9 6 5 5 5 3 3 4 6 8 9 10 9 7 4 4 4 2 2 2 6 4 5 4 6 9 10
23 22 19 18 17 16 16 19 24 23 18 16 16 15 14 13 9 5 4 4 3 3 3 4 6 7 8 9 8 8 6 4 5 4 1 2 5 3 6 5 5 8 8
23 21 19 17 16 15 17 20 24 20 14 14 14 14 14 10 6 4 2 2 4 4 4 6 8 9 8 8 8 9 7 5 4 3 2 1 2 3 3 4 5 6 7
23 21 18 17 15 16 18 20 21 18 14 13 12 12 10 7 4 3 1 4 4 3 5 7 8 8 8 7 8 9 8 8 7 4 3 1 2 2 1 1 3 2 5
22 20 18 17 16 16 17 18 18 16 14 12 11 11 9 7 4 2 1 4 3 4 6 6 6 7 7 6 7 8 9 8 8 6 5 3 2 1 1 2 3 4 6
20 18 18 17 17 17 17 16 15 14 14 13 12 10 7 5 4 2 2 5 3 4 5 6 6 7 7 6 6 6 8 9 9 8 6 4 3 2 3 3 3 4 6
19 18 18 18 18 17 16 15 15 15 14 14 11 8 6 4 3 3 3 5 5 4 5 6 5 6 7 6 6 8 9 8 8 8 6 4 5 4 4 3 4 5 6
19 20 19 19 19 18 17 17 16 16 17 16 12 9 7 5 4 4 4 4 5 3 4 6 6 5 7 7 9 10 9 11 8 7 6 6 6 4 5 5 6 6 8
21 20 20 19 19 19 18 16 15 16 15 14 12 10 9 6 3 2 1 3 3 4 4 5 5 6 8 9 12 12 12 11 9 9 8 8 8 7 5 7 4 7 7
23 21 21 21 21 20 17 16 14 15 14 13 12 12 11 7 3 2 2 2 3 4 4 6 9 9 11 12 13 14 15 14 11 11 10 10 9 7 6 7 10 6 9
25 22 22 23 21 20 19 18 16 15 15 14 14 13 12 8 6 6 7 5 6 7 8 8 10 10 13 13 15 14 13 14 13 11 11 10 9 8 9 7 9 11 9
25 24 21 19 18 18 19 18 17 16 15 15 14 13 13 12 10 9 9 8 8 8 8 10 12 13 14 16 15 15 14 14 15 13 11 11 11 11 11 10 10 11 13
23 23 22 20 19 20 20 18 16 14 15 16 14 12 11 11 10 10 10 8 8 8 10 13 14 15 15 14 15 16 15 14 13 13 13 12 12 12 12 11 11 11 12
21 23 22 22 19 19 20 18 16 15 14 16 17 16 16 13 12 10 11 10 9 11 13 15 13 14 14 13 13 13 14 12 10 8 8 10 13 14 14 15 13 12 12
21 21 23 22 21 19 18 18 18 16 16 15 16 16 15 14 13 13 12 10 13 15 15 15 14 12 13 11 12 12 10 8 7 5 6 7 7 9 14 15 15 14 13
23 22 23 25 22 20 19 18 18 18 18 17 17 16 15 16 14 13 14 13 13 14 15 14 14 12 10 11 11 9 8 2 3 2 3 4 4 6 7 10 14 14 14
27 26 26 26 25 22 21 21 21 21 20 19 18 17 17 16 15 14 14 15 15 14 14 15 12 11 9 11 9 6 4 3 5 1 2 3 5 6 7 7 7 10 14
29 28 28 28 24 26 25 23 23 20 18 17 16 16 16 17 16 16 15 14 13 14 13 10 8 8 9 8 5 6 3 0 1 2 3 5 5 6 6 7 8 8 9
31 30 28 26 24 25 26 26 23 20 20 18 19 19 17 17 15 13 12 13 15 10 5 5 8 7 4 6 4 2 2 1 6 1 2 7 9 10 9 8 7 9 10
30 29 29 25 24 26 27 27 26 24 20 17 19 18 17 14 14 13 12 13 10 7 6 6 7 5 5 4 6 4 4 4 3 3 4 4 7 7 8 8 9 10 9
31 30 29 27 26 27 28 28 26 24 21 18 17 16 15 14 13 12 11 10 7 8 7 7 6 6 6 6 4 4 6 6 6 3 8 8 7 6 10 13 13 10 11
32 30 31 30 28 29 28 28 28 26 23 21 19 16 16 16 17 15 12 10 8 8 7 7 6 5 5 5 5 5 4 4 4 6 10 11 12 9 13 13 15 13 13

GFSSE_850_spd_006.txt.gz
Wind_Speed
24 22 24 26 26 24 25 25 25 24 24 23 23 23 21 19 17 15 13 12 13 11 12 13 12 13 12 12 10 9 9 7 8 9 9 9 7 7 6 7 12 5 7
22 21 26 27 25 22 23 23 22 23 22 22 22 21 19 17 16 14 11 11 11 10 10 10 11 12 13 11 10 8 8 6 5 8 9 13 10 7 7 10 11 6 9
17 20 26 22 19 20 20 20 21 22 20 21 21 20 17 16 13 12 11 9 9 8 7 9 10 11 12 12 10 8 7 5 3 5 12 7 5 7 8 7 8 10 12
20 20 20 18 18 18 18 19 21 20 19 19 19 18 15 12 10 9 8 7 7 6 7 8 8 10 11 11 11 8 7 5 3 5 8 5 4 7 7 6 8 10 8
21 19 18 18 17 16 17 18 19 18 18 18 18 16 13 9 7 7 6 6 5 5 5 6 9 10 10 11 10 9 6 6 5 4 5 3 6 5 5 6 7 9 14
18 15 20 17 15 14 16 18 19 18 16 17 16 14 11 9 7 6 5 4 5 5 5 7 9 9 9 10 9 9 7 5 6 4 3 3 5 3 6 7 6 7 9
17 14 15 15 14 15 18 21 21 17 16 15 15 13 12 9 6 5 2 4 6 5 6 8 9 8 8 7 9 10 8 7 4 3 2 3 0 4 5 6 7 5 8
18 15 13 15 15 17 20 23 19 15 14 14 13 13 10 6 4 2 2 5 6 5 7 8 8 8 7 6 7 9 9 9 7 6 4 2 1 2 3 3 4 5 6
17 15 14 13 15 17 19 20 19 13 12 10 11 10 8 5 3 2 3 5 4 5 5 6 6 6 7 6 6 7 8 10 8 7 3 3 1 1 2 2 3 3 6
17 15 15 14 14 14 17 19 16 14 12 10 10 9 7 4 2 1 3 4 4 4 5 5 5 6 6 6 6 8 9 12 6 5 2 1 1 1 1 1 3 4 6
17 16 14 13 14 15 14 15 15 13 12 11 10 7 5 3 3 3 5 5 4 4 4 5 5 6 7 11 10 10 9 6 4 4 5 4 3 2 2 2 3 4 5
18 17 16 15 14 14 12 12 11 11 10 10 8 7 4 5 4 2 5 3 4 3 4 5 5 6 9 4 7 11 7 8 6 5 5 7 3 2 3 4 4 5 6
19 17 16 16 15 14 13 11 11 11 11 11 11 8 7 5 4 3 3 2 2 4 2 4 4 4 5 5 7 7 8 9 7 5 9 8 7 5 5 5 4 6 6
20 19 17 17 16 15 13 12 12 12 12 11 10 11 10 5 6 4 3 3 3 4 3 4 5 6 7 9 8 9 9 8 7 7 7 11 7 6 6 5 8 4 7
20 19 19 18 17 16 15 13 13 13 12 11 11 11 10 9 10 6 7 6 5 6 6 6 7 7 8 9 9 9 8 10 10 7 6 13 8 7 6 6 6 8 8
21 20 19 19 18 17 17 16 15 13 12 12 12 11 13 10 12 7 8 7 7 6 6 5 8 8 9 10 9 9 10 9 10 9 7 8 10 9 8 8 8 8 10
22 21 21 19 19 18 18 16 15 13 13 13 12 13 13 12 12 10 9 8 7 8 9 8 9 9 10 11 11 11 10 10 8 7 5 6 7 10 8 9 9 9 9
22 23 22 20 19 19 18 17 16 14 14 13 12 12 13 12 11 10 10 9 10 11 10 9 8 9 11 11 11 10 10 9 8 6 4 3 5 5 10 10 11 9 9
23 22 23 23 21 21 20 17 17 16 17 16 13 15 15 14 13 10 11 9 11 10 12 9 8 11 10 10 9 10 9 6 5 3 3 3 2 2 4 11 12 11 10
22 21 22 22 21 21 20 19 18 17 14 13 12 15 13 12 10 12 10 11 11 10 8 9 10 9 9 8 8 7 5 2 3 2 3 4 4 4 2 0 5 7 11
23 22 22 23 22 21 18 17 16 16 15 15 15 15 12 13 13 14 10 10 9 8 8 9 9 9 5 7 5 4 3 1 4 2 2 3 4 4 4 4 2 1 5
26 24 23 24 24 24 19 18 17 14 13 13 12 14 14 12 13 10 10 8 11 7 9 6 5 4 5 5 3 4 3 3 2 1 1 4 4 4 5 5 4 2 1
28 27 25 25 25 24 24 20 16 16 15 12 13 11 10 11 10 10 10 8 9 8 6 3 4 5 3 4 2 2 3 1 4 2 1 2 5 5 5 6 4 3 3
29 27 26 25 25 25 24 22 21 15 14 13 12 11 12 10 10 10 8 8 10 5 6 3 4 3 2 3 4 3 2 3 4 3 3 4 3 3 4 4 4 4 4
29 28 27 27 27 25 24 24 22 19 16 14 12 13 13 13 11 11 10 10 8 5 7 5 3 3 4 4 4 4 4 4 4 3 8 5 7 4 4 4 4 4 4
31 29 27 28 29 28 27 24 25 20 19 16 16 13 12 12 12 13 12 12 8 7 7 5 6 5 4 5 4 5 4 4 4 6 8 9 9 8 8 8 7 6 7

GFSSE_850_spd_009.txt.gz
Wind_Speed
18 24 24 24 25 24 25 26 24 25 25 25 24 21 19 18 16 15 15 14 14 15 14 14 14 15 14 13 12 10 10 9 10 12 16 15 10 10 10 10 12 6 4
20 22 25 24 23 25 25 24 24 23 23 23 21 19 17 16 14 14 13 13 12 13 12 12 13 14 14 13 11 10 8 8 9 16 11 13 14 12 11 8 16 7 10
20 23 24 23 23 22 23 22 22 21 22 21 19 17 17 15 14 13 11 10 10 10 10 10 12 13 13 13 11 9 8 7 8 16 11 7 10 10 9 7 6 10 9
22 21 19 20 20 20 20 20 20 20 20 19 17 16 14 12 11 10 10 9 9 10 10 11 11 12 12 12 10 8 8 8 8 12 11 6 6 9 8 8 8 9 11
23 20 17 19 19 18 20 21 20 19 20 18 15 14 10 8 8 8 9 9 9 9 9 9 10 11 10 11 10 9 7 7 9 10 8 5 6 7 7 9 10 9 12
21 17 18 18 16 16 18 19 18 17 16 16 14 12 7 6 6 7 8 8 8 7 8 9 10 9 9 9 9 9 8 7 10 8 5 6 2 5 7 11 9 9 9
18 15 16 15 15 16 18 18 16 15 15 15 13 9 7 6 5 6 7 7 7 7 7 8 9 9 8 8 9 9 9 9 7 2 4 4 2 4 7 8 9 8 9
17 16 13 15 15 17 18 19 17 15 14 13 11 10 8 5 5 5 6 7 6 6 7 8 8 8 8 7 8 10 11 9 10 4 5 5 1 3 5 7 7 8 6
16 16 13 13 16 18 20 19 16 14 13 12 12 10 6 4 3 3 6 7 6 6 6 7 7 7 8 8 9 10 13 14 7 4 6 3 1 2 4 5 7 6 9
14 17 14 12 13 14 18 18 13 11 11 10 9 8 6 3 2 5 5 4 5 5 5 6 5 7 10 12 12 11 12 10 7 4 3 3 3 1 2 4 6 7 9
17 15 15 14 13 13 12 14 13 11 10 9 8 7 5 1 5 5 7 8 6 5 4 6 6 11 10 12 13 12 12 9 4 3 1 7 4 1 2 3 6 6 8
17 17 16 14 15 15 12 13 11 9 7 7 6 6 3 4 4 2 7 8 7 5 4 8 10 9 10 9 8 12 8 7 8 7 10 7 6 2 4 4 5 6 6
18 17 16 18 15 15 15 9 9 8 9 8 9 8 5 3 4 6 7 5 7 9 8 8 6 9 7 6 7 8 9 8 5 5 11 11 10 5 4 5 4 7 7
19 17 18 13 16 17 15 12 11 11 10 9 9 11 9 5 6 6 4 4 7 0 6 3 7 9 6 8 8 8 8 7 7 5 10 13 10 6 5 5 7 5 8
20 19 18 18 17 15 14 12 11 11 11 10 9 10 8 8 10 7 7 7 8 6 6 6 7 7 8 9 10 10 9 9 9 6 7 11 11 6 5 6 7 10 7
21 21 19 18 17 19 14 12 12 12 10 11 10 10 11 9 11 9 10 7 6 7 8 5 9 8 8 9 9 9 10 8 8 7 5 10 10 6 7 7 8 7 10
22 21 20 19 17 17 17 16 14 13 12 12 11 11 11 11 11 11 8 8 8 13 11 9 6 10 11 9 9 9 9 8 6 6 3 3 8 9 5 7 8 8 7
23 23 21 18 18 18 19 15 14 13 13 12 11 13 11 13 10 8 10 6 10 6 10 10 9 8 8 9 9 8 8 7 7 4 2 2 3 4 9 7 6 9 7
24 23 23 21 20 19 17 16 15 15 14 17 13 12 12 10 12 10 10 11 12 8 11 9 6 8 9 8 8 7 5 4 5 2 3 4 3 3 1 6 8 11 9
24 24 24 24 23 21 20 22 16 16 14 14 13 12 13 15 13 12 10 12 10 10 8 7 5 9 8 5 7 6 2 1 1 2 3 3 3 3 4 2 6 7 5
25 25 25 25 25 24 22 22 17 16 14 13 13 12 15 14 10 16 8 10 7 8 7 11 8 7 6 3 6 3 4 2 1 2 2 2 3 2 1 1 3 0 3
28 27 27 26 27 26 21 19 18 16 15 14 14 16 12 13 10 12 9 8 11 6 8 6 5 3 4 4 4 4 3 5 4 4 1 3 4 3 3 4 2 6 2
30 31 30 29 28 27 24 19 20 15 16 11 13 12 14 14 13 12 11 8 7 9 6 4 2 4 2 3 5 2 3 4 1 4 3 1 3 1 2 5 2 3 2
31 30 30 30 31 28 28 22 21 18 17 15 13 13 12 9 9 10 7 8 8 4 8 3 3 4 3 2 1 2 4 3 5 1 4 4 1 2 4 2 5 7 4
31 31 31 32 31 29 27 26 23 20 16 14 13 11 15 11 12 11 10 8 5 3 8 7 4 4 4 3 2 3 2 3 2 2 6 2 5 3 3 6 5 5 8
32 32 31 33 34 31 29 27 28 22 21 16 17 14 12 13 9 12 11 10 7 5 7 4 6 6 6 7 5 4 4 3 2 4 6 7 8 8 6 7 8 7 7

GFSSE_850_spd_012.txt.gz
Wind_Speed
22 25 26 26 27 27 27 27 26 27 25 23 21 20 20 19 17 17 17 15 15 14 14 16 16 16 15 13 12 11 11 15 14 13 18 17 12 10 14 16 16 4 8
22 23 25 25 24 26 27 26 26 26 24 22 20 18 18 16 16 16 15 14 13 13 13 15 15 15 15 13 12 11 11 16 14 12 12 15 14 11 13 10 12 6 9
20 24 22 23 25 25 24 25 25 24 22 20 19 17 17 16 14 14 12 12 12 12 12 13 13 14 13 12 11 11 11 14 14 9 8 10 13 9 11 12 7 10 10
22 20 22 23 22 22 23 23 23 22 20 18 17 16 15 14 13 12 11 11 10 10 11 12 12 12 11 11 11 9 10 13 14 9 7 13 6 9 11 12 12 11 12
23 19 22 21 21 22 22 21 20 20 19 17 15 13 11 11 11 10 10 9 9 9 10 11 12 11 10 10 10 9 9 11 13 15 11 4 4 9 10 12 11 13 12
20 16 21 20 20 20 21 20 18 18 17 15 13 10 8 8 8 8 8 9 8 9 10 10 11 11 10 10 10 11 10 10 9 7 12 3 5 7 10 14 12 12 10
19 17 20 18 18 19 20 19 17 16 16 14 11 8 7 6 6 6 8 8 8 9 10 10 11 10 10 11 12 12 9 9 4 10 6 4 4 6 10 12 11 11 10
19 18 18 17 18 19 19 18 16 16 15 13 10 8 7 5 5 7 9 7 8 9 10 10 10 11 11 12 13 14 11 7 2 7 11 4 3 5 10 11 11 11 9
19 15 16 17 19 19 19 17 15 15 15 13 11 10 6 3 5 6 8 8 8 9 10 10 11 11 13 15 15 11 13 8 5 12 6 8 3 4 8 9 9 9 9
20 16 14 15 19 20 19 17 15 15 14 12 11 8 4 4 5 6 7 9 9 7 9 10 10 11 13 16 15 15 14 12 11 14 2 12 5 2 5 7 8 9 9
18 17 16 16 14 16 19 17 14 13 12 11 9 6 5 5 4 6 7 11 9 8 9 12 10 11 10 11 14 15 16 15 8 16 5 11 4 2 3 5 7 8 9
21 17 23 16 15 11 13 15 12 10 8 8 6 4 1 3 4 7 6 6 4 5 5 10 7 8 12 12 14 17 11 11 14 3 5 10 3 5 2 4 5 7 8
21 18 22 14 19 17 18 8 7 5 4 4 2 3 3 7 1 10 4 6 1 8 3 7 6 8 8 6 7 9 9 8 9 7 11 10 8 6 2 4 4 5 7
27 23 18 16 19 15 18 6 7 8 6 7 8 9 9 1 2 6 4 4 7 2 10 10 8 8 9 8 11 12 8 8 6 10 11 8 10 7 3 4 6 5 6
22 23 18 16 20 18 15 12 13 15 9 10 11 10 8 4 9 6 6 5 7 9 9 6 6 5 9 11 11 7 11 6 7 3 6 9 11 8 3 4 6 8 6
22 22 21 19 21 21 19 16 11 16 10 11 9 13 10 8 10 8 9 7 6 7 8 6 8 6 6 6 6 8 13 8 10 5 4 5 8 9 4 3 5 5 9
23 23 24 21 18 21 19 18 18 12 10 10 9 14 15 14 14 12 6 7 7 9 11 10 7 9 6 10 4 8 8 8 5 12 4 6 5 6 5 5 4 6 6
24 25 23 19 20 15 21 17 21 15 14 13 11 18 13 14 12 12 4 9 3 12 5 9 7 9 7 6 6 6 7 6 7 7 4 2 2 5 7 4 2 4 5
25 27 26 22 22 18 18 21 16 16 14 14 17 8 16 14 11 6 6 10 5 12 10 9 6 4 4 5 4 5 3 2 3 2 2 4 2 4 2 3 5 6 4
28 28 28 26 23 24 21 13 15 11 15 16 15 16 14 13 12 12 7 10 13 9 6 10 2 6 5 5 5 6 4 3 3 2 4 3 6 6 4 5 4 7 3
29 30 31 31 28 21 22 22 22 18 16 13 12 11 14 14 13 14 12 11 7 5 9 8 10 11 1 4 8 7 10 2 6 5 3 3 6 4 5 4 3 4 4
31 32 32 33 32 32 25 23 23 17 16 15 15 17 16 16 13 11 9 5 6 4 5 10 12 4 3 5 5 6 6 8 7 10 3 3 6 4 3 2 5 4 2
35 35 35 33 33 34 30 28 22 21 22 15 16 17 17 18 13 10 11 8 8 10 9 7 4 2 2 1 7 3 5 3 9 10 4 7 3 5 3 4 8 8 1
36 37 36 36 34 33 33 24 20 22 17 16 14 16 17 15 10 18 11 9 14 8 8 6 2 5 3 2 2 3 6 2 3 4 9 6 2 2 2 4 3 9 8
36 38 39 35 34 34 31 31 25 25 23 17 17 15 21 14 6 8 11 14 13 9 9 10 10 7 6 5 4 4 1 4 2 1 2 5 2 6 4 1 5 5 6
37 38 40 38 37 34 33 31 27 25 23 19 19 18 17 14 15 19 18 17 13 10 11 8 8 7 12 9 8 7 1 3 4 3 5 6 5 6 9 7 6 5 10

GFSSE_850_spd_015.txt.gz
Wind_Speed
22 23 27 28 28 28 30 30 29 27 26 24 23 22 21 21 19 19 18 16 17 16 16 15 15 14 13 13 12 14 13 14 14 15 14 12 12 15 17 16 13 13 12
27 26 30 28 29 29 30 29 27 25 24 22 21 20 19 18 18 17 16 15 15 15 14 13 13 14 13 12 12 13 12 14 12 10 15 14 13 13 14 14 11 13 15
27 29 28 28 28 27 28 28 26 24 22 21 19 18 17 17 16 16 14 13 13 13 12 12 11 12 12 11 13 13 9 10 10 11 9 12 12 10 13 11 13 13 15
28 27 28 28 27 26 26 26 25 23 21 20 19 17 16 16 16 14 12 12 11 11 11 11 11 11 12 10 12 13 11 8 9 8 7 9 9 10 10 12 12 16 18
26 26 28 26 25 25 25 25 23 21 20 18 17 15 14 14 13 12 11 10 10 10 10 11 11 11 12 13 12 12 11 10 8 10 10 6 8 7 10 11 15 15 16
23 25 25 24 24 24 24 23 22 20 18 16 13 12 12 12 11 10 10 10 9 9 10 11 12 12 13 14 13 12 12 8 10 11 8 6 7 8 9 11 13 14 14
19 22 23 23 23 23 22 22 21 19 16 14 11 10 10 10 9 10 10 10 9 10 11 11 13 14 16 15 14 11 9 8 11 6 5 4 6 6 8 10 10 11 13
20 23 22 22 23 23 22 20 19 17 15 13 10 9 8 8 8 11 11 11 11 11 10 12 13 17 19 16 16 14 10 7 10 10 5 3 4 4 7 8 9 9 11
21 22 21 22 22 22 20 19 17 17 15 13 9 9 7 7 9 10 9 14 12 11 12 12 14 16 18 19 16 13 9 10 9 13 11 1 2 4 6 8 10 9 10
19 17 20 21 23 22 21 18 17 16 14 12 11 8 6 8 6 8 10 14 11 9 12 12 11 12 15 15 13 14 9 8 8 12 8 6 4 4 6 8 9 10 11
15 15 19 21 22 22 20 18 16 15 14 13 10 7 8 6 7 9 7 6 6 9 9 7 8 11 12 13 11 15 10 6 12 8 11 8 6 3 5 7 8 10 9
18 14 15 21 22 22 20 17 15 14 12 11 10 7 4 4 3 4 8 6 6 6 4 5 9 8 11 7 7 12 14 13 6 9 10 9 5 2 4 6 8 9 9
20 19 16 13 18 18 19 15 13 12 10 10 11 7 4 4 2 3 7 4 5 6 2 6 8 7 9 9 4 7 5 7 7 7 8 8 6 1 3 6 7 8 8
27 24 23 15 16 18 14 6 10 9 10 7 6 5 3 1 1 6 3 4 6 3 8 7 7 4 8 8 7 6 10 3 6 7 5 3 7 5 2 6 6 8 8
30 26 25 18 20 20 19 11 11 9 5 5 6 4 3 9 2 3 1 6 6 7 6 8 6 7 10 2 6 8 11 7 2 6 4 4 4 6 1 6 7 6 7
34 31 25 22 21 22 20 16 13 11 11 9 11 7 6 5 6 8 4 2 3 4 3 7 9 8 3 5 3 2 8 4 9 5 1 1 1 3 1 2 4 6 7
35 28 24 25 23 24 23 19 17 14 15 12 8 7 9 6 7 12 7 6 4 5 6 5 7 6 2 4 6 7 5 7 6 9 6 3 1 1 3 2 2 4 4
28 29 23 26 23 23 26 25 20 19 15 13 9 10 9 10 13 6 6 5 6 5 7 6 8 4 2 1 2 2 5 5 6 6 5 1 5 3 3 2 3 2 1
30 31 27 27 21 19 18 27 26 22 17 16 14 8 11 12 10 6 4 6 4 5 6 8 7 5 5 7 2 5 3 2 3 4 5 7 3 4 2 1 1 1 3
33 30 26 23 23 21 17 14 18 25 21 16 14 15 15 11 13 9 5 7 6 8 9 7 4 6 8 1 2 1 4 2 5 5 7 7 8 7 6 4 2 3 3
33 33 33 31 26 24 24 20 18 19 17 15 18 16 15 15 14 10 12 9 8 7 4 7 8 11 4 2 5 2 8 2 7 4 3 6 6 3 2 3 2 0 2
37 38 36 34 32 26 24 24 19 21 19 16 12 15 16 16 12 10 7 9 8 8 7 8 8 5 5 4 4 3 3 9 9 7 5 5 4 3 2 2 6 4 5
41 41 40 38 34 34 26 26 24 19 20 19 20 16 19 15 14 11 11 10 8 10 10 8 7 10 8 7 4 2 3 4 9 9 5 2 2 3 1 2 4 5 6
45 41 40 38 36 37 34 30 29 23 28 25 17 21 16 17 15 12 15 11 14 13 13 9 4 7 11 7 5 2 6 1 4 7 10 5 3 2 1 2 6 3 6
47 46 43 40 38 36 38 38 34 27 28 21 20 17 20 20 16 12 14 14 14 11 13 11 8 8 19 15 10 10 4 3 5 4 6 12 7 9 5 5 5 6 4
49 48 46 43 40 38 35 36 35 28 25 24 25 22 22 22 20 13 16 15 13 13 15 11 10 10 13 15 14 12 9 5 5 4 4 1 2 6 8 9 7 7 9

GFSSE_850_spd_018.txt.gz
Wind_Speed
27 28 30 24 29 27 29 29 28 29 29 26 25 23 22 20 18 17 15 14 15 16 17 16 15 14 12 13 13 12 13 15 15 14 10 11 12 13 14 10 13 12 11
27 29 29 25 27 30 30 29 28 27 25 24 23 21 21 18 16 15 14 13 14 16 16 15 14 14 13 12 11 12 13 11 10 15 15 13 12 11 10 9 10 12 14
29 30 28 28 31 32 29 28 26 25 22 22 20 20 18 17 15 13 13 13 13 15 14 14 14 13 13 12 10 10 11 11 12 11 15 11 10 10 10 8 9 12 13
33 31 30 30 31 31 29 26 24 23 21 20 20 18 16 15 14 12 12 12 13 13 13 13 14 14 14 11 10 8 9 11 11 11 14 11 9 9 8 10 10 12 12
30 31 30 30 29 29 27 25 24 22 21 19 18 16 15 14 13 12 11 11 12 13 13 14 15 15 14 13 10 9 9 10 12 11 8 9 7 10 10 12 13 13 14
29 29 29 27 27 27 26 24 22 21 19 17 15 14 14 13 12 11 12 12 12 13 14 15 16 15 15 14 11 10 7 8 10 9 4 7 5 9 9 13 12 13 12
30 28 28 26 25 25 24 22 21 19 17 14 12 13 13 13 12 11 13 13 13 13 14 16 16 15 16 14 11 7 8 7 9 12 0 4 5 9 11 12 10 11 10
28 27 26 25 24 23 22 21 20 18 16 13 11 12 12 11 11 14 14 14 14 13 13 15 16 15 14 12 11 8 10 7 8 2 4 5 7 8 9 10 10 11 11
22 25 25 25 24 22 21 21 20 18 15 12 11 11 11 10 10 10 12 13 12 11 11 15 16 15 13 13 11 8 11 11 10 6 5 2 8 7 9 9 9 11 11
22 22 24 25 25 23 21 20 19 17 15 12 11 10 9 8 8 8 8 10 10 10 13 13 14 12 10 8 9 5 11 10 8 9 7 3 8 7 8 9 9 10 11
22 21 22 24 24 23 21 19 18 16 15 13 12 10 8 6 6 7 7 8 10 10 8 10 12 11 7 10 11 6 7 8 8 7 8 7 6 7 8 9 11 11 11
24 23 22 23 24 22 21 19 18 16 14 13 10 10 6 3 4 5 6 8 8 6 7 7 8 9 10 9 7 5 5 7 9 7 8 7 4 5 7 9 11 12 11
20 22 23 24 24 24 21 20 18 16 14 13 12 9 6 4 1 4 7 4 5 8 7 8 7 8 4 7 6 5 7 6 5 7 6 5 5 4 6 8 10 11 12
25 19 23 23 25 24 21 17 15 14 13 13 12 9 8 2 3 3 5 5 5 6 6 6 7 2 6 7 7 10 7 4 5 8 4 2 4 2 8 9 9 10 11
27 23 23 21 24 24 21 14 17 15 17 14 12 8 7 7 3 1 1 1 3 3 3 4 3 5 5 4 2 3 4 5 3 6 3 1 1 2 5 8 8 9 10
30 27 24 22 19 25 24 16 18 16 14 11 10 8 7 7 4 3 3 4 1 2 1 0 4 2 3 3 3 3 3 2 5 4 1 1 1 3 3 5 7 10 9
34 29 29 25 22 24 23 19 18 15 14 12 12 11 12 10 8 5 7 4 5 3 3 4 6 4 4 4 3 3 3 3 3 10 7 2 3 1 3 3 6 7 9
38 35 32 29 25 23 23 25 17 14 15 13 15 10 14 13 7 7 7 6 7 6 5 6 5 6 5 4 2 2 4 1 3 3 2 4 5 4 1 1 3 3 6
40 37 35 32 27 24 26 26 23 20 19 14 13 10 12 12 8 5 5 5 5 5 7 4 4 3 2 4 5 3 5 5 3 5 7 4 5 4 3 1 2 2 5
40 39 36 32 27 24 25 29 26 25 21 21 19 17 14 11 9 8 7 7 7 5 5 5 5 3 8 3 5 9 6 2 5 6 6 3 4 6 4 2 2 5 4
42 40 40 37 31 27 28 28 28 31 26 23 20 16 16 12 13 12 10 9 10 8 4 5 6 9 5 7 4 6 8 4 6 7 5 2 1 2 2 3 2 2 3
44 41 39 37 33 30 29 25 23 20 28 29 23 19 19 16 14 11 10 9 11 13 11 9 8 4 10 7 4 9 9 9 10 9 5 1 1 3 4 2 1 6 9
44 44 43 38 35 32 30 25 24 19 23 28 24 22 19 16 13 14 11 11 11 14 13 10 8 7 11 10 3 7 6 7 14 12 6 5 3 7 3 2 8 6 4
46 43 43 40 37 35 33 29 29 29 28 28 24 21 21 21 18 17 11 13 14 13 12 10 8 10 14 12 7 6 5 11 9 10 12 9 4 3 1 3 1 7 4
52 50 46 44 42 40 37 35 34 33 28 24 26 21 20 19 19 17 15 15 17 15 13 13 9 8 16 12 11 8 6 8 10 10 13 14 11 9 8 6 6 3 5
56 54 52 50 47 44 41 37 37 37 32 27 30 28 21 22 22 21 18 14 13 14 12 12 9 10 12 15 14 14 12 9 10 11 10 9 9 7 8 15 12 9 8

GFSSE_850_spd_021.txt.gz
Wind_Speed
35 31 27 25 23 24 26 29 30 30 28 25 22 20 19 19 16 15 15 15 15 15 15 15 14 13 12 11 11 13 13 14 13 9 8 10 10 11 9 9 9 9 10
36 31 27 25 27 27 28 29 29 28 25 23 21 19 19 17 14 14 14 14 14 14 14 15 15 12 11 11 11 11 9 8 13 12 11 11 12 10 8 10 8 10 11
32 30 27 25 28 28 28 28 26 25 23 22 20 18 17 15 14 13 13 14 13 14 13 14 14 13 11 10 12 12 10 12 14 15 10 9 9 8 8 9 12 11 13
32 28 28 27 29 28 28 26 25 23 21 20 18 17 15 13 13 12 12 13 13 14 14 15 14 12 11 10 9 9 9 11 14 13 12 9 10 8 7 9 11 12 12
33 28 28 28 29 28 26 24 22 21 20 19 17 16 14 12 12 13 13 13 14 14 14 15 14 13 11 9 8 7 7 11 12 12 11 10 8 10 8 10 12 12 12
32 29 29 29 29 27 25 22 21 21 19 17 16 15 13 12 14 14 13 14 13 14 15 15 14 13 12 10 9 7 5 6 10 9 10 11 8 9 10 10 12 13 12
32 29 29 28 28 26 24 22 21 19 17 15 15 13 13 14 15 14 13 13 12 13 13 15 14 13 12 11 9 9 8 9 5 10 6 8 9 9 11 9 11 11 12
30 29 28 26 26 25 23 21 19 17 15 13 13 13 13 14 14 12 12 12 12 13 13 13 12 12 12 11 10 10 10 10 7 5 7 6 8 9 10 10 9 10 11
28 28 26 26 25 24 22 20 18 16 14 12 12 12 12 12 10 10 10 9 11 13 14 13 11 11 10 9 10 10 11 9 10 6 4 5 7 9 9 9 8 10 11
27 26 26 26 25 23 22 20 19 16 13 11 12 11 10 9 9 7 7 8 10 12 12 9 8 8 8 7 9 9 10 8 7 9 3 4 6 7 8 8 8 9 9
25 25 25 26 25 22 21 20 19 17 14 12 12 11 9 8 6 5 6 8 9 11 11 9 8 7 8 6 8 8 7 8 7 7 6 4 5 6 7 9 9 9 9
27 26 26 26 25 23 21 21 19 17 15 13 12 11 7 6 6 7 7 7 7 6 7 6 6 7 6 5 5 6 4 7 7 6 5 4 4 5 6 8 9 10 9
26 25 25 25 25 24 23 21 19 18 16 15 12 11 6 6 5 4 5 6 5 6 6 6 4 5 4 5 8 7 4 4 6 4 2 2 2 7 5 7 9 10 10
29 26 26 26 26 24 22 20 19 18 16 14 12 12 6 3 4 6 5 6 6 6 8 6 4 1 4 3 5 6 8 5 3 7 2 1 2 4 8 7 8 10 11
26 27 27 27 27 24 22 20 19 17 15 15 13 10 7 6 4 3 3 2 4 5 2 2 2 3 1 2 3 1 3 2 1 3 2 1 2 0 5 9 7 8 9
27 25 25 28 26 25 24 20 18 17 16 17 15 9 7 7 6 5 2 2 5 4 5 4 1 2 3 3 5 1 2 4 4 3 2 1 2 3 2 7 9 8 9
31 26 25 24 25 28 25 20 21 18 19 16 14 12 11 9 9 6 5 5 5 5 5 3 5 4 3 3 3 2 1 2 7 8 5 2 1 1 2 2 5 7 9
31 32 29 26 24 25 29 23 23 20 18 16 14 16 15 13 9 8 7 7 7 6 6 5 5 6 5 4 2 2 3 3 5 2 2 2 3 2 2 2 2 3 6
32 34 33 31 27 24 30 25 24 20 19 18 19 20 16 14 12 8 7 5 6 6 4 6 5 4 4 5 8 5 5 3 4 1 6 4 4 3 2 4 2 2 3
34 35 34 34 31 26 25 28 28 23 20 20 18 16 13 12 12 9 6 7 7 9 6 5 6 7 6 9 5 7 7 3 7 2 2 2 2 5 5 3 2 4 4
42 39 37 36 35 33 31 31 31 30 26 24 22 18 15 12 12 12 9 11 11 10 8 7 7 8 11 7 7 11 7 4 8 6 3 2 2 2 1 3 4 2 3
44 44 40 39 38 36 32 31 33 32 29 27 24 21 18 14 12 13 11 13 13 12 13 10 9 10 8 9 6 7 10 7 9 11 6 2 6 4 4 4 1 4 5
49 46 44 42 42 39 35 32 31 28 30 33 30 25 21 18 16 16 14 15 14 13 13 12 10 8 11 8 7 7 5 5 14 13 9 6 5 4 4 5 8 7 4
47 46 46 45 44 42 39 37 34 31 30 29 32 30 24 20 20 19 17 18 14 13 13 13 11 6 12 12 8 8 9 9 11 8 12 12 7 5 2 0 3 5 5
47 45 45 46 44 44 44 40 36 34 30 24 25 29 26 22 22 23 21 21 16 14 13 13 11 9 13 14 12 10 8 9 12 11 13 16 13 10 9 7 5 3 0
53 49 45 47 47 47 46 43 40 37 33 29 27 29 27 24 24 23 23 21 16 15 16 12 11 11 11 16 15 13 10 9 12 12 12 15 15 12 13 13 14 10 7

GFSSE_850_spd_024.txt.gz
Wind_Speed
28 26 25 25 26 26 25 26 25 25 25 22 19 18 17 16 15 14 14 14 14 14 13 12 11 11 10 9 9 11 13 11 9 9 9 11 9 8 9 10 10 11 12
33 27 26 24 25 26 26 27 27 26 23 20 19 18 16 14 14 13 14 13 14 14 13 12 10 10 10 9 8 7 6 11 10 12 13 13 13 9 10 9 9 13 11
33 26 24 25 25 28 29 29 27 23 21 20 19 16 14 13 12 13 13 13 13 13 12 10 10 9 9 9 8 8 10 10 11 11 11 11 11 10 10 11 12 12 11
31 27 23 25 27 29 29 27 24 22 20 19 17 15 13 11 13 14 12 13 13 13 12 10 9 8 8 8 6 7 8 8 10 10 8 11 11 9 10 12 12 13 12
29 28 24 27 28 29 27 25 23 20 19 17 16 14 12 13 14 13 14 14 13 13 11 11 10 9 9 8 7 7 8 8 10 10 9 9 10 11 11 12 12 11 9
28 28 26 28 28 28 25 23 21 19 18 17 15 13 12 13 14 14 14 13 13 12 10 11 10 10 10 9 8 7 6 5 7 9 7 10 10 11 12 12 12 10 10
29 28 28 28 27 25 24 22 21 19 17 16 14 12 12 13 14 13 12 12 12 11 10 11 12 12 12 12 11 9 9 6 3 7 6 10 9 11 11 11 10 10 10
28 29 29 28 26 24 23 21 20 18 16 14 13 13 14 13 13 11 11 11 11 10 10 11 11 11 12 11 11 11 10 10 4 5 5 9 9 11 11 9 9 9 10
28 29 28 28 26 24 22 20 18 16 14 13 12 12 11 11 10 9 9 10 11 11 10 10 10 9 10 10 11 10 10 9 7 6 4 6 9 9 9 7 9 9 9
28 27 28 27 26 24 22 20 18 15 12 12 11 11 10 9 7 7 7 8 10 10 9 8 8 8 9 11 8 9 9 8 9 7 4 5 6 7 6 6 7 9 9
28 27 26 26 26 24 22 20 18 15 13 11 10 9 8 7 5 5 7 8 10 8 7 8 7 8 10 7 8 7 4 7 8 9 7 3 5 5 6 7 8 6 7
30 28 26 25 24 23 22 20 19 16 14 12 10 9 7 5 7 6 7 6 8 7 6 4 7 7 6 8 7 6 3 3 6 6 6 4 2 4 5 8 7 7 5
30 28 27 26 24 23 22 21 19 17 15 14 12 10 7 6 4 3 5 5 4 6 6 4 3 5 4 5 6 8 3 3 6 7 4 3 1 5 4 5 6 7 7
30 28 27 26 25 24 22 20 19 17 16 15 12 10 8 6 5 8 5 6 6 6 6 3 2 1 1 4 6 9 8 5 2 6 3 2 3 3 6 3 6 8 9
30 28 27 26 26 24 22 20 19 18 17 16 14 11 7 7 6 4 4 3 4 7 3 2 3 4 1 1 0 4 6 3 4 2 2 2 3 1 4 7 6 7 8
30 28 27 27 26 25 23 21 19 18 17 16 15 11 7 7 5 4 1 2 3 3 4 4 2 3 4 4 5 1 5 3 4 1 1 2 3 4 1 5 7 6 6
29 26 28 27 26 26 23 21 20 19 17 17 17 11 9 7 7 5 4 3 5 5 6 4 4 5 3 2 3 1 1 2 9 9 4 1 2 3 4 1 4 6 7
29 27 25 27 27 26 25 23 21 19 20 18 17 14 14 11 9 8 5 6 7 5 7 6 4 4 2 2 2 2 3 3 2 7 3 2 1 1 5 5 3 1 4
33 29 26 27 27 27 27 25 22 22 20 19 17 16 16 14 13 10 6 6 5 6 6 5 5 3 3 3 5 5 3 0 2 4 4 2 1 1 1 2 4 3 2
31 31 28 28 26 24 25 27 25 24 23 21 20 18 18 16 15 11 10 7 6 7 6 5 6 5 4 6 8 4 5 2 4 2 2 5 3 1 0 3 2 4 4
34 33 33 33 30 28 27 31 29 28 25 20 20 18 17 15 11 11 11 9 9 9 9 8 5 5 6 7 4 5 6 3 5 2 1 4 5 2 1 2 3 2 2
37 37 36 34 32 32 30 29 31 31 28 23 21 20 19 16 13 10 12 11 10 11 11 9 8 7 9 8 5 8 8 5 7 6 4 2 6 8 7 6 1 2 2
42 42 41 38 37 35 34 32 32 31 31 29 27 25 22 18 16 12 12 12 11 12 10 10 9 7 5 9 8 6 6 5 10 10 8 5 5 6 6 7 8 6 5
46 44 44 42 40 38 36 36 35 33 31 30 32 28 25 21 18 18 15 15 14 12 11 9 10 8 7 10 10 10 10 6 9 8 13 10 8 5 3 2 4 6 6
49 48 47 45 43 41 39 39 37 37 32 27 26 28 30 27 22 20 18 17 15 15 13 11 11 10 8 12 12 8 10 11 10 8 10 15 14 9 6 5 4 3 2
50 50 49 50 48 45 45 44 42 38 35 31 29 26 27 28 26 24 22 21 19 17 15 12 12 12 9 11 12 12 10 9 9 10 10 9 15 13 11 9 10 10 9

GFSSE_850_spd_027.txt.gz
Wind_Speed
30 27 31 30 30 30 27 24 23 24 22 19 17 16 14 13 13 12 11 11 11 10 8 9 9 9 7 8 9 10 11 8 7 9 10 9 9 8 10 11 11 11 11
32 27 27 27 27 26 25 24 24 23 21 18 16 16 13 12 12 11 11 11 10 9 8 8 8 7 7 6 6 4 8 10 11 10 10 10 10 10 11 11 15 13 12
29 27 25 25 25 25 25 25 24 22 19 17 16 14 13 12 11 11 11 11 10 9 8 7 8 7 7 8 7 8 8 11 10 11 11 9 9 10 10 11 13 13 12
29 27 25 25 25 26 27 26 23 20 18 17 15 12 12 12 11 11 11 11 11 9 8 8 8 8 7 6 6 6 7 9 9 8 9 9 9 10 12 13 13 12 11
28 26 25 25 28 29 27 24 22 19 18 16 13 12 12 12 12 12 11 11 11 9 9 10 9 8 7 5 4 6 6 8 9 8 8 11 10 10 12 12 13 12 11
29 26 27 26 29 27 25 22 20 18 17 15 13 11 13 13 12 11 11 11 10 9 11 12 12 11 10 7 6 6 3 6 8 8 7 11 10 10 13 12 11 11 12
28 27 28 27 28 26 23 21 19 17 16 14 12 11 13 12 12 11 10 10 9 11 12 13 15 14 12 11 11 10 7 5 8 6 7 9 8 11 12 12 11 12 12
28 26 26 27 27 25 22 21 19 17 15 13 11 13 12 12 11 10 9 9 10 11 12 12 13 14 12 11 12 9 10 8 5 7 7 7 9 10 9 9 10 10 10
27 25 25 27 25 23 21 20 18 16 14 13 12 11 11 10 10 9 8 8 9 10 11 10 10 11 10 10 11 10 9 10 8 6 6 7 9 8 7 7 8 9 9
24 25 26 26 25 23 22 20 17 14 13 12 10 9 8 8 8 7 7 7 8 8 8 7 9 9 10 9 8 9 8 9 8 7 6 7 8 6 5 8 7 8 7
24 26 27 27 27 24 22 20 17 14 12 11 9 8 8 7 6 6 7 7 7 7 7 6 7 9 10 7 7 7 7 7 9 8 5 5 7 6 4 7 8 7 7
27 27 29 29 28 25 22 20 18 15 12 11 9 8 7 7 7 7 7 6 5 4 3 4 7 8 8 8 7 6 6 5 7 7 6 3 4 5 5 5 6 6 6
29 29 29 29 28 26 24 21 19 16 14 12 10 8 7 7 5 4 3 4 4 3 3 2 3 4 5 7 13 10 5 7 7 5 4 3 1 5 3 7 6 4 5
32 31 29 28 27 26 23 22 19 18 15 14 12 9 6 5 3 6 3 4 3 5 4 2 1 3 2 4 7 10 7 5 4 7 5 4 3 3 5 4 5 5 5
32 31 30 29 27 25 23 22 20 18 16 15 13 11 8 6 5 4 4 3 3 4 2 3 3 3 3 2 1 5 6 4 5 2 3 4 5 2 3 5 4 4 5
32 31 30 29 27 25 23 21 19 18 17 17 14 12 9 7 5 3 2 2 3 4 5 3 4 5 5 5 3 4 5 5 7 3 3 4 5 6 2 2 6 5 4
32 30 30 28 27 25 24 22 20 19 18 18 16 13 8 6 6 3 3 2 4 4 6 5 4 4 2 4 5 3 3 3 7 6 5 3 3 6 7 3 3 5 6
31 31 28 28 27 26 25 22 21 20 19 18 18 15 10 9 7 6 6 5 5 6 6 6 5 4 3 1 1 3 2 2 6 6 4 3 3 3 6 7 5 1 2
33 30 29 29 28 27 25 23 22 21 20 19 19 17 14 13 10 10 8 6 5 5 6 4 5 3 2 1 1 2 1 1 3 6 6 5 2 3 2 4 5 4 4
33 30 27 28 28 28 26 25 25 24 22 22 21 19 17 15 14 13 11 8 7 5 4 5 4 3 2 4 7 1 7 3 4 3 5 5 3 2 1 1 1 1 2
35 35 31 28 27 29 31 31 30 27 26 25 24 20 18 17 16 14 13 10 9 6 6 6 5 3 5 9 4 4 6 3 4 2 4 5 4 3 1 2 1 1 1
37 38 36 32 30 31 30 29 31 29 28 27 23 20 18 17 16 13 12 12 9 8 8 8 6 5 6 4 5 6 4 2 4 3 2 4 7 7 6 6 2 2 1
37 39 38 37 36 34 30 27 27 31 29 29 27 22 21 19 16 14 12 12 10 9 9 9 7 5 5 6 6 4 3 3 5 7 5 5 5 6 6 7 8 6 4
40 38 40 38 38 36 34 33 31 32 33 32 32 27 23 21 19 16 15 13 13 11 9 10 8 5 4 7 8 8 8 4 5 4 10 8 7 5 4 3 4 4 5
42 41 41 41 41 39 37 36 34 32 30 28 28 28 27 24 21 19 18 16 14 12 11 11 10 7 6 7 9 6 7 9 8 6 7 8 13 11 8 5 3 3 2
41 44 44 44 43 42 40 39 38 36 33 31 29 25 25 26 26 25 21 18 17 15 12 12 11 9 8 7 10 10 7 5 6 7 7 8 10 11 14 11 9 9 9

GFSSE_850_spd_030.txt.gz
Wind_Speed
39 33 30 31 32 25 21 20 21 21 19 16 15 13 11 10 10 11 12 9 9 8 8 8 7 8 9 9 9 11 9 7 8 8 8 8 8 8 10 14 13 8 11
35 31 33 30 28 24 20 20 22 20 17 15 14 12 11 10 10 11 10 11 9 9 8 8 7 8 9 7 6 8 11 10 10 9 10 9 10 10 12 16 15 11 11
34 30 28 27 26 23 22 23 21 19 16 15 12 10 10 10 10 9 10 9 10 9 8 8 7 8 8 8 8 9 10 9 9 11 16 8 7 10 11 13 12 12 12
26 28 23 27 25 24 23 23 21 17 16 14 11 10 9 9 9 10 11 9 9 10 9 8 8 8 7 7 7 7 9 9 7 10 9 8 6 11 12 12 11 11 12
29 20 23 25 25 25 23 22 18 16 15 13 11 10 10 9 9 11 12 9 10 11 11 10 9 9 7 6 6 6 6 9 8 10 5 9 6 8 11 12 11 10 12
22 22 27 25 26 25 23 20 18 16 14 12 10 10 10 10 10 10 9 9 10 12 14 15 14 12 10 7 6 5 4 7 12 7 7 12 8 9 11 10 10 9 10
24 23 25 27 27 25 21 19 17 15 14 11 10 11 10 10 9 10 9 9 12 14 16 16 14 13 12 10 9 9 5 6 7 8 7 5 8 11 11 10 9 11 11
25 24 25 28 25 22 20 18 16 15 13 11 11 11 11 10 9 8 9 10 11 13 14 15 13 12 12 11 10 10 9 9 7 7 9 6 8 10 9 9 10 9 9
25 24 24 23 24 22 19 18 16 15 13 11 12 11 10 9 8 8 9 10 11 12 11 12 12 11 10 10 10 9 10 9 7 5 7 6 9 10 7 8 9 9 9
26 24 23 21 20 17 18 18 16 14 12 10 10 9 9 8 8 7 8 8 10 9 9 10 10 10 9 9 7 8 10 13 7 6 6 4 7 7 5 7 7 8 8
26 25 24 22 20 18 16 18 16 14 12 10 9 8 6 5 4 5 5 7 7 7 7 9 9 9 9 11 9 6 10 4 6 6 4 4 6 6 4 5 6 6 7
28 27 25 23 20 18 15 15 13 10 8 7 6 6 6 5 5 6 4 6 4 4 4 6 7 11 11 7 7 6 6 1 4 4 3 3 6 5 3 6 5 5 6
27 27 25 24 21 19 16 14 12 10 9 8 9 7 5 4 2 3 2 2 1 2 2 4 4 6 5 7 9 7 3 4 3 2 1 3 4 6 5 5 5 4 5
28 27 25 23 22 20 16 14 13 12 10 8 7 8 5 3 0 4 3 3 3 2 2 1 5 3 3 4 6 8 5 3 2 3 2 5 4 6 6 7 4 5 5
28 27 25 23 22 21 18 14 13 13 11 9 8 8 6 4 3 2 2 2 3 2 1 1 2 2 1 1 3 5 4 3 2 3 1 5 5 3 5 7 7 5 5
27 26 24 23 22 22 19 16 14 13 12 11 9 8 8 6 5 2 1 1 0 2 2 2 1 3 3 3 2 5 4 3 4 5 3 3 7 6 3 4 7 5 4
28 26 25 24 23 24 22 20 16 13 12 12 11 12 10 9 6 4 3 2 1 3 3 3 2 4 3 4 5 4 3 5 5 6 6 3 4 7 5 3 3 4 4
26 26 25 23 23 23 21 20 17 15 14 13 12 11 13 9 6 5 3 1 2 3 2 2 1 1 2 1 3 3 2 4 8 6 4 3 4 1 4 6 5 3 3
27 26 26 25 24 23 22 19 19 17 16 14 14 13 13 11 9 6 5 3 2 1 3 1 3 2 1 1 1 1 2 2 6 4 3 3 2 4 3 2 5 5 4
26 26 25 25 24 24 21 21 18 18 17 16 15 15 16 14 12 9 7 8 2 2 1 2 1 0 1 1 2 1 6 6 5 4 5 4 3 3 2 2 1 1 1
28 28 28 27 28 27 25 23 22 21 19 17 17 19 19 16 13 12 9 10 4 4 2 0 2 2 1 3 6 7 5 4 5 4 5 4 4 3 2 2 3 4 2
30 29 29 29 30 31 27 25 22 21 19 18 17 18 21 18 16 14 11 11 8 4 3 1 1 0 1 4 5 5 7 5 5 4 4 4 5 5 4 4 3 4 3
33 32 32 32 31 31 26 23 22 20 20 19 20 19 19 18 16 14 11 10 9 4 5 3 1 3 1 4 8 3 4 3 7 5 4 4 3 3 3 5 5 4 5
36 33 33 34 33 30 32 24 27 25 23 21 21 19 17 20 18 16 14 11 10 7 8 4 3 4 4 5 6 6 6 4 5 7 7 7 6 4 4 3 2 3 4
33 33 32 34 37 32 34 30 27 26 21 19 19 21 23 18 21 17 16 16 14 10 10 9 6 3 6 7 6 6 6 7 7 5 6 7 8 8 6 4 4 3 3
33 32 31 34 40 39 38 37 34 28 25 22 21 20 20 20 19 23 19 18 17 15 12 9 8 7 7 7 8 8 6 5 4 5 5 5 7 7 9 9 8 7 7

GFSSE_850_spd_033.txt.gz
Wind_Speed
32 28 24 25 24 23 21 19 19 17 15 13 12 12 11 13 13 11 11 10 10 9 8 7 8 8 9 8 10 12 9 6 7 8 8 9 10 12 14 14 12 7 10
31 28 26 25 23 20 20 20 19 16 14 13 11 11 12 13 12 11 12 11 11 10 9 9 9 8 8 9 11 13 11 11 10 10 11 9 10 12 15 12 14 7 10
34 30 25 24 21 17 19 20 18 14 13 12 10 11 11 12 12 11 11 11 11 9 9 8 8 9 10 10 10 11 10 12 16 12 13 13 5 12 12 10 9 9 10
37 24 21 24 19 18 19 19 16 14 12 10 10 10 10 10 12 12 12 12 11 10 10 10 8 8 8 9 9 10 11 11 13 12 12 12 6 8 10 10 10 10 9
30 23 23 24 20 20 20 18 15 13 12 10 8 9 9 11 13 12 11 12 13 13 12 11 10 8 7 6 6 6 12 14 14 10 12 11 8 7 9 9 7 8 10
24 25 27 24 22 22 20 17 14 13 11 9 9 9 9 11 11 10 12 13 15 15 14 14 12 10 7 8 8 5 10 16 12 11 10 10 11 9 11 11 8 8 7
26 23 26 24 22 22 20 16 14 13 11 9 9 9 10 10 10 11 12 14 15 15 15 14 13 12 11 9 11 8 9 14 10 5 9 6 7 9 10 8 8 9 9
27 25 24 25 22 21 18 16 14 13 10 9 10 10 10 10 9 10 12 13 13 13 13 12 12 11 11 11 11 12 11 12 8 8 5 8 8 10 10 9 9 8 9
26 26 24 23 22 19 17 16 14 13 10 10 10 10 9 10 10 10 10 11 12 11 11 10 11 10 10 10 11 11 12 11 11 9 5 3 8 9 8 9 9 8 8
27 23 24 22 19 16 17 15 14 13 11 11 10 9 9 11 9 10 8 8 9 10 10 10 10 11 12 11 8 10 15 14 11 8 6 5 6 7 7 8 7 7 8
26 24 23 22 19 16 14 15 14 12 10 9 8 8 10 9 7 5 3 6 7 8 8 8 12 8 8 14 14 8 10 11 9 5 4 2 5 7 6 7 7 7 8
26 25 23 22 20 17 13 14 11 8 6 6 3 3 7 7 5 6 4 4 4 5 5 6 6 4 2 2 8 6 13 6 5 4 2 3 5 7 6 6 6 6 6
26 25 24 22 20 18 16 12 10 8 8 6 5 6 12 6 3 4 3 4 4 5 3 6 4 12 7 6 7 5 5 2 3 7 2 2 6 7 7 6 5 5 5
26 25 24 22 21 19 15 13 11 10 8 7 6 5 2 6 3 4 6 3 3 3 3 7 11 5 6 6 7 6 3 3 5 4 3 2 6 7 6 6 4 5 5
26 25 24 22 22 20 16 14 12 11 10 8 6 6 4 1 2 5 5 1 1 3 2 1 5 4 4 2 2 4 2 1 3 4 3 2 4 6 8 7 6 5 6
26 26 25 23 22 20 19 15 14 13 10 10 8 7 8 5 4 3 3 0 1 3 5 1 1 4 2 2 4 6 4 3 5 6 1 5 6 3 6 8 7 6 6
27 27 26 24 22 22 20 17 15 13 12 11 9 10 8 8 4 2 2 3 2 5 4 3 2 4 8 5 3 3 2 2 6 3 6 2 5 6 4 5 8 8 5
27 28 26 25 23 22 20 18 15 14 13 12 11 9 10 10 11 5 2 1 1 2 1 3 3 1 4 2 1 1 2 4 5 5 4 2 0 1 4 4 3 5 5
28 28 28 25 24 23 21 18 17 16 15 13 12 11 13 12 9 6 6 7 2 1 2 1 1 3 0 2 5 3 3 4 2 4 2 2 4 3 4 5 5 4 2
29 28 27 26 26 25 21 20 17 17 16 15 14 13 15 13 11 7 3 3 2 1 3 6 3 1 1 1 1 2 5 4 3 3 3 6 3 2 1 6 2 5 4
29 29 30 30 29 26 24 22 20 20 18 16 15 16 16 13 11 10 7 5 3 4 4 2 1 2 3 2 6 7 3 4 3 3 5 6 4 3 2 3 4 2 5
32 32 32 32 31 31 26 24 21 19 17 16 15 17 17 15 13 12 10 10 8 4 7 3 5 4 1 6 5 7 8 6 4 4 4 4 4 4 4 3 3 1 3
34 34 34 35 34 32 26 24 22 20 19 18 17 17 16 16 14 15 12 10 9 9 9 2 3 6 2 5 8 3 0 7 9 5 3 5 4 3 2 5 4 4 4
36 35 34 36 36 33 33 25 27 24 22 20 18 17 17 17 16 15 13 11 11 8 8 5 5 6 5 5 6 5 4 1 5 7 6 6 3 4 4 3 2 4 5
36 36 36 37 36 32 31 30 27 27 22 19 18 19 21 19 17 16 15 14 13 12 12 10 9 7 6 7 5 5 4 3 2 0 9 9 5 7 4 3 2 4 2
34 34 34 36 37 36 34 35 31 29 25 21 21 19 19 20 16 21 18 19 16 13 12 9 9 8 10 8 7 6 4 4 4 4 5 7 9 8 7 6 7 7 7

GFSSE_850_spd_039.txt.gz
Wind_Speed
25 24 26 25 24 20 19 19 18 18 18 17 18 18 19 18 18 17 16 16 15 14 14 14 13 12 14 15 15 14 14 13 12 11 10 11 13 15 18 15 9 12 14
30 28 26 26 23 20 19 19 18 17 17 18 17 18 18 18 17 17 16 16 15 15 14 14 15 15 16 16 15 16 18 18 17 16 14 12 14 15 16 13 11 14 14
33 29 27 24 22 20 19 18 17 16 17 17 16 17 17 17 17 16 16 15 15 15 14 14 15 16 17 18 15 19 20 20 18 16 16 11 11 11 12 13 13 13 14
34 29 27 23 21 20 19 18 16 16 16 16 15 15 17 17 17 17 16 16 16 15 14 13 13 13 14 17 16 19 21 22 19 15 11 11 10 10 12 14 14 14 14
32 28 26 23 21 20 18 17 15 15 14 14 14 16 17 16 16 17 17 17 17 16 15 13 13 13 13 14 17 19 16 16 14 14 12 9 9 11 14 14 14 14 13
26 26 24 23 21 19 17 16 14 13 13 13 14 15 15 15 16 18 19 19 18 17 16 16 15 14 13 14 17 17 17 20 17 13 9 10 10 11 11 12 12 11 12
23 23 21 21 20 18 16 15 13 12 13 14 14 14 14 14 16 17 18 18 17 17 17 17 17 17 16 14 17 16 18 16 13 13 8 5 10 11 11 11 11 12 12
24 23 21 21 20 18 16 15 12 11 13 13 14 14 14 14 15 14 15 16 16 16 16 14 14 15 17 15 19 17 14 19 11 9 9 10 11 11 13 13 12 13 12
22 24 22 22 21 18 16 14 12 11 13 13 14 14 14 14 13 13 13 13 15 15 14 13 12 14 17 16 14 16 16 15 10 10 10 9 9 12 12 12 12 13 12
19 22 24 23 21 18 16 14 12 12 14 14 14 15 15 14 12 11 10 12 14 12 12 12 11 12 13 16 19 17 19 14 10 7 8 6 7 10 11 12 12 12 11
20 24 25 24 21 18 15 14 12 14 14 13 13 12 12 13 12 8 8 9 11 9 9 9 9 10 13 12 13 17 17 12 7 6 7 5 5 8 10 11 11 12 12
26 23 26 24 21 18 16 14 13 13 13 12 9 10 12 13 12 5 6 7 7 7 8 8 9 9 5 11 10 9 14 9 8 3 7 5 3 7 9 10 10 10 11
27 24 23 23 20 18 17 15 15 15 12 14 11 9 11 9 10 10 5 6 6 8 7 5 6 7 12 10 5 8 7 7 8 5 7 4 2 5 8 9 9 8 8
27 27 22 19 18 18 15 13 14 11 11 12 5 6 8 8 7 7 7 6 3 5 8 9 10 9 9 8 12 8 5 6 7 6 10 4 2 5 8 9 9 8 8
29 30 27 23 21 19 18 8 13 11 9 9 5 2 2 9 9 5 7 5 4 5 5 4 6 6 6 8 12 15 14 13 6 7 10 6 4 3 5 6 6 6 6
36 36 33 28 24 21 18 15 10 8 9 13 8 4 5 7 7 6 6 3 4 4 4 4 7 11 14 14 10 10 10 7 7 8 9 11 8 3 3 4 5 5 6
34 39 38 33 27 26 21 20 17 17 13 12 8 8 5 5 5 5 6 3 5 8 7 10 8 11 13 12 9 7 2 7 6 6 3 10 10 8 5 4 4 3 3
31 40 39 33 29 30 30 25 22 21 17 10 10 9 6 12 8 7 5 5 4 2 8 5 6 9 8 8 6 10 8 8 6 4 8 5 6 9 7 6 3 2 3
33 36 36 34 29 26 29 27 26 24 20 14 11 12 8 7 11 7 5 7 9 8 5 5 3 5 4 9 4 12 9 6 6 4 5 3 7 10 7 5 6 4 2
40 36 35 32 28 22 22 32 27 24 22 18 9 11 10 7 10 9 7 9 8 7 6 5 5 6 7 8 11 8 7 6 4 5 6 2 4 5 7 6 5 7 4
43 41 40 35 29 26 23 29 28 28 25 22 18 13 13 12 10 10 11 7 10 5 5 4 8 10 5 6 12 12 8 6 4 9 5 6 7 8 5 5 6 4 5
48 44 43 38 34 30 27 24 26 22 23 21 22 16 16 15 13 11 11 9 7 6 4 5 9 8 6 13 12 8 11 9 4 12 9 7 7 8 5 5 2 1 5
45 46 44 41 37 34 31 26 22 22 18 21 18 22 17 19 17 13 12 11 9 9 6 5 9 9 7 14 6 8 5 5 12 12 7 6 8 5 3 1 2 1 1
43 44 42 40 39 37 35 31 28 29 29 26 23 18 22 20 18 16 14 12 13 11 10 6 11 11 10 10 9 7 5 9 10 7 8 10 9 6 6 3 3 2 3
44 45 44 42 39 39 38 35 31 30 29 27 22 23 20 20 15 13 15 12 13 13 11 8 10 14 10 10 7 10 7 10 10 9 12 14 11 8 7 5 6 4 2
48 46 46 43 41 39 42 39 36 34 32 29 29 23 21 21 19 17 15 15 12 15 16 12 9 11 12 13 11 9 8 12 10 10 9 13 14 11 11 9 8 6 6

GFSSE_850_spd_042.txt.gz
Wind_Speed
25 24 26 23 22 23 22 21 21 20 20 21 21 21 20 20 19 18 18 17 16 16 16 14 13 13 14 13 12 13 13 12 12 11 11 12 13 15 14 13 13 15 14
29 28 27 23 24 23 21 21 20 20 20 19 19 20 20 20 19 18 17 17 17 17 16 15 15 15 15 16 16 17 17 16 15 14 13 13 13 13 14 13 14 14 14
32 30 27 24 25 23 21 20 20 19 19 19 19 19 20 18 17 17 17 16 16 17 16 16 17 17 17 19 20 22 23 21 19 15 15 14 12 11 14 14 13 14 14
33 31 27 24 24 23 21 20 18 18 18 18 18 19 19 18 17 17 17 16 15 15 14 14 15 15 17 19 19 20 19 17 16 17 15 11 13 14 14 14 14 13 14
32 30 27 24 24 22 20 18 17 17 17 17 18 18 18 18 18 18 18 17 16 15 15 15 16 15 16 17 18 16 16 16 15 16 14 11 12 13 15 14 14 13 12
31 29 26 25 23 22 19 18 16 17 17 17 17 17 17 19 20 20 19 19 18 18 17 16 15 15 17 18 18 17 17 16 13 13 12 12 11 13 13 13 12 13 13
31 28 26 23 22 20 18 17 16 16 16 16 17 17 18 19 20 20 20 19 18 17 16 16 16 16 17 16 16 14 16 16 12 9 8 11 12 12 12 12 14 14 14
29 26 26 23 21 19 18 16 15 16 16 16 16 17 17 19 19 18 18 18 16 15 15 15 14 16 17 15 17 13 16 13 11 11 10 10 11 12 13 13 14 13 13
26 25 26 23 21 19 17 16 15 16 17 17 16 17 17 18 17 16 16 16 15 14 14 13 12 14 16 17 14 13 14 13 15 13 10 9 11 12 13 13 14 14 13
25 24 25 23 21 19 17 15 15 16 16 17 17 17 17 17 17 16 15 13 13 13 14 13 11 12 15 16 15 13 12 12 10 10 9 8 9 11 12 13 13 12 11
26 25 24 23 21 19 17 15 16 16 16 15 16 16 16 17 17 16 14 11 11 11 10 10 9 9 11 13 15 11 10 7 8 6 6 7 6 9 11 12 12 11 11
27 27 25 23 21 19 18 17 16 15 13 12 11 11 13 14 15 15 14 11 9 8 9 10 10 6 6 9 13 11 9 7 6 3 4 6 6 8 10 11 11 11 10
25 27 26 24 21 20 19 18 17 15 15 15 13 12 12 11 12 15 13 13 10 5 7 6 6 10 11 8 8 8 6 4 3 4 4 5 6 6 8 9 9 9 9
27 28 27 25 22 20 19 18 17 16 13 13 11 8 8 9 10 11 10 8 6 9 7 8 8 10 10 11 10 8 6 5 6 6 5 5 5 6 7 7 8 7 7
28 27 28 25 23 23 21 19 17 14 12 12 9 8 10 10 11 10 8 9 9 5 6 5 5 9 7 11 13 12 12 9 7 9 8 5 6 5 5 5 6 6 5
30 27 29 27 24 26 20 20 16 12 10 9 8 8 9 10 9 8 8 7 6 6 5 6 12 9 13 11 13 10 8 9 10 12 8 8 5 4 4 4 4 4 4
32 29 30 27 24 25 21 21 14 7 10 7 10 6 4 5 6 7 7 6 8 9 10 9 10 13 12 10 8 4 8 8 7 6 8 9 10 7 3 3 3 2 2
35 34 31 29 26 25 23 22 16 11 14 10 10 7 2 2 5 6 5 7 6 6 7 6 7 13 13 10 8 6 7 6 8 8 6 8 8 8 7 4 3 3 3
39 36 36 34 30 29 26 24 22 21 15 11 10 8 5 3 6 7 7 8 6 7 7 6 8 7 6 6 10 8 4 5 5 6 6 6 10 7 7 6 6 4 2
43 36 39 39 34 32 28 25 25 25 21 16 11 13 9 5 8 8 6 10 10 8 7 6 5 5 8 6 9 8 9 6 4 3 3 6 6 7 9 7 8 8 3
42 39 44 44 40 35 35 31 30 28 28 24 15 13 14 10 7 8 9 10 11 10 6 7 7 9 9 8 12 10 7 7 4 5 5 7 7 8 5 5 5 3 4
48 45 44 47 43 37 31 27 33 33 31 28 21 15 15 14 12 9 12 10 13 10 8 7 10 13 10 12 14 14 10 6 5 11 5 8 7 7 6 7 3 2 4
50 49 47 48 44 39 32 27 28 32 33 30 29 24 19 15 14 11 10 14 12 10 7 6 13 10 10 16 13 8 6 4 11 12 8 10 7 2 3 5 6 7 6
53 51 49 48 45 41 35 30 28 33 34 34 30 29 23 18 17 13 11 15 13 12 9 8 12 11 12 16 13 10 8 11 11 10 12 10 10 4 1 2 0 4 7
55 55 53 50 48 44 39 34 31 31 33 28 27 23 22 23 19 15 14 16 15 14 11 11 13 15 14 18 15 11 8 11 14 7 13 11 11 9 8 7 3 1 2
58 57 59 54 51 47 41 37 34 34 31 31 28 26 25 24 21 18 14 18 16 16 14 14 13 17 14 14 14 15 11 11 17 11 8 12 15 13 12 10 9 6 4

GFSSE_850_spd_045.txt.gz
Wind_Speed
27 27 25 24 25 23 22 22 21 21 21 20 20 19 19 18 19 18 17 16 14 13 12 9 8 8 9 8 9 10 10 8 8 8 8 10 12 12 11 12 13 13 13
31 28 24 24 25 24 22 22 22 22 21 20 20 19 19 18 18 18 17 16 15 14 13 11 11 12 12 12 13 13 13 11 10 11 11 12 11 11 12 13 13 12 13
32 28 24 25 24 23 22 22 21 20 21 21 20 20 18 19 18 17 17 17 16 15 15 14 14 15 14 15 16 17 17 15 14 13 12 11 10 10 13 12 12 13 13
33 29 26 25 24 22 21 21 20 19 21 20 18 19 18 18 17 17 17 16 15 13 13 13 14 16 16 17 17 17 16 17 15 15 12 9 10 11 12 13 13 12 13
33 28 27 26 23 22 20 20 19 18 20 20 18 18 18 17 18 18 17 16 14 13 13 13 13 15 15 17 16 15 15 16 16 15 13 11 11 12 12 12 12 12 12
32 28 27 25 23 21 19 18 17 19 19 18 17 19 19 20 20 20 19 18 16 15 14 14 13 15 15 14 13 13 15 15 14 13 13 12 12 12 11 11 11 12 13
32 28 26 24 22 20 18 17 17 18 18 17 17 19 22 22 21 21 19 18 17 16 14 13 13 16 15 15 15 15 17 13 11 11 11 10 10 10 10 11 12 13 13
31 28 26 23 21 19 18 17 16 17 17 17 19 20 20 21 20 19 17 17 17 15 13 13 14 15 14 14 14 13 14 12 12 11 9 8 9 9 10 11 12 12 12
29 27 25 23 21 19 17 16 16 16 17 17 18 20 20 19 19 16 17 18 18 16 13 13 13 14 14 12 12 13 13 14 12 10 9 8 9 10 11 11 11 11 11
27 26 25 23 21 19 17 17 17 16 16 17 17 18 19 19 17 15 15 17 17 16 15 12 12 13 13 12 12 13 12 11 10 9 9 8 7 9 10 11 11 10 9
25 25 24 22 20 18 16 16 17 16 15 15 15 16 17 17 16 16 15 14 14 12 11 10 12 12 11 11 12 11 9 7 7 7 7 8 7 8 9 10 10 8 9
27 26 23 22 20 18 16 17 16 15 15 15 15 14 15 15 14 14 14 13 11 10 11 9 7 9 9 8 8 9 8 5 4 5 6 7 6 7 9 10 9 9 9
29 26 24 22 20 18 17 18 16 14 14 13 12 13 12 13 13 12 12 12 10 9 11 8 10 7 9 9 6 6 5 3 2 2 5 6 6 7 7 8 8 8 8
30 26 25 22 20 19 18 17 16 17 16 14 13 14 9 10 11 12 12 10 9 9 8 7 10 11 8 9 9 6 4 3 2 2 5 6 6 6 6 6 7 7 7
29 28 26 24 21 20 19 18 17 16 15 14 12 10 10 8 8 8 8 9 9 7 6 7 7 7 7 6 8 10 8 6 5 6 6 6 6 6 5 5 5 6 5
28 28 27 25 22 22 22 20 18 16 13 11 10 10 9 9 8 9 8 7 7 8 6 6 6 6 11 10 13 10 9 8 7 9 9 5 5 5 4 3 3 3 3
29 27 28 26 23 23 23 21 18 14 12 10 11 11 10 7 6 6 9 9 10 9 8 8 9 12 13 12 9 7 9 8 7 9 10 7 6 4 4 3 3 2 2
30 29 29 28 26 27 25 23 18 13 11 13 13 11 9 4 3 7 8 8 9 9 11 11 13 11 10 7 6 7 7 9 9 8 9 8 6 5 5 2 1 2 2
33 31 31 31 29 30 25 24 18 14 13 13 13 13 9 2 4 6 5 7 8 7 9 7 10 11 10 5 4 4 7 8 8 8 8 8 6 6 4 5 4 2 1
34 31 32 33 30 30 28 25 20 17 15 14 13 13 10 3 3 4 4 7 8 6 6 6 6 4 8 7 7 2 3 4 5 4 4 5 5 6 6 6 6 7 3
36 36 34 35 33 31 31 30 27 24 21 16 14 13 13 8 3 5 5 8 8 6 5 7 7 7 8 8 9 7 5 5 5 4 2 3 4 4 5 3 2 4 4
41 40 40 38 36 36 34 31 30 27 26 22 17 14 14 12 8 6 7 8 8 10 7 8 8 11 9 8 13 10 5 5 4 9 7 7 4 5 6 9 4 3 2
48 45 46 40 41 40 37 35 32 30 28 29 25 21 15 15 13 10 8 11 10 11 9 6 10 11 10 10 11 10 6 4 6 9 8 8 8 4 3 4 7 6 5
53 48 47 46 42 44 43 38 34 33 35 33 32 26 20 17 15 14 11 11 13 12 10 8 9 11 10 14 13 8 9 7 6 7 11 10 12 7 3 1 2 4 5
53 52 51 48 46 44 47 42 36 33 35 37 35 30 27 21 18 16 14 10 13 14 11 9 9 13 12 15 12 9 11 11 10 5 8 10 10 9 7 5 3 3 1
51 55 54 53 50 46 49 46 39 34 30 33 33 33 30 27 24 20 16 13 14 15 13 12 10 15 12 15 16 13 10 11 16 13 8 7 9 9 9 10 9 6 5

GFSSE_850_spd_048.txt.gz
Wind_Speed
24 24 22 24 22 21 21 19 18 18 18 17 17 17 16 15 14 14 13 11 10 9 7 6 6 6 6 7 8 8 8 9 9 9 10 12 11 10 11 12 13 14 14
28 23 23 24 20 21 20 19 18 17 17 17 17 17 16 15 15 14 13 12 11 10 7 8 9 9 9 10 9 9 9 9 10 11 12 12 11 11 12 12 12 13 14
29 24 22 23 21 21 20 19 18 18 17 17 16 15 15 15 15 14 13 13 13 10 11 11 10 10 11 13 12 12 12 11 12 12 12 12 11 11 12 11 12 12 12
30 26 24 22 22 21 20 19 18 18 17 16 16 16 16 15 14 15 14 13 12 11 11 12 11 13 15 16 15 14 12 12 13 13 11 9 10 11 10 11 11 11 12
30 27 26 22 22 21 20 18 19 18 17 17 16 15 15 15 15 14 13 12 12 11 10 11 13 13 14 14 13 12 12 13 13 12 11 12 10 11 10 10 11 11 11
29 28 26 22 22 21 19 17 18 19 18 16 16 16 17 16 16 16 14 12 13 12 10 11 12 13 13 12 12 14 13 13 12 12 11 10 9 10 10 9 10 11 12
30 27 26 22 21 20 18 16 18 20 17 16 17 18 19 18 17 16 15 15 14 12 10 12 13 13 12 13 14 16 13 12 12 12 10 9 9 8 9 9 11 11 11
30 28 25 22 20 18 17 17 18 17 17 17 19 20 19 17 16 16 15 14 13 13 12 12 13 13 13 13 13 13 14 14 13 11 11 9 9 8 10 10 10 11 10
28 27 25 23 19 17 16 17 17 17 17 18 19 20 18 17 16 17 15 15 14 14 14 12 11 12 11 14 13 14 13 12 12 11 9 9 8 10 9 9 9 9 9
28 26 24 22 20 17 16 17 17 17 17 18 18 18 17 16 16 15 14 16 16 15 14 13 10 10 9 11 11 13 12 13 11 11 10 10 9 10 9 9 9 8 8
27 26 24 22 20 17 16 17 16 15 15 16 17 16 14 14 14 15 13 14 12 13 14 14 12 9 10 11 12 11 10 10 9 8 9 10 9 8 8 8 7 7 7
29 28 24 22 20 17 17 17 16 16 15 15 15 15 13 12 12 13 13 11 9 10 12 11 10 10 9 10 10 9 8 7 8 7 8 9 8 7 8 8 5 6 6
31 29 26 23 20 18 17 17 16 15 15 16 14 14 13 10 10 11 11 10 9 8 9 9 8 7 6 6 6 6 5 6 6 5 6 8 7 7 7 7 6 7 5
33 30 26 23 21 18 18 17 16 15 13 12 13 13 12 10 9 8 10 7 9 8 6 7 9 7 5 4 4 5 4 5 5 4 6 7 7 6 6 6 5 5 4
32 30 27 25 22 20 19 17 16 16 16 15 14 12 11 10 8 8 5 5 9 7 7 11 9 8 6 4 6 5 5 4 5 4 5 6 7 6 5 4 3 3 3
32 30 28 25 23 21 19 20 18 16 16 14 11 13 9 8 7 7 6 6 5 7 5 7 7 8 7 10 11 9 6 7 6 8 7 5 6 6 4 3 3 3 2
32 30 29 26 24 22 21 20 20 17 14 13 12 12 9 7 8 9 6 6 6 8 7 6 9 11 9 11 10 8 8 7 7 9 9 7 4 4 3 3 2 1 1
32 31 29 27 25 24 23 22 20 16 13 11 12 12 9 7 7 7 7 7 8 8 8 7 11 11 10 7 8 8 9 8 7 8 8 6 5 4 2 0 1 1 0
33 31 31 29 27 26 26 24 20 16 12 12 14 13 10 7 6 9 7 8 7 8 9 7 9 8 5 4 5 6 8 9 9 7 8 7 6 5 4 3 3 2 1
35 31 30 30 28 27 28 25 22 18 14 15 15 14 11 6 7 7 6 7 8 8 6 9 7 5 3 3 3 4 5 5 5 5 5 6 5 5 5 5 5 5 3
36 34 32 32 31 31 31 29 26 22 17 15 15 14 13 9 7 7 5 6 7 7 6 7 7 3 7 7 5 2 2 2 3 2 2 2 3 3 3 1 1 3 4
38 38 35 32 34 33 34 31 29 24 20 16 13 13 14 11 8 7 5 5 7 7 4 6 7 6 7 8 8 5 2 2 3 6 4 3 2 2 3 4 3 2 2
42 40 37 34 36 34 34 33 30 27 23 21 19 16 13 13 11 9 7 7 8 6 6 5 6 8 9 8 10 8 4 3 3 6 7 5 6 2 2 3 5 3 4
46 42 39 37 37 35 33 33 31 30 29 27 24 21 17 13 13 11 10 7 8 7 7 6 5 7 10 9 10 10 8 4 4 4 9 7 7 4 2 1 2 3 4
48 46 43 40 39 38 37 36 34 32 30 28 27 25 23 19 15 13 12 10 8 10 9 8 7 9 9 10 12 9 8 7 7 5 2 5 7 8 6 4 2 2 2
48 49 48 45 42 41 39 38 39 36 33 30 30 31 28 26 22 18 15 14 11 10 11 9 9 9 11 12 13 10 9 10 11 10 7 6 5 5 7 7 7 6 5

GFSSE_850_spd_051.txt.gz
Wind_Speed
25 25 23 20 22 22 20 19 18 16 15 15 16 16 12 9 9 9 9 8 8 6 5 5 6 6 6 7 8 8 10 11 11 11 11 11 13 13 13 14 17 14 14
28 26 23 20 20 19 19 17 16 16 15 15 14 13 11 10 10 9 9 9 10 5 7 8 8 8 9 8 8 9 9 10 10 12 11 12 12 13 13 13 16 14 12
29 26 22 20 19 19 18 18 17 16 15 15 14 13 12 11 10 10 9 10 8 8 9 10 9 11 13 11 12 11 10 10 12 12 12 12 12 12 12 14 12 12 15
27 23 22 21 18 19 17 17 16 16 15 15 14 14 13 12 11 10 11 10 9 8 8 10 10 13 14 14 12 11 12 12 13 13 10 11 11 12 12 12 13 14 13
26 23 23 20 19 19 16 16 16 15 15 14 14 14 13 12 12 11 11 9 8 7 8 11 12 13 13 12 12 13 12 13 13 12 11 12 12 11 10 11 12 12 14
26 22 23 20 20 18 16 17 17 16 16 14 14 14 14 14 13 11 9 9 8 8 8 11 12 13 12 13 13 12 12 11 12 12 11 12 11 10 10 10 12 12 12
25 23 22 21 21 17 16 17 17 16 16 15 15 16 16 15 14 12 12 11 9 8 8 10 11 11 13 15 13 12 13 12 12 12 12 11 11 10 9 11 12 11 12
27 23 22 20 20 16 16 18 17 16 17 16 17 17 17 16 14 13 13 12 11 10 11 12 13 13 14 13 14 12 12 12 12 11 11 10 9 8 10 10 11 10 9
25 23 22 19 19 17 17 18 16 17 17 18 17 17 16 16 15 13 13 13 13 13 13 12 12 12 13 13 14 14 14 13 12 10 9 8 10 9 9 9 9 9 9
24 22 24 20 18 17 17 17 17 17 18 17 17 17 17 17 16 15 15 15 14 14 13 13 12 12 12 12 14 14 13 12 11 11 9 8 10 8 7 8 8 8 8
23 21 24 20 19 18 18 17 17 17 17 17 16 15 14 15 15 14 13 14 13 14 13 12 12 13 13 13 12 13 12 12 10 9 8 9 9 8 7 7 6 7 7
25 22 23 21 19 19 18 18 17 16 16 16 14 14 13 13 12 12 10 11 13 12 12 12 12 12 11 11 10 10 10 10 9 8 7 10 7 6 8 6 5 7 6
26 24 25 23 20 19 18 18 17 17 17 16 15 13 13 11 11 10 9 9 9 11 9 8 8 9 9 7 7 7 8 9 7 6 5 8 7 6 6 5 6 6 6
25 27 26 23 21 19 18 17 16 17 16 15 14 13 11 10 10 8 8 6 7 7 6 7 6 6 7 7 5 5 7 7 6 5 4 6 6 6 6 6 5 4 4
27 29 28 25 22 20 19 18 18 16 15 14 13 12 11 9 8 8 6 5 7 7 6 8 8 7 6 7 5 4 4 6 6 5 4 5 6 5 5 4 3 3 2
30 30 29 26 23 21 20 18 17 16 16 16 13 12 12 9 7 5 4 5 5 6 6 7 7 6 7 7 7 5 4 7 7 6 5 4 4 4 3 2 2 2 2
33 30 29 27 24 22 20 19 19 17 16 13 12 12 11 10 8 7 4 5 4 5 5 5 8 6 8 8 7 6 6 6 7 7 6 6 2 1 1 2 2 1 0
33 32 29 28 26 24 23 21 19 17 14 12 11 11 10 10 9 8 5 7 7 7 7 7 9 7 8 6 7 6 6 5 6 7 6 5 4 2 2 1 1 1 1
34 32 31 29 27 25 24 23 20 17 14 11 11 10 9 8 8 9 7 7 7 7 7 10 9 9 7 7 7 7 7 6 6 7 7 6 6 5 2 3 2 2 2
34 33 31 30 28 26 25 25 23 19 16 14 14 12 9 8 7 8 5 6 6 10 6 8 7 5 5 6 6 5 5 4 4 4 5 6 5 5 5 4 5 2 3
35 35 34 33 30 29 28 28 26 23 17 15 14 12 10 7 8 8 6 8 8 8 8 8 7 4 6 8 7 3 3 2 2 1 1 3 3 4 3 2 2 2 3
37 37 35 35 33 31 31 30 29 24 20 17 15 13 12 9 7 8 6 6 7 6 6 7 6 5 6 7 6 3 2 1 2 4 2 1 2 2 3 4 2 2 3
37 40 38 36 35 34 32 32 29 25 21 19 16 14 13 12 9 7 6 5 7 5 6 5 7 8 7 7 8 5 2 3 2 4 5 3 4 2 2 2 3 2 4
38 42 40 37 35 35 34 36 32 30 27 23 19 15 12 11 11 9 8 6 6 6 7 5 4 7 10 8 7 10 8 5 2 1 5 6 5 3 2 2 2 1 1
35 42 41 40 37 35 37 36 35 31 28 25 21 18 17 14 12 11 11 9 6 7 7 5 5 7 8 8 9 9 7 7 4 2 1 2 3 4 6 4 4 3 3
34 40 42 41 39 36 38 37 36 33 29 26 25 23 21 20 18 15 13 12 10 8 9 7 7 7 9 9 11 10 7 5 6 7 5 5 5 4 5 5 6 7 7

GFSSE_850_spd_054.txt.gz
Wind_Speed
19 21 21 22 24 21 17 17 15 13 12 13 14 12 8 7 7 7 7 7 8 7 5 5 6 6 5 7 8 8 10 10 11 12 12 13 14 14 15 17 16 13 14
23 21 21 21 21 18 16 15 13 12 12 13 14 11 7 7 8 7 8 9 9 8 9 9 7 9 8 8 9 10 10 10 11 12 13 13 12 13 14 15 13 14 15
23 20 21 19 18 16 15 14 13 12 12 12 11 10 8 8 7 8 10 9 9 10 11 10 11 11 11 11 9 9 10 10 12 13 16 11 11 12 13 12 12 15 14
23 19 19 19 18 17 15 14 13 13 13 12 11 10 9 9 9 9 8 8 9 9 9 9 12 12 11 11 10 10 11 11 14 14 11 13 11 12 12 13 14 14 14
23 19 20 19 18 18 16 15 14 14 13 12 12 11 10 11 9 8 7 6 6 8 10 12 13 14 13 13 12 12 13 13 15 11 10 13 13 11 12 14 12 14 14
24 20 21 21 17 17 16 15 14 14 14 14 13 12 11 12 10 8 8 8 7 8 10 12 13 13 14 13 13 13 13 14 14 12 11 11 11 11 11 12 12 12 12
24 20 19 20 16 17 16 15 14 14 14 14 13 13 13 12 11 11 10 9 8 9 11 11 11 13 14 13 12 13 13 16 10 11 10 11 11 11 11 12 12 13 12
23 21 19 19 16 15 16 15 14 14 15 16 15 15 14 13 12 12 11 10 11 12 13 13 13 14 14 13 14 13 13 17 11 10 10 9 11 9 11 11 11 10 11
23 20 18 16 16 15 16 15 14 16 18 17 15 14 14 13 13 12 13 13 14 14 13 13 13 12 13 13 13 13 13 18 10 10 8 8 10 9 10 10 9 10 10
22 20 19 16 13 13 15 14 15 17 17 16 14 14 15 14 16 14 14 15 16 14 14 13 12 12 13 15 16 13 15 17 9 10 8 9 9 9 9 9 9 8 9
23 20 18 17 15 15 13 15 15 17 16 14 14 15 14 10 11 12 13 15 16 15 14 14 13 13 13 15 15 14 16 8 8 9 6 11 9 8 8 8 7 7 7
24 22 19 18 15 15 13 14 13 12 12 10 10 11 10 11 11 9 11 13 14 14 14 13 13 16 12 8 10 13 7 8 8 9 6 11 9 8 7 6 6 7 6
25 22 21 18 16 15 14 13 12 12 12 11 12 11 11 10 8 8 6 7 6 11 6 8 10 7 7 7 7 6 6 8 8 7 5 8 8 7 6 5 6 7 6
26 23 21 18 17 16 14 14 13 12 12 10 10 12 10 8 8 7 5 5 8 7 7 8 6 7 6 6 6 6 7 6 6 5 3 6 6 6 6 5 5 4 5
26 24 21 19 18 16 16 14 13 12 11 10 11 11 8 8 8 7 5 6 5 6 6 8 7 6 5 5 5 5 5 7 6 6 2 5 5 5 5 4 3 3 3
25 24 22 19 18 17 16 16 14 12 12 10 9 9 10 8 8 6 6 6 5 5 7 7 7 6 7 5 5 6 6 6 7 6 4 1 4 4 4 3 3 2 2
25 24 23 21 19 17 16 15 13 11 11 10 10 12 11 9 9 7 3 7 5 5 7 6 6 7 6 5 5 6 5 7 6 5 6 2 2 4 3 3 2 1 1
24 25 23 21 20 18 15 15 13 13 11 9 9 8 11 9 9 7 8 5 6 5 5 7 7 7 6 5 6 6 5 6 7 5 4 3 3 4 6 4 1 1 1
25 24 24 23 21 20 18 15 14 13 12 10 10 9 9 10 7 6 5 8 9 6 7 8 8 6 6 5 7 6 6 5 6 4 4 4 1 2 1 5 3 3 3
26 24 23 23 21 22 19 19 14 14 12 11 10 9 9 8 6 7 6 8 9 7 7 8 8 7 7 7 7 6 5 4 4 3 4 4 2 3 2 1 4 5 4
27 25 25 24 23 25 23 21 18 16 13 11 10 11 8 7 6 6 5 6 7 8 7 7 6 5 7 7 6 5 2 2 1 1 2 2 2 3 2 1 2 0 7
30 28 27 26 25 29 24 21 18 16 13 11 11 12 10 8 8 7 7 6 8 7 8 9 8 6 6 8 3 4 4 3 1 2 1 0 0 1 2 2 0 1 1
33 31 30 30 29 31 24 23 20 16 14 13 12 12 12 11 8 8 7 8 8 8 5 6 7 8 6 7 7 3 2 1 1 1 3 1 2 1 1 1 0 1 0
35 31 31 31 34 34 33 25 26 22 18 16 14 12 12 12 11 9 7 6 6 7 9 5 6 8 9 7 6 7 4 2 3 3 1 3 3 3 4 2 3 3 3
35 35 33 32 35 35 37 29 27 25 20 16 16 15 13 12 12 11 9 7 6 5 7 8 6 9 8 7 7 6 4 2 2 3 3 2 2 4 5 5 5 4 5
35 35 34 35 40 39 39 38 33 28 24 20 20 17 15 13 13 13 11 9 8 6 6 7 6 7 9 9 8 8 5 3 2 3 2 1 1 2 3 5 6 6 6

GFSSE_850_spd_057.txt.gz
Wind_Speed
17 15 18 18 19 17 13 13 12 11 10 10 9 8 7 7 8 8 8 8 8 7 7 7 6 6 7 8 9 9 10 12 12 12 14 16 17 16 18 21 16 14 15
20 17 21 20 19 14 14 13 12 10 9 10 9 7 6 7 8 8 9 9 10 11 10 9 9 7 8 9 9 10 10 11 13 14 13 14 15 12 15 16 10 15 14
22 19 20 19 16 14 13 11 10 9 10 11 10 6 6 7 7 8 9 10 12 10 12 12 12 13 10 9 10 11 10 12 14 14 16 12 13 13 12 12 14 14 15
21 19 17 18 15 14 12 11 10 10 11 10 8 7 8 8 7 7 8 9 12 11 12 14 12 12 12 11 10 10 11 14 13 13 16 16 11 14 13 14 15 15 14
21 19 18 18 16 14 13 11 11 10 10 10 9 9 9 9 8 7 7 8 9 12 13 15 14 13 13 12 12 13 15 14 12 12 11 13 10 14 14 14 15 16 13
21 19 20 18 16 15 13 13 12 11 11 10 10 10 10 9 8 8 8 9 9 12 13 13 14 14 13 14 14 16 18 16 17 13 12 16 10 12 13 11 11 13 13
22 18 20 18 17 15 13 12 12 12 13 12 11 11 10 9 9 9 10 8 10 11 12 12 13 14 13 13 14 17 17 17 15 12 13 9 12 12 13 13 14 13 14
19 18 18 17 16 15 14 13 13 13 14 14 14 12 11 11 10 10 10 10 13 13 14 14 14 12 12 13 14 17 21 15 12 9 13 9 12 12 12 13 12 12 13
20 18 16 15 17 15 14 13 13 15 15 15 14 12 12 11 11 11 12 13 15 14 14 13 13 13 14 15 15 18 19 19 12 10 13 9 12 11 11 12 12 12 12
22 18 17 14 12 14 13 13 14 16 15 15 13 13 13 15 15 15 13 14 14 14 13 14 13 14 15 16 18 22 21 17 10 10 8 9 11 10 10 11 10 11 10
20 19 17 15 13 15 10 14 15 15 14 14 15 17 18 10 11 11 11 15 15 13 12 13 15 14 16 20 20 19 14 9 10 9 8 11 11 10 10 9 9 9 9
22 20 18 17 15 14 12 14 11 11 11 11 11 9 12 8 11 9 14 15 15 14 13 15 15 13 12 10 10 17 13 10 9 10 10 11 8 9 8 9 9 8 8
23 21 19 17 16 15 15 13 11 14 11 8 8 6 11 7 8 8 5 9 9 11 10 10 6 7 11 9 8 10 8 8 9 9 8 10 9 8 8 9 9 8 8
23 21 20 18 17 15 11 15 13 10 11 8 8 8 9 8 3 5 13 4 9 5 6 6 9 12 3 14 11 8 7 6 8 5 7 6 6 6 7 7 7 6 6
24 23 20 19 18 12 17 13 12 10 10 10 8 9 5 10 7 4 4 8 8 8 5 7 4 7 4 5 9 7 5 8 8 7 4 5 6 5 6 4 4 4 4
24 23 21 19 18 16 15 12 13 12 10 9 9 8 8 6 8 8 2 5 9 4 7 7 6 4 4 5 3 10 11 8 8 7 6 6 6 5 4 3 3 4 3
24 23 22 20 18 17 12 14 14 16 10 11 9 10 8 7 5 5 5 6 5 2 9 4 6 6 5 5 5 5 6 8 7 6 5 3 6 6 5 3 1 1 2
24 24 21 19 19 17 15 15 11 13 11 10 8 8 7 6 8 2 6 5 5 5 4 9 5 3 4 6 7 6 9 8 6 5 5 4 5 1 7 8 3 2 1
25 24 23 21 19 19 16 14 12 13 12 10 10 11 8 6 7 7 1 6 11 3 8 5 6 5 4 6 4 7 5 5 5 5 3 3 2 1 5 5 7 6 3
25 24 24 22 20 19 16 15 14 12 11 11 11 8 7 5 6 7 8 6 8 7 7 7 5 4 7 4 7 8 5 4 3 3 4 4 3 3 1 5 4 7 9
27 25 25 24 23 21 18 18 16 14 13 11 10 8 8 7 6 9 5 7 8 3 10 7 7 7 5 3 5 6 2 3 2 2 3 4 4 3 0 1 1 4 7
30 28 28 27 25 25 20 19 16 15 12 11 10 9 9 9 8 6 7 6 8 4 5 7 7 8 4 5 7 6 5 5 4 2 2 2 3 1 0 2 1 4 3
32 31 31 31 29 27 21 20 17 16 13 13 13 10 10 10 9 9 7 9 9 9 6 8 7 6 4 6 8 3 3 5 7 1 2 2 1 2 2 2 2 3 2
35 32 31 32 32 29 29 22 22 19 18 15 14 11 12 12 10 8 8 7 8 6 6 6 6 8 5 6 3 3 2 3 3 1 2 3 3 2 4 3 3 4 4
35 34 32 33 34 30 33 26 25 22 18 15 14 15 13 13 12 10 9 9 7 8 8 7 8 10 8 5 6 6 3 2 3 5 5 5 1 2 3 1 3 3 6
36 34 34 36 36 36 34 34 29 26 22 18 17 15 14 12 12 13 11 11 9 7 7 7 6 11 9 9 5 7 7 6 6 3 1 3 3 0 2 3 4 5 6

GFSSE_850_spd_060.txt.gz
Wind_Speed
18 21 19 16 14 14 12 12 11 9 9 9 10 11 11 11 12 12 13 12 11 11 9 8 9 9 10 11 12 13 14 14 15 16 17 18 19 19 20 20 13 17 17
18 17 18 16 15 13 12 12 10 9 10 9 9 9 10 10 11 12 14 13 13 11 9 10 9 9 10 10 12 14 14 15 17 19 16 15 16 16 16 12 14 17 16
19 20 19 17 14 12 12 11 9 10 10 9 8 8 9 10 11 12 14 13 13 12 13 12 13 11 11 13 14 15 15 16 19 20 16 13 15 13 13 13 15 16 16
19 19 20 17 14 13 10 9 8 9 10 10 8 9 8 9 10 11 12 13 12 13 13 13 14 12 12 12 14 15 16 17 18 20 19 10 14 15 14 15 17 15 16
21 18 18 15 14 13 11 11 10 10 10 10 10 9 10 10 10 10 11 12 13 14 14 14 14 13 12 14 15 16 16 15 18 16 14 8 13 15 16 16 16 15 15
22 18 18 16 15 14 13 12 12 11 11 11 11 10 10 11 10 11 11 11 12 13 14 14 13 14 15 17 18 19 18 18 18 15 11 11 12 14 14 12 13 13 15
22 18 19 17 15 14 14 13 12 12 12 12 12 11 11 11 11 11 9 11 13 13 14 14 14 14 16 18 21 21 21 17 15 15 7 9 13 13 14 14 14 15 14
22 20 20 18 15 14 13 13 13 13 13 13 13 13 12 12 11 10 9 13 14 15 16 16 15 15 16 18 21 20 18 18 12 12 5 12 15 13 13 13 14 13 13
24 19 17 17 15 14 14 14 14 15 15 15 14 13 13 13 12 11 14 16 16 15 15 15 16 17 18 19 20 18 20 18 16 12 11 13 13 13 13 14 13 13 13
23 18 16 14 14 14 14 15 16 16 16 15 15 16 18 17 16 16 14 15 15 16 16 16 17 19 21 24 24 22 17 17 13 9 5 12 12 12 12 12 12 11 11
22 20 17 16 17 11 14 16 16 16 16 18 17 18 16 13 11 13 13 14 14 15 16 16 18 20 24 23 20 13 11 14 13 4 8 12 11 12 10 10 10 10 9
22 22 19 18 15 12 13 16 16 16 18 13 17 13 15 14 7 13 15 15 16 16 15 13 12 11 15 14 17 16 15 19 3 6 7 11 11 10 9 9 9 8 8
22 24 24 21 15 19 8 14 12 11 11 10 4 12 9 11 7 7 10 16 16 16 12 8 8 8 4 4 14 13 12 14 2 9 7 10 9 8 9 9 9 7 7
23 25 24 19 17 20 9 15 12 10 17 5 6 10 12 9 4 3 9 8 12 12 7 2 11 3 10 13 12 10 8 13 3 8 6 6 7 8 8 7 7 6 5
23 25 23 20 16 16 18 15 10 12 16 13 7 9 8 5 3 1 3 13 9 9 5 11 10 7 7 6 7 10 10 12 4 8 7 7 6 6 5 5 4 4 3
25 23 23 20 16 16 18 8 15 8 15 4 1 6 4 2 7 7 2 1 14 12 10 10 4 7 10 8 4 8 12 5 9 6 10 9 8 6 4 3 2 2 2
26 21 24 18 20 15 18 12 12 14 9 6 10 8 10 2 2 4 5 5 3 8 7 9 6 5 7 7 10 12 10 9 3 4 6 6 8 10 9 6 4 2 1
25 25 22 19 18 18 18 16 16 18 8 11 6 10 10 7 5 3 5 6 10 6 3 9 6 5 8 6 6 7 9 6 3 4 8 6 5 6 7 10 6 5 4
26 27 22 22 20 19 15 19 17 11 13 11 9 4 4 5 9 2 7 9 8 5 7 6 7 6 6 6 11 9 10 5 6 5 3 2 2 5 5 7 8 9 9
27 28 21 22 22 20 17 16 13 11 11 9 11 11 7 4 8 7 6 7 6 7 7 8 6 9 5 6 10 8 8 2 4 2 5 5 7 3 6 8 2 7 9
30 28 26 24 25 24 20 19 17 15 13 13 16 10 6 3 4 8 8 9 7 9 9 7 5 7 6 9 7 6 3 7 5 4 3 3 5 3 3 5 5 6 7
32 30 31 28 26 25 19 20 17 12 13 17 14 8 5 5 3 6 6 7 3 7 9 4 10 9 5 6 3 6 4 4 9 5 5 1 4 2 3 3 6 5 6
35 33 34 32 28 26 23 23 19 18 15 10 18 13 8 9 5 9 6 9 10 6 5 9 11 3 3 3 2 5 4 3 6 3 2 6 2 4 4 7 4 7 4
37 36 33 36 30 30 27 24 22 19 16 18 17 11 9 10 7 6 5 10 10 10 8 4 7 7 8 6 3 1 4 1 1 3 5 7 6 4 5 5 7 9 9
38 39 35 35 35 31 33 26 26 22 21 17 15 16 18 12 11 10 8 7 9 8 6 9 8 8 5 4 5 4 1 1 1 3 1 9 3 2 5 3 2 9 10
38 39 37 37 39 37 35 31 29 29 22 16 16 18 18 11 13 14 12 8 7 10 10 9 8 11 11 9 4 11 4 6 5 6 3 6 6 3 2 3 6 5 8

GFSSE_850_spd_063.txt.gz
Wind_Speed
24 22 20 18 15 14 13 13 12 13 14 15 14 14 15 15 16 15 14 14 13 12 12 12 12 13 14 14 14 15 15 17 18 18 18 20 19 20 19 16 21 20 19
26 23 19 17 15 14 13 13 12 12 13 13 13 13 14 15 16 16 16 15 13 12 12 13 11 13 14 15 16 16 18 20 20 19 16 18 18 17 14 17 19 19 20
27 22 19 18 15 14 14 13 12 12 11 11 11 12 12 14 14 16 15 15 15 15 15 14 13 14 16 16 17 17 19 21 19 19 15 16 16 16 15 17 17 17 19
25 22 20 17 15 15 13 12 12 12 12 10 10 11 12 13 13 14 15 15 16 14 15 15 13 14 17 17 18 18 19 20 19 15 14 15 17 17 17 17 18 18 18
26 23 21 18 15 14 13 12 12 12 11 11 11 11 12 13 13 13 15 15 16 15 15 14 15 15 16 17 19 18 20 21 19 12 14 15 18 17 16 17 17 15 16
23 23 19 17 16 14 14 13 13 13 13 12 12 12 12 13 14 13 14 14 15 15 15 15 15 17 18 20 19 21 21 19 14 12 12 14 16 15 14 14 15 15 15
20 21 20 18 16 15 15 15 14 14 14 13 13 12 12 14 13 12 13 15 15 15 16 15 17 19 21 22 21 21 20 18 12 11 9 11 14 14 15 14 14 14 14
23 23 21 19 18 17 16 16 15 15 15 14 13 13 14 13 11 12 15 15 17 18 17 17 17 20 22 22 23 20 21 13 10 10 10 13 14 14 13 14 13 13 13
21 23 23 20 18 17 17 16 16 17 17 16 15 15 16 14 13 15 17 17 17 17 18 20 20 21 21 21 20 20 20 14 15 14 10 13 13 13 13 13 13 12 12
26 22 21 19 18 17 18 17 18 19 19 19 20 20 19 18 16 16 16 17 17 19 19 20 21 22 22 19 17 16 15 13 6 7 10 11 12 11 12 11 11 10 10
21 21 20 20 19 18 18 19 19 19 21 23 21 20 20 20 16 16 15 16 17 18 19 22 24 25 23 20 18 12 10 12 6 6 8 10 11 10 10 10 9 9 9
22 19 18 19 16 16 20 20 20 23 23 20 18 17 17 16 15 15 16 16 16 18 19 22 23 19 19 17 14 10 16 7 4 6 5 8 9 8 9 9 8 8 8
23 24 19 17 19 18 19 22 22 18 20 13 13 17 17 13 10 15 17 17 17 15 15 12 14 11 22 15 11 14 20 10 6 7 6 6 7 8 8 7 8 7 7
32 32 21 19 19 16 20 17 14 17 14 12 12 12 13 11 5 10 12 14 13 10 8 12 12 19 14 14 13 11 19 5 9 10 7 6 6 7 6 6 6 5 5
32 32 25 23 19 16 15 14 13 19 18 14 9 10 8 9 10 9 9 8 11 9 10 8 10 12 11 12 15 17 17 8 10 11 8 7 7 6 4 4 4 3 2
34 32 28 26 24 19 16 16 12 14 11 17 5 9 10 6 8 10 8 8 11 13 11 13 8 9 11 9 9 8 9 9 6 7 9 10 9 9 7 5 4 3 2
37 31 26 27 25 23 18 15 12 14 18 13 7 5 8 6 6 4 9 13 11 8 7 9 4 9 11 11 13 11 6 6 4 7 7 7 8 11 11 7 4 4 4
33 29 26 25 23 22 23 19 17 19 17 11 11 6 6 10 9 8 6 8 11 11 8 11 10 9 9 8 8 9 8 5 5 5 8 7 8 7 7 10 9 8 6
29 28 23 21 27 23 23 19 19 21 15 10 8 6 10 6 9 10 15 15 14 9 12 10 8 8 13 6 12 12 7 6 6 6 6 4 7 8 7 3 7 9 10
31 27 21 21 19 26 24 21 20 16 14 15 10 5 2 8 8 11 13 13 8 13 11 12 7 6 6 10 6 9 5 2 2 2 4 6 7 5 7 9 5 8 9
31 30 26 26 23 28 24 25 26 18 14 13 12 6 4 8 8 7 9 12 11 11 11 10 10 7 11 10 10 8 4 2 3 4 3 2 2 3 6 6 6 6 7
35 32 29 30 27 25 25 28 23 18 17 13 14 9 8 7 8 10 11 14 5 11 13 11 10 10 10 7 8 2 1 5 5 4 3 1 1 3 5 10 11 9 8
39 36 32 33 30 25 24 28 22 16 17 15 17 12 7 7 7 11 11 12 11 9 12 10 11 10 9 7 4 2 4 2 7 6 3 4 6 4 6 9 10 10 13
42 38 33 35 31 28 25 31 26 23 21 20 16 13 11 9 8 11 9 10 10 8 7 8 18 10 3 6 4 3 2 5 4 6 7 7 4 4 7 5 10 8 8
41 41 36 35 35 31 28 33 30 25 19 20 15 15 13 10 7 9 9 11 11 10 10 9 14 10 10 8 7 6 3 5 3 2 1 9 5 6 3 4 5 7 7
41 42 39 36 41 36 32 34 33 30 26 22 19 20 18 15 12 8 8 6 9 13 11 12 11 12 12 12 6 6 9 5 2 6 9 9 8 2 1 2 6 7 8

GFSSE_850_spd_066.txt.gz
Wind_Speed
26 24 21 19 18 17 17 18 18 18 17 17 17 17 16 15 12 11 10 11 11 12 12 12 13 13 14 14 15 16 17 17 17 19 19 19 19 18 18 18 17 17 19
29 24 21 18 17 16 16 16 16 16 15 14 16 15 15 15 15 15 13 12 11 12 11 13 15 15 15 16 17 18 18 18 15 15 18 17 16 16 16 17 18 18 18
28 24 20 18 17 16 15 15 16 15 13 14 15 15 15 14 15 13 14 13 13 12 12 12 14 15 17 17 18 19 20 18 17 14 14 16 16 16 17 16 17 16 18
28 24 21 19 17 16 15 15 15 14 13 14 14 14 14 14 14 14 16 13 14 15 14 14 16 16 17 18 19 17 18 17 15 14 13 16 17 16 16 16 17 16 17
27 23 21 18 18 16 15 14 14 14 13 14 14 14 13 13 13 15 16 15 15 15 14 15 16 18 19 19 18 18 17 17 14 12 14 16 17 17 16 16 14 14 14
27 24 21 19 17 15 15 15 14 14 13 13 14 14 12 13 14 13 14 15 14 15 15 15 17 19 20 18 19 19 16 15 12 12 12 15 15 13 13 14 14 13 14
27 24 22 18 17 16 16 15 15 14 15 14 13 13 14 12 12 14 14 14 15 15 16 17 20 21 20 18 16 17 16 13 10 10 11 11 13 12 13 13 12 12 13
26 23 21 19 18 17 17 16 16 16 15 15 14 14 13 12 12 15 15 16 16 16 17 19 22 23 22 18 17 17 14 9 10 10 11 11 13 12 13 11 11 12 10
22 22 21 20 19 18 17 18 17 18 17 16 16 15 13 14 16 17 18 17 17 17 18 20 23 23 22 18 17 15 14 12 11 9 8 9 11 11 11 11 11 10 10
21 21 21 20 19 19 19 19 20 19 20 20 19 18 17 17 18 18 17 17 17 18 19 21 22 21 19 18 16 13 12 10 8 7 7 8 10 10 10 9 9 9 9
25 21 20 20 20 19 21 22 22 22 24 23 23 20 20 18 18 18 19 18 19 19 19 21 21 19 17 15 14 10 8 7 4 6 6 7 8 9 8 8 7 7 7
25 22 20 20 20 21 23 23 23 25 23 21 22 21 19 18 18 19 20 20 21 22 22 21 20 16 16 11 7 10 10 4 3 5 6 6 7 7 7 6 6 6 7
25 22 20 19 19 22 24 25 25 24 21 19 17 18 18 17 16 18 21 21 20 21 19 17 15 13 12 9 6 10 9 4 5 5 5 5 5 5 6 6 6 6 5
27 25 21 19 21 22 24 25 24 19 19 18 15 15 14 13 13 15 19 21 17 15 14 13 17 16 12 8 7 6 7 7 8 6 6 5 5 5 5 5 5 4 4
28 26 21 24 22 25 23 21 20 18 18 17 13 12 12 9 14 12 14 14 12 14 15 15 14 15 10 12 8 10 8 8 11 9 7 7 6 6 5 4 4 4 3
28 27 25 25 20 23 18 19 20 18 16 13 11 8 9 11 11 13 11 13 14 13 13 12 10 13 11 8 11 11 9 8 9 7 11 10 10 9 6 5 5 5 4
31 30 26 23 21 20 18 17 18 15 12 13 11 8 9 15 12 11 12 20 19 15 12 6 10 10 12 12 8 7 8 7 7 6 8 8 10 9 11 6 6 5 4
36 32 26 24 24 19 17 16 14 17 13 15 12 7 6 8 8 12 14 13 13 12 12 7 9 11 13 12 7 8 8 6 6 6 6 7 7 7 7 9 9 7 4
34 32 30 27 25 21 18 17 17 16 17 16 11 6 9 7 8 10 11 13 13 11 11 11 8 8 9 10 9 6 6 7 8 6 7 11 7 6 9 6 8 8 8
36 33 28 25 25 27 23 22 18 16 15 14 10 7 8 10 9 11 18 14 12 13 14 13 10 10 8 12 10 6 3 1 1 2 4 4 4 5 9 7 5 5 7
37 34 29 24 25 31 29 24 21 18 15 18 12 8 8 12 12 13 15 13 17 11 13 12 10 7 10 13 8 8 6 5 5 6 4 2 2 3 7 8 9 5 6
38 34 29 23 21 28 28 25 23 22 19 15 14 10 8 10 13 13 14 15 11 13 13 11 13 12 13 10 9 6 4 5 7 8 8 6 1 1 6 7 9 10 9
39 35 31 27 23 29 28 29 25 22 18 17 16 13 11 11 13 12 13 14 13 14 14 13 14 12 13 11 6 3 4 3 3 4 4 3 4 3 6 7 7 8 11
41 37 33 30 25 27 27 31 32 26 24 20 17 15 12 13 13 14 15 16 14 11 15 15 14 13 11 11 8 4 2 3 2 3 4 4 5 4 5 5 6 7 7
44 41 36 32 28 28 26 32 33 27 24 19 19 17 12 13 12 15 12 14 13 13 12 15 16 13 11 10 8 8 4 3 2 3 3 6 9 6 3 4 5 8 7
47 43 38 35 31 30 30 29 34 29 26 22 22 19 16 13 13 14 14 13 11 13 13 12 17 15 12 11 10 8 5 3 1 5 5 5 9 5 3 3 4 6 7

GFSSE_850_spd_069.txt.gz
Wind_Speed
27 24 23 21 20 19 17 17 15 14 14 14 13 12 10 9 9 9 8 9 9 10 10 10 10 11 12 13 13 15 15 15 15 17 16 17 17 17 17 15 17 19 16
30 24 21 20 19 18 18 17 15 14 14 14 13 12 10 9 9 9 9 9 11 10 10 11 11 12 13 13 15 16 15 15 14 15 14 15 17 14 16 18 15 17 18
28 24 21 19 18 18 17 15 15 13 12 14 13 13 12 12 11 10 9 9 11 11 11 13 13 14 14 15 16 16 15 15 13 12 13 16 16 15 16 15 16 17 16
27 24 20 18 17 16 15 15 14 12 12 12 12 12 11 12 12 13 12 11 13 12 13 13 15 15 15 16 16 16 16 14 12 11 12 16 14 16 16 14 16 15 14
26 22 19 18 17 16 15 15 13 12 12 12 11 11 11 11 11 13 11 11 12 12 13 14 15 16 16 15 13 13 14 13 12 11 13 14 16 15 14 13 13 12 14
25 21 19 17 16 15 14 13 13 13 12 12 12 11 11 11 11 12 11 12 12 13 13 16 17 17 15 15 15 14 14 12 11 11 12 13 13 12 11 11 11 12 13
24 21 18 17 15 15 15 14 13 13 12 12 12 11 11 11 11 12 11 12 13 13 13 17 18 17 17 16 15 14 12 10 8 10 10 10 11 12 12 9 11 13 12
23 21 18 16 14 15 15 15 14 14 13 12 11 11 11 11 12 13 12 13 13 14 16 19 19 16 16 15 14 13 11 9 11 10 9 10 11 11 10 9 11 10 11
23 21 19 18 16 15 15 15 15 14 13 13 13 11 12 13 15 15 15 14 15 16 19 20 19 18 16 17 15 14 12 9 8 10 9 7 9 9 9 10 10 9 9
21 19 19 17 16 16 16 16 16 15 14 14 12 12 13 16 17 16 15 15 16 18 20 21 19 17 14 14 14 10 9 9 7 8 7 7 8 8 9 8 8 7 7
21 19 18 18 17 17 18 18 17 17 18 17 16 15 15 16 16 16 17 16 16 17 19 19 17 14 13 11 9 9 8 7 6 6 6 6 7 7 8 6 6 7 7
24 21 19 18 18 19 20 19 20 20 21 19 18 17 16 15 17 17 17 17 18 18 17 16 14 12 11 7 5 7 8 7 5 5 6 7 6 6 6 5 6 6 6
24 21 19 19 20 21 21 22 23 22 21 19 18 17 15 15 17 18 19 20 20 19 16 13 11 9 5 2 5 9 8 7 4 5 6 7 6 5 5 5 6 5 5
24 21 20 19 21 22 22 24 21 19 18 17 18 16 14 14 17 18 19 20 16 15 14 13 11 9 4 2 5 7 9 10 9 6 6 7 7 6 5 6 5 5 4
26 24 21 20 23 23 23 24 20 16 16 16 14 14 11 11 15 16 16 15 12 13 16 15 15 11 6 4 4 8 9 11 11 9 8 8 7 6 6 5 4 4 5
26 23 23 22 23 24 22 21 16 16 14 12 11 10 8 9 11 14 12 10 13 13 15 13 10 11 9 7 8 9 8 8 9 11 11 11 10 7 6 5 5 5 4
26 25 26 23 25 23 20 19 17 16 12 10 9 9 8 9 9 10 13 13 15 14 13 10 10 7 7 7 9 7 6 7 8 9 9 8 8 8 8 6 5 4 4
27 25 27 24 24 21 18 18 16 13 10 10 10 8 7 11 9 10 18 15 12 11 9 9 8 6 7 8 8 6 5 7 8 6 7 6 7 5 6 7 8 7 4
27 25 26 25 23 20 19 16 14 14 11 12 12 8 6 8 11 13 15 14 11 10 7 8 9 6 3 5 5 4 4 4 6 6 7 5 6 8 6 6 7 8 8
31 29 26 23 24 21 18 16 14 17 15 15 13 10 10 7 8 14 12 13 13 11 10 6 5 8 6 6 5 3 1 0 0 3 3 2 3 5 7 6 5 6 7
35 36 28 24 24 24 23 21 19 16 17 16 14 10 10 10 7 10 16 12 10 11 10 9 7 9 10 9 6 4 4 5 6 3 3 3 1 3 7 9 10 6 6
38 39 31 26 27 26 26 23 22 19 16 14 12 10 8 10 10 10 13 11 14 11 13 11 8 6 10 11 6 6 5 5 7 4 4 3 1 2 4 6 8 9 7
43 42 34 29 27 27 29 27 21 19 17 17 15 13 9 11 12 13 14 14 13 12 12 10 10 8 10 10 6 5 3 3 3 2 2 2 2 1 3 6 7 7 9
45 42 36 31 28 22 29 31 28 25 24 20 17 12 9 10 12 12 13 15 12 15 13 13 13 10 10 8 8 3 2 4 3 3 4 3 3 2 2 4 6 6 6
46 45 40 32 29 24 23 31 30 26 25 20 16 15 12 13 13 13 11 15 13 13 12 15 15 14 12 12 11 8 4 2 4 6 5 5 5 3 2 4 5 8 6
50 48 43 36 32 28 24 30 29 32 29 24 20 19 18 14 15 16 14 14 15 14 12 14 17 16 14 13 11 9 5 1 3 5 7 4 4 4 3 1 5 6 6

GFSSE_850_spd_075.txt.gz
Wind_Speed
22 21 20 18 18 17 16 15 13 12 11 10 9 7 6 6 5 6 7 7 7 8 8 9 10 12 12 12 13 14 15 16 17 19 17 18 18 19 19 20 22 18 19
25 23 20 17 17 16 15 13 12 12 10 9 8 6 6 7 7 7 7 7 7 8 9 8 9 11 13 13 13 14 15 15 16 15 16 16 17 17 18 19 17 18 18
25 23 20 17 16 15 14 12 11 10 9 9 9 9 9 9 8 7 8 8 8 8 9 9 12 12 11 13 13 14 13 12 13 16 17 15 16 17 18 18 17 16 16
25 22 20 17 15 14 13 11 9 9 8 8 9 9 9 10 10 8 9 8 9 10 9 10 11 11 12 13 14 12 12 13 13 15 16 15 15 15 16 16 17 17 17
24 21 17 15 14 12 11 10 8 9 9 8 9 9 10 10 11 11 10 10 9 11 10 10 11 11 12 14 13 13 14 14 15 17 17 15 14 14 13 16 14 15 14
22 19 16 14 12 11 10 9 7 8 8 8 8 9 10 10 9 10 10 11 10 11 11 11 12 11 10 12 13 12 14 15 14 14 14 14 14 13 13 13 14 13 15
22 18 16 14 12 11 10 9 8 8 8 8 8 9 10 9 9 9 10 10 11 11 11 13 12 13 14 13 12 13 13 13 12 13 14 13 13 12 14 13 13 13 13
20 18 16 14 12 10 9 9 8 8 8 8 8 8 9 9 9 10 10 9 10 13 13 13 13 13 13 14 13 13 13 12 13 13 13 12 12 11 12 13 12 11 12
19 17 15 13 11 10 9 9 9 8 8 8 8 8 10 11 12 11 12 9 12 13 14 14 13 14 14 14 15 14 12 13 12 12 11 10 11 10 10 11 11 10 10
18 16 14 12 12 11 11 9 9 8 8 9 9 10 11 11 11 12 11 10 13 15 14 13 14 14 13 14 14 14 12 12 10 11 11 10 10 9 9 9 10 10 9
18 16 15 13 13 12 12 11 10 8 9 9 11 12 12 11 12 12 11 12 14 15 14 13 13 13 12 12 13 14 13 11 9 9 8 11 9 8 8 8 9 9 9
19 17 15 15 13 13 12 11 11 10 10 12 13 13 12 12 13 13 11 14 16 14 12 12 12 10 11 10 10 13 11 10 10 9 7 9 7 5 6 7 7 8 8
20 18 16 15 14 14 13 13 13 12 13 14 13 13 13 12 12 12 14 14 14 12 11 9 9 8 9 9 9 11 11 10 9 8 7 7 7 6 7 7 6 6 6
21 18 17 17 16 14 16 16 16 15 14 14 13 13 12 12 12 15 15 16 14 11 9 7 6 6 7 6 8 11 11 9 8 7 6 7 7 6 6 5 5 5 5
22 20 19 18 17 16 18 18 18 17 15 14 14 12 12 12 12 14 13 11 10 8 7 5 5 7 8 5 6 9 10 10 9 8 6 6 5 5 5 5 5 5 5
21 21 20 19 19 19 19 17 14 14 14 13 12 12 12 12 10 10 8 6 4 4 5 5 4 6 8 5 5 7 8 8 9 9 8 7 8 6 5 5 5 5 5
21 21 21 21 21 20 20 17 15 14 12 11 10 9 9 9 9 7 6 4 5 7 4 2 2 3 5 6 6 5 7 7 9 7 7 7 7 7 7 7 7 6 6
21 22 22 23 22 22 21 16 14 12 10 8 6 7 6 7 7 7 4 5 7 6 3 1 2 4 6 7 7 7 8 8 7 7 7 8 7 5 7 7 8 8 8
21 22 23 23 23 23 23 16 15 11 9 8 7 6 4 6 6 4 6 8 8 7 3 2 4 6 6 7 7 7 7 7 7 7 7 8 8 7 5 6 6 7 7
23 24 24 24 24 23 22 18 15 12 10 9 7 5 3 4 5 4 8 9 8 6 2 2 3 5 5 5 5 4 5 5 5 5 6 7 6 5 6 6 6 6 6
26 25 26 26 26 25 23 22 18 14 11 9 7 6 4 3 3 6 9 9 7 6 4 2 3 4 4 3 4 2 3 2 3 6 7 5 6 6 4 5 6 6 6
28 27 26 26 27 25 24 21 18 14 11 10 9 6 5 5 5 3 12 8 9 7 7 4 2 2 2 2 2 6 5 5 6 5 4 3 4 4 3 3 3 4 5
31 31 28 25 27 26 25 22 20 15 13 13 11 11 6 5 6 4 8 8 8 7 8 6 3 0 2 4 1 5 4 5 8 7 4 3 3 2 3 2 2 3 4
34 31 30 26 26 26 25 23 23 19 17 15 10 10 8 6 7 8 7 8 8 8 7 6 4 2 2 1 2 4 6 7 5 6 6 3 2 3 2 2 2 2 2
36 34 33 30 27 27 25 24 22 21 18 15 12 11 9 7 7 8 9 9 10 8 9 9 7 5 4 4 3 5 7 7 7 7 5 5 5 4 4 4 2 2 5
35 37 36 35 32 29 27 25 24 23 21 17 15 13 11 10 8 8 9 9 11 9 9 8 8 9 9 7 5 6 5 3 4 6 5 6 7 5 6 6 3 4 7

GFSSE_850_spd_078.txt.gz
Wind_Speed
16 18 19 18 17 17 15 14 12 11 10 8 7 7 6 7 7 7 8 9 9 10 11 12 13 14 15 15 17 17 18 18 18 19 20 19 20 22 23 22 19 17 19
21 18 19 18 17 16 14 13 12 11 10 9 8 8 8 7 8 8 8 9 9 9 10 12 15 15 16 16 16 16 18 17 18 22 20 19 18 19 19 18 17 17 16
21 19 18 17 16 15 14 13 12 11 10 10 11 10 9 10 8 9 10 10 10 10 12 15 14 13 15 16 16 15 16 16 20 21 21 16 17 17 17 16 16 16 17
21 18 16 17 15 13 13 11 11 10 10 11 11 11 10 10 9 9 9 10 11 11 11 13 12 14 16 15 15 15 16 16 19 19 17 16 15 16 17 17 16 15 15
21 18 17 16 14 13 12 11 9 9 9 9 10 11 10 11 12 11 9 10 12 12 12 13 13 15 15 16 16 15 17 18 20 17 12 15 13 15 15 15 14 14 15
19 16 16 16 13 11 10 9 8 8 8 9 9 11 11 11 10 11 11 12 12 12 13 14 12 13 13 13 14 15 17 21 16 14 15 14 14 13 13 14 13 15 13
18 15 14 14 11 10 9 8 8 9 9 10 10 11 11 11 11 11 11 12 12 13 15 15 15 16 14 12 13 15 16 20 13 15 12 12 15 15 13 13 14 13 13
17 15 12 13 11 10 8 8 9 9 9 10 10 10 11 12 11 11 11 11 13 15 15 16 16 16 14 14 14 14 15 18 13 12 13 11 14 13 13 12 10 11 13
16 14 12 10 11 10 9 9 9 9 9 10 10 11 12 13 13 13 12 13 15 16 16 16 17 16 17 16 14 14 14 20 12 11 11 10 13 12 12 11 10 11 12
15 13 13 10 10 8 7 9 9 9 9 10 11 13 12 14 15 16 12 14 17 16 16 17 17 16 17 18 15 14 17 18 10 12 9 10 11 10 9 10 11 10 11
14 12 11 10 10 10 10 9 9 9 10 11 12 16 17 11 12 13 12 17 17 16 16 15 16 15 15 14 16 17 17 9 10 10 6 12 10 9 8 10 8 9 9
15 12 11 11 10 10 9 9 10 7 11 11 11 13 12 12 13 12 16 18 17 16 15 14 14 17 13 9 10 14 8 10 9 9 6 8 8 8 8 8 8 7 8
16 13 12 11 12 11 9 9 9 9 9 10 12 12 13 11 11 11 13 11 12 14 10 10 10 9 9 9 9 7 8 9 9 7 6 8 7 7 7 7 6 7 6
16 14 13 11 12 10 10 10 10 11 10 10 10 11 12 11 11 12 12 11 11 9 9 9 6 7 7 8 8 8 8 8 8 7 5 7 7 6 6 5 5 5 6
16 15 13 13 13 11 13 12 11 11 10 10 9 10 10 11 12 11 12 10 9 9 6 8 8 7 7 6 8 8 7 8 8 7 4 7 6 6 5 5 5 4 4
16 16 14 13 12 12 12 14 13 12 11 10 10 9 12 9 11 8 8 6 6 7 6 6 7 7 6 5 7 7 8 7 7 8 5 6 9 7 6 6 5 5 5
15 16 15 15 14 14 13 12 11 10 10 9 8 10 9 8 9 8 4 5 5 6 7 6 6 6 6 5 6 6 6 7 6 6 5 4 5 8 8 7 6 6 6
16 17 16 15 15 15 13 12 10 10 8 7 7 6 7 7 6 6 3 3 4 5 6 5 5 6 7 7 6 6 6 6 6 6 6 5 3 3 7 7 7 7 8
16 16 16 16 16 16 15 11 10 10 8 6 6 6 5 4 5 4 3 4 6 4 4 5 5 5 6 7 7 6 5 5 5 4 4 4 3 3 2 5 6 8 8
16 16 16 15 17 17 16 12 9 7 7 6 6 5 6 4 4 3 5 7 7 4 3 4 5 5 4 4 3 3 2 2 2 3 3 3 2 3 3 4 4 6 8
17 17 18 17 17 19 16 13 11 8 8 7 6 6 5 4 3 5 6 6 5 4 4 4 5 4 3 2 3 2 2 2 2 1 1 1 1 2 2 3 4 2 4
19 18 19 19 21 20 16 14 11 10 8 7 6 6 6 5 4 4 8 6 7 4 4 5 5 4 4 3 4 1 3 6 5 3 2 1 0 0 2 3 2 3 3
20 21 20 21 21 23 16 16 13 10 9 8 8 6 5 4 6 4 9 8 7 7 5 4 3 3 4 2 5 5 5 7 1 4 3 1 1 1 1 2 3 2 4
22 21 20 21 20 22 21 16 14 10 8 8 7 8 6 4 6 6 8 8 8 7 7 5 4 3 6 3 2 3 7 4 6 5 4 2 3 3 1 3 2 3 4
23 21 21 22 21 20 22 18 15 14 9 7 7 9 9 7 6 6 9 9 9 7 7 7 5 4 3 3 1 1 3 3 4 3 6 5 5 4 3 3 2 2 4
25 24 22 23 25 24 22 21 20 14 14 11 10 8 7 6 5 6 7 9 10 8 8 8 8 7 7 6 3 2 1 1 3 3 2 4 4 4 3 3 3 3 4

GFSSE_850_spd_081.txt.gz
Wind_Speed
18 19 19 18 17 14 13 11 10 9 8 7 8 8 8 8 9 10 11 13 12 14 14 14 14 16 17 18 19 20 20 20 21 20 21 22 20 21 22 21 18 17 19
21 19 19 17 16 14 13 12 11 10 9 8 7 8 8 9 9 10 11 13 13 14 16 16 17 16 16 17 18 19 20 22 25 25 18 19 18 18 18 15 14 18 17
21 19 18 17 16 14 13 12 11 11 11 11 11 10 9 11 11 12 12 13 13 15 16 15 16 16 17 16 16 19 21 23 26 25 18 15 17 15 14 15 16 17 15
20 18 17 17 15 15 12 12 10 12 12 11 12 11 11 12 11 11 13 13 13 14 14 15 16 16 16 15 16 18 20 22 25 19 15 14 13 16 15 15 16 16 15
21 18 17 16 15 14 12 11 11 11 11 12 12 12 12 13 12 12 12 13 13 14 14 16 17 15 15 16 18 21 23 22 18 17 13 15 11 13 15 16 15 13 13
20 17 17 15 14 13 11 9 11 10 10 11 12 12 12 12 12 12 12 13 13 14 13 15 14 15 15 16 19 21 23 19 14 13 13 15 12 13 13 13 13 12 13
21 15 15 13 12 10 9 9 9 9 10 10 11 11 12 11 12 12 13 13 14 15 16 17 17 15 15 15 17 20 24 17 13 16 11 12 15 14 13 13 12 14 15
15 18 12 12 10 9 8 9 9 10 10 10 10 10 11 11 12 13 13 14 16 16 17 18 17 15 14 15 15 17 23 17 11 13 13 10 14 12 12 11 12 14 14
20 13 11 10 11 10 9 9 9 10 10 10 10 11 12 13 12 13 14 16 17 17 18 18 17 16 16 16 16 19 22 18 11 15 11 10 13 12 12 11 12 13 12
15 13 16 9 9 11 10 10 10 10 10 11 14 14 15 17 17 16 16 18 17 18 18 17 18 19 17 17 19 19 20 17 11 11 8 11 11 10 11 12 11 10 9
15 14 13 11 12 10 8 10 11 12 12 14 19 19 11 16 10 14 16 17 16 18 18 17 17 17 18 22 20 17 13 9 13 10 8 11 9 8 10 8 9 9 9
15 13 12 14 11 12 11 11 11 7 17 13 12 11 14 12 14 14 18 18 17 17 16 18 16 12 10 7 12 15 11 9 9 7 6 8 7 8 8 8 8 8 9
15 15 12 12 14 13 8 14 8 12 12 14 12 11 12 13 16 13 16 15 14 13 9 10 10 14 5 8 7 7 9 7 7 5 6 6 6 7 7 7 7 7 8
15 14 11 15 11 12 11 13 11 9 10 10 10 12 12 12 12 9 11 11 12 10 8 10 7 9 8 9 8 8 8 7 7 5 7 6 6 6 6 6 6 6 6
16 14 13 13 11 12 10 11 11 12 11 9 10 6 11 10 12 12 9 10 9 9 7 7 7 8 9 8 8 7 6 8 7 5 7 8 7 7 6 5 5 6 6
16 15 14 14 12 12 13 12 11 11 11 10 9 10 9 10 11 9 9 9 5 9 7 5 12 9 5 8 7 7 6 5 6 5 4 9 10 10 8 7 7 6 6
16 16 15 14 14 12 15 14 10 10 12 10 8 10 9 8 5 7 6 9 6 7 8 4 5 5 6 6 6 5 6 6 5 4 4 4 9 10 12 10 9 9 9
17 17 16 14 15 14 12 14 10 7 14 13 9 7 6 8 6 9 5 5 7 4 8 3 6 7 6 7 6 6 4 5 4 5 3 4 4 5 10 11 10 10 9
17 17 17 15 14 14 12 10 10 9 7 7 8 7 7 4 6 6 5 3 8 3 6 5 6 5 5 4 6 6 4 2 3 3 3 4 3 4 2 6 11 13 10
17 17 17 17 16 15 13 11 8 7 7 5 9 6 5 6 4 6 5 5 4 7 5 5 5 4 5 1 5 4 1 1 2 2 2 3 2 4 2 3 7 9 10
17 18 17 17 18 17 13 11 9 7 6 6 7 6 6 3 5 9 6 5 3 3 8 6 6 5 3 1 2 2 2 3 3 2 2 3 2 3 1 1 6 2 6
19 18 18 17 17 16 13 11 9 8 6 7 6 6 5 4 3 4 8 6 5 8 5 2 2 4 5 4 8 3 2 8 6 4 2 2 2 2 2 3 1 1 3
19 19 19 19 17 17 13 12 9 9 5 8 7 5 5 5 4 4 9 3 7 6 6 5 3 1 3 4 6 9 8 3 6 5 4 2 3 2 2 2 3 1 1
20 19 19 19 18 18 16 12 12 10 9 8 8 7 5 5 4 4 5 5 8 6 8 5 3 2 0 4 3 5 8 9 8 4 5 1 4 4 2 2 1 0 2
20 20 18 18 18 18 18 16 13 12 10 9 10 9 11 6 6 6 6 6 10 8 9 6 4 7 2 3 2 1 4 3 4 8 8 6 5 3 2 3 3 1 2
23 21 20 20 18 18 17 20 15 11 11 4 9 7 7 8 4 7 8 9 8 6 2 6 6 6 7 5 0 3 5 3 7 6 3 1 6 3 2 2 2 1 2

GFSSE_850_spd_084.txt.gz
Wind_Speed
15 20 19 18 15 13 13 12 12 11 10 9 9 9 10 10 11 12 13 14 14 16 16 17 18 19 19 20 21 22 25 24 22 22 23 22 22 23 22 17 18 19 19
21 22 20 18 15 14 13 12 11 10 9 9 9 9 10 10 10 11 12 13 13 16 16 17 17 18 18 18 21 26 28 29 26 21 18 20 20 19 16 13 18 18 18
21 21 19 17 16 15 14 14 11 11 11 11 11 11 11 12 12 12 13 14 16 16 16 17 17 16 17 19 23 26 29 25 23 23 16 17 17 16 16 17 17 17 17
22 19 20 18 17 16 16 14 12 13 13 12 13 13 12 12 12 13 14 14 15 16 17 17 17 15 16 18 23 26 25 22 19 21 14 12 15 17 17 16 17 18 16
22 19 20 19 18 15 15 13 12 12 13 13 13 14 14 13 13 14 14 15 16 16 17 17 17 15 18 22 24 23 24 22 19 15 16 8 13 17 17 15 14 15 14
23 17 20 18 17 15 14 13 12 12 13 13 14 14 13 13 13 14 15 16 17 17 15 16 15 14 18 20 24 24 20 18 10 12 14 9 14 13 14 13 13 14 14
22 19 19 16 15 13 13 12 12 12 13 13 14 13 14 14 14 15 15 16 18 17 14 16 13 16 17 18 19 22 19 20 15 11 13 14 15 13 13 14 15 15 13
22 18 17 15 13 12 12 12 11 12 12 12 12 12 13 14 15 16 17 17 18 18 16 15 14 15 16 18 21 22 15 18 9 8 9 13 13 11 11 13 14 13 12
23 19 13 14 12 12 11 12 11 12 12 13 14 14 14 14 15 17 19 19 19 19 18 16 15 16 18 19 20 22 17 13 16 17 10 13 13 11 12 12 13 10 11
22 17 15 12 13 10 12 12 12 12 15 17 19 20 20 17 17 17 20 19 21 19 19 20 21 19 19 22 21 18 14 19 11 5 4 11 10 11 12 10 9 9 10
19 17 18 19 12 9 14 14 14 17 22 21 21 16 18 14 14 17 17 19 20 20 20 19 21 22 21 20 18 14 8 19 6 7 7 10 8 10 7 9 9 9 9
25 29 20 14 13 17 13 18 14 19 18 12 9 16 22 14 12 17 18 18 20 20 18 15 14 15 9 12 17 14 14 17 2 9 4 7 7 8 7 7 8 8 8
25 21 20 16 18 18 11 17 13 14 18 13 10 14 14 16 19 19 18 20 15 13 8 10 14 12 11 3 11 10 11 12 3 11 7 6 6 7 7 6 6 7 8
19 18 18 15 15 14 16 18 11 17 14 14 14 15 13 11 12 9 8 8 17 8 8 6 6 8 14 12 9 8 9 9 6 10 11 9 7 7 6 6 6 7 7
20 16 17 14 17 15 7 9 13 13 14 13 16 11 12 14 13 12 13 6 9 6 7 6 12 11 10 8 10 6 5 11 5 7 12 12 10 9 8 7 6 6 6
18 21 20 11 15 15 17 18 17 16 11 15 8 14 10 13 11 11 5 8 11 9 6 10 14 12 12 8 7 8 6 4 7 6 9 10 13 15 11 9 8 7 7
19 20 18 10 14 15 17 19 13 14 12 14 9 10 11 11 14 11 8 10 9 4 7 3 11 3 6 3 10 7 8 5 2 4 5 8 10 11 15 11 10 9 9
18 20 15 16 12 14 21 11 15 17 20 6 8 11 11 11 12 5 3 11 6 5 6 9 9 5 4 9 12 7 5 4 6 9 1 4 6 6 10 12 13 11 10
20 19 18 19 17 14 14 12 9 9 16 13 11 6 3 8 11 11 4 9 6 5 7 9 5 5 6 5 9 3 3 3 5 4 8 4 6 2 7 6 12 13 9
22 19 17 17 19 15 16 10 14 8 12 10 7 10 8 7 8 7 6 8 8 12 9 7 8 9 5 8 6 3 3 3 1 3 2 7 8 6 1 6 8 9 8
21 21 19 20 22 16 17 14 12 8 9 8 5 7 3 7 5 10 8 8 8 8 9 4 7 4 4 2 4 4 2 6 8 3 2 10 7 8 5 4 2 3 3
24 23 23 21 21 18 17 16 10 10 9 7 6 4 8 5 7 8 10 7 3 8 5 8 9 5 3 4 6 5 2 6 3 6 3 5 1 1 1 1 4 2 2
26 25 25 21 20 23 14 12 11 11 11 14 7 4 10 5 5 6 9 8 8 8 6 7 4 1 7 5 11 6 5 4 3 4 8 5 8 4 3 2 2 6 9
27 25 26 24 20 24 17 15 13 12 11 10 5 13 7 7 6 5 9 5 7 5 10 7 1 8 2 4 2 7 8 5 8 5 5 3 7 5 2 5 5 6 9
27 26 25 26 21 25 24 17 17 18 10 7 14 14 9 7 9 9 6 7 8 8 12 6 8 6 4 6 6 1 5 2 2 7 10 6 5 4 5 4 3 4 8
29 28 25 27 23 23 24 20 17 13 10 14 14 12 7 5 6 8 9 8 8 10 13 9 10 11 8 3 3 3 3 7 7 10 8 0 9 5 1 1 2 1 5

GFSSE_850_spd_087.txt.gz
Wind_Speed
18 19 17 16 15 14 14 13 12 11 11 11 12 13 13 14 15 16 17 17 17 18 19 20 21 22 23 24 26 27 26 24 23 23 23 24 24 21 19 19 21 21 20
22 20 18 15 15 14 13 11 11 11 10 11 12 13 13 14 14 15 15 17 17 17 19 19 20 22 25 27 29 29 29 25 22 20 21 22 20 17 18 20 19 18 19
25 22 19 16 15 15 14 13 12 12 13 12 12 13 14 15 15 16 16 16 16 18 19 18 18 23 25 26 26 24 25 25 23 17 17 19 19 18 18 19 18 18 16
26 22 20 18 16 16 14 15 14 14 14 13 13 13 14 14 15 15 16 16 16 19 18 19 19 21 25 26 25 23 22 22 16 14 15 18 19 19 18 18 17 18 16
25 22 21 19 17 15 15 15 14 15 15 15 14 14 14 15 15 15 16 16 18 17 18 18 21 21 25 26 23 21 20 18 17 12 14 17 19 17 16 15 15 15 15
24 22 21 19 17 15 14 14 14 14 15 15 15 15 14 15 15 15 16 16 17 16 17 17 19 22 24 23 21 18 19 15 8 7 14 15 17 16 14 14 15 15 14
23 22 21 18 16 15 14 13 13 14 15 14 14 15 13 15 15 15 16 16 17 18 17 18 17 21 21 19 20 19 16 14 12 11 13 15 16 14 15 15 14 14 13
24 22 20 17 15 14 14 13 13 14 13 13 13 14 15 16 15 16 16 16 16 13 15 17 18 19 21 21 21 19 16 12 12 13 13 14 13 13 14 13 13 13 13
23 18 18 17 15 15 15 14 14 14 15 15 16 15 15 17 17 18 17 17 19 20 20 19 20 19 21 20 21 18 16 9 14 13 12 13 13 13 13 12 10 11 11
21 16 17 15 14 15 15 16 17 17 18 19 20 18 16 18 18 19 19 21 21 22 21 22 24 24 25 19 17 15 15 11 10 9 9 12 12 12 10 9 9 9 9
19 17 17 14 15 15 16 19 22 22 21 20 20 21 20 19 21 19 21 23 21 20 21 24 25 23 20 16 10 14 12 8 4 6 7 9 10 9 9 9 9 8 8
24 15 15 13 20 18 20 22 25 21 19 17 17 19 20 18 19 20 21 21 20 16 16 15 15 17 17 13 9 13 12 6 8 9 7 8 8 7 7 7 7 7 7
26 19 20 20 19 16 24 24 19 17 18 18 17 18 15 17 17 20 20 18 16 12 14 10 12 12 10 13 11 7 12 6 15 14 9 8 8 8 8 7 7 7 6
21 24 23 21 20 12 20 21 23 20 20 16 16 18 17 18 18 15 16 13 11 8 6 10 14 14 10 13 14 12 11 4 12 14 13 11 10 8 8 7 6 6 7
24 24 22 17 21 16 16 22 20 18 14 16 15 13 12 9 14 10 12 10 10 10 9 12 12 12 12 11 10 8 12 8 7 10 14 16 14 10 8 8 7 8 8
29 26 21 23 17 13 10 15 16 17 20 15 15 17 16 11 13 12 9 13 13 9 9 11 13 10 10 10 9 10 5 3 7 7 10 12 15 16 12 11 10 9 9
31 25 19 17 20 19 21 20 16 16 15 12 14 16 15 12 13 12 13 13 7 7 6 9 11 12 8 12 11 3 6 4 4 5 4 7 11 13 14 14 12 12 11
28 22 17 20 24 22 25 21 16 16 17 12 9 16 13 11 10 14 15 12 7 7 12 10 8 8 9 10 9 7 3 9 6 5 3 7 7 9 12 14 15 12 11
23 18 17 25 21 22 21 16 14 18 16 15 11 10 10 10 6 11 12 8 6 9 9 12 6 6 4 3 6 5 2 0 4 5 5 6 6 8 12 10 13 12 12
21 21 19 16 25 23 17 15 15 16 14 13 10 7 8 12 11 8 11 7 7 11 6 9 10 7 9 4 3 3 7 3 2 2 2 6 7 9 12 5 8 8 10
21 20 20 18 21 20 20 16 14 13 12 15 11 7 4 11 9 10 9 8 8 8 8 8 9 5 5 4 3 1 4 5 5 4 5 5 4 5 10 7 6 3 7
24 23 22 22 22 22 19 17 15 12 11 8 9 5 9 7 6 11 10 11 7 11 10 4 3 5 7 7 1 2 2 4 4 5 3 4 3 4 3 7 6 8 7
25 25 22 24 23 22 23 16 9 12 15 13 10 9 10 6 9 9 11 8 6 9 10 10 6 4 6 7 9 6 5 4 7 5 7 6 8 4 2 3 8 10 10
27 25 31 25 22 23 23 15 13 13 18 17 9 10 9 8 6 6 10 9 10 10 11 7 5 4 4 3 3 5 7 6 3 4 8 2 7 5 5 3 5 4 9
30 27 29 29 24 26 22 17 17 16 12 13 13 13 9 10 8 6 7 10 11 8 13 9 4 5 5 4 3 4 4 4 4 6 7 6 6 5 5 3 2 4 7
32 28 29 29 26 30 25 23 20 18 14 8 15 17 8 8 11 9 8 9 8 11 12 11 6 8 8 4 1 2 4 7 8 8 6 4 7 5 4 3 1 1 4

GFSSE_850_spd_090.txt.gz
Wind_Speed
20 19 18 18 17 16 15 13 13 15 16 15 15 16 16 16 16 17 17 18 18 19 20 21 21 21 23 25 26 25 22 21 21 21 22 22 19 18 18 19 18 17 19
24 21 18 17 16 15 14 12 12 13 14 14 13 14 15 15 15 17 16 18 18 19 20 20 21 22 24 26 26 26 23 20 19 19 19 18 18 16 17 17 17 17 18
23 21 18 17 16 15 14 13 12 13 13 14 15 15 15 15 16 17 17 18 18 18 19 21 23 25 25 25 23 23 23 20 16 15 17 18 17 17 16 16 15 17 17
23 21 18 17 17 16 16 15 14 14 14 14 15 16 16 16 15 17 17 19 17 17 19 23 23 24 22 21 21 21 18 15 16 14 15 18 16 16 15 16 16 15 15
23 21 19 17 18 15 15 15 15 15 14 14 15 15 16 17 17 16 17 18 19 17 18 22 23 22 20 19 19 19 15 15 14 12 15 16 16 13 14 13 14 13 14
23 20 19 18 16 15 15 15 15 16 17 16 16 16 16 16 17 17 18 18 17 17 19 20 22 21 17 18 19 17 12 10 8 11 12 14 14 13 14 13 13 14 13
24 21 18 17 16 15 15 15 15 16 15 15 15 15 15 17 17 16 17 17 17 16 19 21 21 19 16 16 17 16 14 10 8 11 12 13 14 14 13 13 13 12 14
23 21 19 16 15 14 14 15 15 15 15 14 14 15 16 17 16 17 16 16 14 16 19 20 18 18 18 18 15 14 14 13 10 10 11 12 13 13 12 12 12 12 12
20 18 17 15 15 14 15 15 14 15 15 16 15 15 16 17 18 20 20 18 18 20 20 20 20 19 17 15 12 14 15 14 11 10 10 11 12 11 10 10 11 10 10
19 15 14 14 14 15 16 16 16 17 17 16 17 17 17 18 19 21 21 21 21 21 21 22 21 18 18 14 10 9 10 11 12 10 9 10 10 9 8 8 8 8 8
16 16 15 15 15 16 18 19 20 21 21 19 19 19 19 20 20 21 22 23 24 24 23 23 21 17 15 14 9 7 6 9 10 9 6 7 9 8 7 7 8 7 7
21 16 16 14 16 19 21 22 22 21 18 20 22 22 20 19 21 20 20 20 20 22 23 18 16 14 10 8 7 5 4 8 8 8 7 7 8 7 7 6 7 7 7
20 20 19 19 19 20 24 23 20 20 19 19 21 22 22 20 21 20 18 18 19 17 14 15 11 8 10 7 6 4 3 10 15 11 9 8 8 7 7 7 8 7 7
20 21 21 20 22 22 18 19 19 19 19 19 17 19 20 19 19 15 13 12 10 12 14 10 12 9 10 11 8 8 6 9 13 15 12 9 8 7 7 7 7 7 8
25 25 22 19 19 17 18 19 19 21 18 17 15 16 17 17 16 12 10 9 12 12 12 11 10 11 11 8 6 11 7 8 8 12 13 15 10 9 8 8 9 9 9
23 24 22 18 17 19 18 18 18 14 14 13 11 12 8 12 11 12 7 7 8 10 12 9 10 11 9 7 8 7 4 4 5 6 9 11 14 11 11 12 11 11 11
24 22 20 18 13 12 13 13 15 16 13 10 12 11 10 8 7 9 13 11 9 10 12 12 9 8 7 6 5 3 4 3 1 1 4 7 11 13 14 13 12 12 12
26 26 24 20 16 15 19 15 15 17 12 12 9 10 10 8 8 12 11 6 6 7 12 11 10 9 9 9 5 5 1 3 4 5 6 7 10 12 13 13 12 12 13
29 23 19 21 19 19 18 13 13 15 10 10 12 10 11 11 13 13 10 9 8 8 9 9 6 8 3 4 3 5 4 4 1 6 8 10 10 11 9 10 11 12 13
24 17 16 25 22 22 16 17 14 16 11 9 11 9 10 9 13 10 13 8 10 9 10 6 6 3 3 2 4 6 8 7 8 2 5 9 8 10 9 7 8 9 11
26 18 23 21 24 23 17 18 16 15 13 11 11 6 9 11 10 9 10 7 8 7 9 7 6 3 5 2 1 3 4 4 6 8 5 2 6 7 8 9 5 6 8
26 21 23 16 26 22 17 18 15 15 14 10 6 6 6 9 9 10 9 10 8 9 9 9 3 3 5 3 1 2 1 3 4 5 3 5 2 3 5 8 9 7 6
26 23 21 20 22 20 17 14 15 11 13 12 11 10 10 8 7 11 13 10 7 10 10 6 4 6 4 2 4 1 1 1 2 4 3 3 5 3 2 3 4 6 7
27 24 23 23 20 21 23 18 13 16 17 14 12 9 11 8 5 8 13 13 11 11 10 8 5 5 1 2 5 5 4 5 4 1 5 3 6 7 5 2 4 2 4
29 26 24 28 23 20 23 20 15 12 18 14 10 11 11 11 9 9 9 13 9 12 13 9 7 4 3 1 3 5 6 9 6 3 2 5 7 6 3 0 1 2 2
31 27 24 28 26 22 23 23 17 13 15 14 14 15 13 10 12 13 8 11 10 10 15 13 11 8 4 3 0 4 7 7 8 9 10 2 6 5 5 3 3 4 5

GFSSE_850_spd_093.txt.gz
Wind_Speed
18 18 17 18 17 16 15 14 14 15 16 16 15 15 15 15 16 16 16 18 18 18 18 18 19 20 22 22 20 20 19 18 17 18 18 17 16 15 16 15 16 17 16
21 17 18 17 15 14 12 12 13 11 13 13 13 13 13 14 14 16 16 18 18 17 18 18 20 22 23 21 20 19 19 18 16 17 17 15 15 14 16 16 16 15 15
21 19 16 16 14 13 12 11 12 13 10 12 13 13 12 13 14 15 16 17 16 16 19 19 21 22 22 22 22 20 16 14 13 14 15 15 15 14 14 15 16 15 15
20 17 16 15 13 12 11 12 12 13 13 11 13 13 13 14 15 15 17 16 16 17 20 20 20 19 19 18 17 18 17 15 14 12 13 15 14 13 14 15 13 14 13
20 18 17 16 14 14 14 13 13 12 13 13 13 14 14 14 15 16 17 16 16 17 18 18 17 17 17 16 15 14 15 13 12 11 12 13 13 12 12 13 11 12 12
20 17 16 16 14 13 13 14 13 14 14 14 14 15 15 14 15 16 17 15 14 17 17 17 16 16 17 15 14 11 10 10 9 9 10 11 11 13 12 11 11 11 10
19 18 16 13 13 13 13 13 14 15 13 14 14 15 15 15 16 16 16 15 15 17 18 16 14 14 15 15 14 12 10 8 7 8 9 11 13 11 11 10 10 11 11
18 17 16 14 12 12 13 13 14 14 14 12 13 15 15 16 17 16 16 14 16 17 18 15 14 15 15 14 14 14 11 10 8 7 8 10 11 9 10 10 10 10 10
17 15 14 13 12 12 12 13 12 11 13 14 13 15 15 16 16 15 13 13 17 18 18 16 15 16 12 11 13 14 13 11 8 7 7 8 9 9 9 9 9 8 8
16 13 11 12 12 12 12 12 12 11 12 12 14 15 17 18 17 17 17 17 17 18 17 17 15 14 11 11 12 11 10 11 8 8 7 6 7 6 7 7 6 6 7
15 13 12 11 11 11 12 13 13 11 12 14 16 15 17 17 19 19 21 20 19 18 18 16 14 12 9 8 9 9 9 10 8 7 6 5 6 6 6 6 6 6 6
16 15 13 13 11 12 15 16 15 15 13 17 17 18 18 19 19 21 20 21 19 17 14 12 10 9 6 5 5 8 11 11 9 7 6 6 5 6 6 6 7 6 6
18 16 14 15 14 15 18 18 13 14 17 18 18 19 19 19 19 16 15 17 16 14 11 11 8 6 5 5 1 4 10 13 12 8 6 6 6 6 6 7 6 6 6
18 19 18 18 19 22 19 16 15 15 16 16 16 16 17 17 16 15 15 13 12 12 11 8 7 4 5 6 6 6 7 11 13 14 10 7 5 6 7 6 6 7 7
22 23 22 19 20 17 18 15 15 15 15 15 15 15 15 14 12 9 7 12 11 9 10 10 11 9 6 9 6 8 10 9 10 12 14 13 8 7 7 7 8 9 9
23 24 23 20 16 17 16 18 15 13 13 14 14 14 9 10 5 7 7 9 9 10 9 8 8 7 6 7 9 7 4 7 8 8 11 12 11 10 10 10 10 11 11
24 26 24 22 18 16 15 15 13 11 9 8 8 8 9 7 5 4 5 7 9 8 9 8 6 4 2 5 6 7 8 5 4 6 8 9 12 13 12 11 12 12 12
25 22 23 20 19 17 14 13 13 9 7 5 6 7 6 5 5 6 5 6 5 7 7 6 3 3 4 2 4 5 6 7 6 6 6 8 9 11 12 12 12 12 12
24 22 23 18 16 15 17 15 13 10 6 5 5 6 6 5 4 5 6 5 5 8 7 5 3 5 3 0 1 5 7 7 6 6 7 7 8 8 10 10 11 11 12
25 23 23 19 17 16 17 15 14 13 8 7 7 6 6 4 6 8 6 3 3 6 5 3 4 1 3 3 3 6 8 9 9 3 4 6 8 8 8 7 8 9 10
26 25 25 22 19 18 16 14 13 14 11 9 9 6 6 8 7 6 8 4 4 4 4 2 2 3 1 1 3 4 4 5 5 4 2 2 5 6 8 6 5 8 9
27 26 27 25 20 18 13 12 11 12 11 10 9 7 6 7 7 7 7 6 4 3 4 4 1 1 2 3 3 2 2 3 5 4 0 2 3 4 6 7 8 8 10
30 26 26 26 21 22 16 13 13 13 11 12 10 8 6 6 4 7 7 7 6 6 5 6 1 2 3 4 5 4 3 3 4 3 2 1 2 1 3 3 4 7 9
33 26 25 22 18 22 19 18 14 12 11 10 9 7 8 7 5 7 7 9 6 6 6 7 4 1 3 4 5 5 4 5 4 3 2 2 1 1 2 2 3 3 6
34 28 25 23 20 18 19 17 15 13 14 14 7 9 11 8 8 5 6 10 8 8 9 8 6 3 1 4 4 5 7 7 7 6 4 2 5 3 2 1 2 3 4
34 28 27 25 23 18 21 23 18 15 10 14 14 9 9 9 11 11 9 7 11 9 10 11 8 7 4 1 2 4 6 8 9 9 10 6 2 3 5 5 4 6 4

GFSSE_850_spd_096.txt.gz
Wind_Speed
16 16 17 16 17 17 15 14 13 13 13 13 13 14 13 13 13 14 15 15 14 13 14 16 17 18 19 20 18 18 17 16 17 17 17 16 16 15 16 16 16 16 14
18 16 16 15 15 14 13 12 11 11 11 11 11 12 12 12 12 13 15 15 14 13 15 19 21 19 18 18 17 17 16 15 15 16 15 15 14 16 16 15 14 13 14
19 18 15 14 13 11 10 11 11 11 10 10 10 10 12 13 13 14 14 14 13 15 17 19 19 17 18 17 17 16 14 13 14 14 15 15 14 13 15 14 13 15 15
18 17 15 12 10 10 9 10 11 10 11 11 10 10 13 13 13 14 14 13 17 17 18 19 17 17 17 17 18 16 15 13 13 13 13 14 15 14 12 10 13 12 13
17 15 14 11 10 10 10 10 11 11 11 12 11 12 13 14 15 15 15 14 16 16 16 15 16 15 15 15 15 16 14 12 11 12 12 12 12 11 11 10 10 12 13
16 14 14 12 11 10 10 9 10 11 11 12 11 12 13 14 15 15 15 13 15 15 15 15 16 15 14 13 12 12 12 11 10 10 10 12 13 11 10 10 10 10 11
16 14 13 11 9 10 9 10 11 11 11 12 12 12 13 14 15 14 13 12 14 14 15 14 14 15 14 14 13 12 11 11 10 9 10 11 12 10 8 10 10 10 9
16 16 12 10 10 10 10 10 11 11 11 11 12 12 13 14 13 13 13 13 13 14 14 13 13 14 14 15 14 14 12 11 9 9 9 10 10 9 10 10 9 9 8
15 14 13 10 9 10 10 10 10 10 10 11 11 12 13 13 12 12 11 12 14 14 13 14 15 14 13 14 15 16 13 11 10 9 8 8 9 8 9 8 8 7 6
15 12 11 12 10 10 11 10 9 10 10 11 12 13 13 13 12 12 12 13 13 13 13 13 12 13 12 13 14 13 13 11 10 9 9 7 7 7 7 7 7 7 7
14 11 10 10 10 10 11 10 10 10 12 13 14 14 15 13 14 15 15 15 14 14 14 13 12 13 11 9 12 13 13 11 10 9 8 7 7 6 6 6 6 7 8
14 12 10 10 10 9 11 12 11 11 14 15 15 15 16 16 17 17 18 17 15 13 11 9 7 7 7 9 12 13 14 12 10 9 7 6 6 6 6 6 7 8 8
14 12 12 11 12 12 14 14 13 14 15 15 17 17 17 18 17 16 13 14 13 11 9 7 6 5 4 6 11 13 15 16 14 10 8 6 6 6 6 7 8 8 8
16 12 13 13 14 16 14 12 13 16 17 17 16 17 17 16 15 13 12 10 8 7 6 4 4 5 7 6 8 10 12 14 15 15 11 7 6 7 7 8 9 8 9
18 16 16 17 19 17 15 13 15 16 16 15 14 14 15 14 12 11 6 7 7 5 6 6 6 6 8 5 6 9 8 9 11 13 13 11 9 9 10 10 10 10 11
19 20 19 21 17 14 14 16 16 15 16 14 14 14 11 10 7 8 8 7 7 7 6 6 5 6 6 9 10 9 6 8 9 10 11 12 12 12 12 12 12 13 13
21 21 20 20 17 15 16 15 14 12 13 13 11 8 9 7 6 3 5 5 7 5 6 6 3 4 7 8 9 10 11 10 8 9 9 10 13 13 13 13 13 13 13
22 22 21 19 18 17 15 13 11 10 10 7 8 9 7 5 4 9 7 5 4 5 4 3 4 5 5 6 8 9 10 10 10 9 9 9 9 11 11 12 12 12 13
23 23 20 19 16 15 14 12 10 9 8 7 7 7 7 5 5 4 5 4 5 6 5 5 5 5 4 6 8 9 10 10 8 8 8 8 8 8 9 10 10 10 12
22 20 20 17 16 15 13 13 10 8 5 6 6 4 4 3 4 5 5 3 5 5 5 4 3 3 5 5 6 7 8 8 7 5 6 7 8 8 7 8 8 9 12
23 21 22 18 18 16 18 14 12 10 6 6 6 5 5 3 3 2 3 4 4 4 2 3 3 4 4 5 6 3 6 7 6 4 4 5 5 6 7 7 8 9 11
25 24 23 20 17 16 14 11 11 11 10 7 7 5 3 5 4 2 4 2 2 2 3 2 2 4 6 8 7 7 6 5 5 4 2 2 4 6 8 9 9 9 10
28 26 25 22 19 16 13 11 10 11 10 10 8 6 4 4 4 3 5 4 3 2 2 2 3 3 6 6 6 6 4 4 7 6 3 2 1 6 6 6 5 6 8
30 26 24 24 23 19 15 11 10 11 10 9 8 6 6 4 4 4 4 5 4 2 3 3 1 2 6 6 6 6 6 8 6 4 4 4 2 4 2 1 2 4 6
31 27 25 26 26 22 18 14 14 11 9 7 5 6 6 5 5 4 3 5 5 5 5 4 3 1 2 5 6 5 6 8 9 8 6 5 3 1 2 3 4 5 6
33 29 27 28 25 23 21 19 18 14 9 9 9 6 5 4 7 6 5 4 8 6 7 7 5 5 1 0 2 5 6 8 9 9 9 7 5 4 6 5 4 6 6

GFSSE_850_spd_099.txt.gz
Wind_Speed
18 16 14 13 13 12 12 12 12 11 11 12 12 12 13 13 13 13 14 14 15 15 16 17 19 21 19 18 17 17 18 17 18 16 17 17 17 17 17 17 19 15 16
19 17 14 13 12 11 10 9 9 9 9 10 9 11 12 12 13 14 14 13 13 16 20 19 18 17 16 16 16 16 15 16 15 17 16 17 17 16 16 16 16 15 14
19 17 15 13 11 9 8 8 8 8 8 8 8 9 10 11 13 14 14 14 14 18 18 17 16 16 17 15 14 15 14 14 14 17 18 15 15 15 16 16 16 15 15
18 16 14 12 10 8 8 9 9 8 8 8 9 10 11 12 12 14 14 16 16 18 18 16 16 17 18 17 16 16 15 14 14 15 14 14 14 13 13 14 13 14 15
17 16 13 10 9 9 9 9 9 10 10 10 11 12 12 13 13 14 15 14 16 16 15 15 15 15 15 15 16 15 15 14 13 13 13 13 13 13 12 11 12 13 13
16 14 12 11 11 10 10 10 10 10 11 10 12 12 14 14 14 13 14 14 15 15 15 15 15 14 14 13 13 13 14 14 13 12 13 13 14 12 12 12 11 12 12
16 15 12 11 11 11 10 10 11 11 11 12 12 12 13 15 14 13 12 14 14 15 14 15 15 15 15 15 14 14 14 14 13 13 13 13 13 10 12 13 12 10 10
15 14 12 10 10 9 10 12 13 12 13 11 11 12 14 13 13 14 12 14 15 14 14 15 16 17 17 17 16 15 14 13 12 12 12 11 13 11 12 12 12 10 9
16 14 12 10 10 9 10 10 12 11 12 12 12 13 12 12 12 13 11 13 15 14 15 15 15 15 16 16 17 16 14 14 12 11 11 9 9 11 11 10 9 8 8
15 13 11 10 10 11 11 10 9 11 12 13 12 13 11 11 11 12 12 13 14 14 14 15 14 14 15 16 16 15 14 13 11 11 10 8 8 9 10 9 9 8 9
15 13 12 10 11 11 11 10 9 10 12 13 13 14 13 13 13 13 14 14 14 14 14 14 13 13 12 13 16 16 15 12 10 10 9 8 8 8 9 8 8 9 10
15 13 12 11 12 10 10 9 9 12 13 14 14 15 14 15 15 15 16 15 14 13 12 11 9 10 10 12 14 16 16 13 11 10 9 8 8 8 8 8 9 10 11
14 13 13 12 12 12 12 11 12 14 14 15 15 16 17 18 18 16 15 14 13 11 10 9 9 10 9 10 11 13 14 15 14 11 8 8 8 8 8 9 10 11 11
14 13 13 14 15 16 15 12 15 17 16 16 17 18 16 15 14 14 12 10 9 8 7 7 7 9 9 8 9 9 11 13 14 14 12 9 8 9 10 11 12 12 12
14 15 15 16 17 15 14 14 16 17 17 16 17 17 15 14 13 9 7 7 7 6 7 8 9 9 10 8 8 7 9 10 12 13 13 11 11 12 13 13 14 13 13
15 16 18 19 16 15 15 16 16 16 16 16 16 15 14 11 7 8 7 5 6 5 6 6 9 9 9 11 11 8 8 9 11 11 12 13 14 14 14 14 14 14 13
17 19 20 18 16 16 17 17 15 15 15 15 15 12 11 9 8 5 6 6 7 5 6 6 7 9 10 11 11 11 12 11 10 10 10 11 12 13 14 13 13 13 12
20 20 21 18 16 18 17 16 14 14 12 10 8 9 8 8 9 10 8 6 5 6 5 6 7 8 8 9 10 10 10 9 9 9 9 10 11 11 12 12 12 11 13
19 20 20 19 18 17 16 13 12 11 11 11 10 8 8 6 7 5 6 5 6 7 6 6 7 6 7 8 9 10 9 8 7 8 8 8 9 10 10 10 10 12 13
20 19 19 19 18 17 15 14 12 11 9 10 10 7 6 7 7 8 6 6 7 7 5 6 4 4 4 4 6 7 9 8 7 6 7 8 7 8 7 7 8 8 10
22 21 20 20 18 16 14 14 12 9 7 7 8 7 6 5 5 3 5 6 7 6 3 4 4 4 3 5 5 4 7 7 6 4 4 5 5 6 6 6 7 8 9
22 22 22 18 18 16 16 12 10 8 7 8 7 6 4 5 4 3 5 4 4 3 4 4 4 5 5 6 5 6 4 4 4 3 3 3 4 6 7 7 6 7 8
24 23 22 21 18 17 16 14 11 11 11 8 6 5 3 5 5 4 5 3 3 3 3 3 4 5 5 7 7 6 3 4 4 5 3 2 3 5 3 2 3 5 6
25 23 20 21 19 17 16 13 11 12 10 8 6 5 5 5 6 5 6 6 5 3 4 3 2 4 7 7 6 8 8 9 3 3 5 4 4 3 1 2 3 5 6
28 24 21 21 21 19 16 13 10 9 8 7 7 6 5 5 5 6 7 7 6 4 4 4 2 3 4 7 8 6 7 9 9 7 4 5 3 1 2 4 3 6 6
29 26 23 21 22 21 18 16 13 10 9 7 8 5 4 3 4 5 3 4 7 6 6 6 4 4 1 2 4 6 6 6 8 7 5 6 4 4 4 4 5 7 7

GFSSE_850_spd_102.txt.gz
Wind_Speed
9 10 12 12 11 11 12 12 12 13 12 13 14 14 14 14 14 15 16 17 18 17 19 20 19 19 19 17 18 18 18 17 18 19 19 18 18 19 19 21 19 16 17
13 11 12 12 10 10 10 10 10 11 11 11 12 12 13 13 14 15 15 18 22 21 18 18 17 17 17 17 16 16 16 16 17 20 20 17 18 17 17 16 16 17 16
13 11 12 11 9 9 9 9 8 8 8 9 10 10 12 13 14 14 17 18 19 18 17 18 17 16 15 15 15 16 16 16 21 25 21 13 14 16 17 17 17 17 16
14 13 10 10 8 7 8 7 8 7 8 8 9 10 11 13 14 16 17 19 19 17 18 18 18 18 17 17 16 16 16 16 18 17 14 12 12 15 15 15 16 18 16
14 12 11 9 6 6 6 7 8 9 10 10 11 11 12 14 14 15 15 17 16 16 16 16 15 15 15 16 15 16 15 15 20 14 13 14 13 13 13 16 14 14 13
13 11 10 9 10 9 9 9 9 10 11 11 12 11 13 14 14 14 14 16 16 16 16 16 15 14 14 14 14 15 15 15 15 15 13 14 13 14 14 14 13 13 12
14 11 11 11 10 10 10 10 10 10 11 12 12 12 12 12 13 13 14 15 15 15 16 16 16 15 15 15 15 15 15 16 13 14 13 13 14 14 15 15 13 12 11
15 12 10 11 11 12 12 11 11 11 13 11 12 14 13 13 13 13 13 14 14 15 17 17 17 17 17 16 15 15 14 16 13 14 13 11 14 13 13 12 11 11 10
14 12 10 9 11 12 12 11 11 11 12 12 13 13 14 13 13 14 14 14 15 17 16 16 17 17 17 16 16 15 14 15 11 12 11 9 12 11 12 11 10 10 9
13 11 11 12 11 11 10 12 12 12 13 13 13 13 13 12 13 13 13 14 16 15 15 15 15 16 17 17 16 15 16 17 9 11 8 10 10 11 12 10 10 10 10
13 10 11 9 11 12 10 10 10 12 13 12 12 14 16 13 11 12 14 15 15 15 15 15 14 14 16 16 15 17 16 7 8 9 6 10 9 11 11 10 10 11 11
13 12 11 10 10 10 10 11 11 12 10 11 12 13 13 13 14 14 17 15 13 13 12 12 12 11 13 8 8 14 7 8 7 8 6 9 10 10 10 10 11 11 12
12 11 11 11 11 10 10 10 10 10 10 11 13 13 14 13 12 11 11 9 8 10 7 8 8 7 5 7 8 8 9 9 8 7 7 9 10 10 11 12 13 13 14
12 12 11 11 12 11 10 10 12 12 12 12 12 14 14 11 12 10 9 8 8 6 8 8 7 8 7 6 6 7 9 9 8 8 9 11 11 12 13 13 14 14 14
13 13 12 12 12 11 12 12 12 13 12 12 12 12 11 10 9 7 7 6 7 7 7 7 8 8 8 7 7 7 7 8 9 9 8 13 13 14 15 15 15 14 14
13 13 13 13 12 11 12 14 13 13 12 12 11 10 12 7 7 6 5 5 6 6 5 6 8 8 9 8 8 7 7 7 8 9 8 11 14 14 15 15 14 14 13
14 15 15 14 13 13 13 13 13 11 11 11 10 11 9 7 7 7 4 5 4 5 7 6 7 8 8 8 8 7 6 7 6 7 8 7 9 14 13 13 13 12 12
16 17 16 14 14 14 12 13 12 12 11 10 8 7 7 6 8 7 6 5 4 5 6 6 7 6 6 6 5 5 5 6 6 6 6 7 6 6 10 11 12 12 13
16 16 16 15 15 15 14 12 11 11 9 9 8 6 7 6 7 5 5 3 7 5 5 6 5 5 3 4 4 5 4 5 5 4 5 6 5 6 6 7 10 11 12
15 15 15 15 16 15 11 12 10 10 9 9 8 7 7 7 7 8 3 5 7 5 5 4 5 3 3 1 3 4 5 5 5 4 4 5 4 5 4 6 5 6 11
16 16 17 16 16 14 12 12 10 9 9 9 8 9 8 6 6 6 5 5 6 5 5 3 3 4 3 2 2 3 4 5 5 5 4 4 2 3 3 3 6 5 7
18 18 17 16 18 15 13 13 10 10 9 8 8 7 6 6 6 4 7 4 7 3 4 4 5 4 4 4 3 3 4 5 4 3 3 3 3 3 2 3 4 6 7
19 20 19 17 16 15 15 12 10 9 10 8 8 6 6 7 6 6 8 7 5 6 3 4 3 5 4 5 6 2 3 3 3 2 2 1 3 2 2 2 4 5 6
19 18 18 18 17 15 17 12 11 10 10 8 7 7 6 8 7 6 8 8 7 5 5 3 2 5 7 4 5 6 8 5 1 5 2 0 2 1 1 2 3 5 6
20 19 18 17 18 15 18 14 10 10 8 7 7 7 7 7 7 7 9 10 9 4 6 6 3 6 4 5 4 3 5 5 7 1 3 1 1 0 2 3 2 4 6
20 19 18 18 20 20 19 15 12 11 9 8 7 5 6 5 7 7 7 9 9 6 6 6 6 5 5 4 3 4 3 3 4 3 1 1 0 2 2 3 3 3 5

GFSSE_850_spd_105.txt.gz
Wind_Speed
14 10 12 13 13 12 13 12 13 13 14 15 15 15 16 17 18 18 18 18 18 20 20 20 19 18 18 18 18 18 18 21 22 21 19 20 18 19 20 23 20 17 17
15 12 13 13 12 11 11 11 11 13 13 14 14 15 16 17 17 18 22 22 20 18 18 18 17 18 16 17 17 18 19 20 22 22 21 18 19 18 17 16 18 19 18
15 14 13 13 11 10 9 9 10 11 11 12 13 14 16 16 18 19 20 19 18 17 17 17 16 15 16 16 15 18 24 26 22 16 16 15 17 18 19 20 19 17 16
14 13 11 11 10 9 8 7 8 10 10 11 13 14 15 16 18 19 19 19 18 18 18 18 18 16 16 16 16 18 19 23 24 20 13 13 14 17 18 17 17 16 13
15 12 10 9 8 8 8 9 10 10 11 12 13 14 15 15 16 17 17 17 17 17 15 15 15 15 16 15 16 18 21 27 19 15 14 14 13 15 17 17 14 13 13
14 14 11 10 9 9 9 10 11 12 13 13 13 14 15 15 16 16 16 17 17 16 15 14 14 14 14 15 15 17 21 25 16 15 13 12 15 15 14 13 13 12 12
16 11 12 12 11 11 11 11 12 12 13 13 14 14 14 14 15 15 16 16 16 16 17 16 16 15 15 15 15 17 22 19 17 14 13 13 16 17 15 13 12 12 11
15 11 11 13 12 12 12 12 13 14 13 12 14 14 14 14 14 14 14 15 17 18 18 18 18 17 17 16 15 15 19 18 13 12 10 13 14 12 12 10 10 11 10
17 12 11 11 12 13 14 13 14 12 14 13 13 13 13 14 15 14 14 16 17 17 17 17 17 17 16 16 17 20 20 19 12 14 11 9 12 11 11 11 11 10 11
15 11 14 12 12 11 11 12 12 12 13 14 13 13 14 15 15 13 14 16 15 16 16 16 17 19 18 17 18 20 19 17 9 8 7 10 11 11 12 11 11 11 11
13 11 11 13 13 11 11 11 12 13 13 13 19 19 17 13 10 11 12 15 15 15 15 15 16 14 15 19 20 17 16 10 8 7 6 9 10 11 12 12 11 12 12
10 13 11 11 12 13 11 15 10 13 11 10 12 11 13 13 13 12 15 14 14 14 14 15 15 14 9 7 11 15 9 8 8 5 6 9 10 12 11 12 13 14 14
13 11 10 12 13 11 10 11 10 8 9 10 12 10 13 13 13 11 11 10 8 9 9 9 10 10 6 7 8 8 9 8 8 4 8 9 11 12 13 13 14 14 14
12 11 11 12 10 9 11 10 11 11 12 11 12 13 11 11 11 8 7 9 7 6 6 7 6 6 8 7 8 8 8 7 8 5 9 11 12 13 14 14 15 15 15
13 12 12 12 13 14 10 12 11 13 15 11 11 10 11 8 8 9 7 5 7 6 6 5 6 6 8 7 7 7 7 8 8 6 10 12 13 14 14 14 14 14 14
13 13 13 12 12 11 12 11 13 12 14 12 10 9 7 7 9 6 5 7 7 6 5 5 4 6 7 8 7 7 7 6 9 7 6 12 13 13 13 14 13 13 14
14 13 13 12 13 12 14 16 11 12 12 11 10 9 5 5 6 8 4 5 6 7 7 6 7 6 7 7 7 6 6 7 6 8 7 4 13 12 12 12 12 13 14
15 15 14 12 13 14 13 13 12 12 11 10 8 6 5 7 6 6 6 4 5 4 5 1 5 6 5 5 5 5 5 5 6 7 6 5 5 3 9 11 12 13 14
16 16 14 15 15 14 15 10 13 12 11 9 7 7 6 5 8 8 5 4 7 3 3 5 4 2 2 3 6 5 5 4 5 5 5 6 8 6 2 8 13 13 14
16 16 15 15 16 15 11 14 11 10 13 9 8 8 6 5 4 7 2 5 8 3 4 4 4 1 4 2 6 5 5 4 5 4 4 6 3 4 2 3 7 7 12
16 16 16 16 17 13 12 10 10 10 11 10 8 7 7 6 4 10 6 6 3 3 6 2 2 3 2 1 2 4 3 5 5 4 5 4 2 3 2 2 5 5 8
17 17 17 16 17 15 12 11 10 9 8 8 7 7 6 6 5 4 7 5 4 3 2 1 1 1 3 1 4 2 6 5 4 5 4 4 3 2 0 2 4 5 6
18 18 18 17 17 17 13 11 9 10 7 7 7 7 6 6 4 4 6 1 7 5 4 2 0 2 3 2 2 7 2 2 6 4 3 3 3 2 1 2 2 4 5
19 18 18 17 15 16 11 13 12 10 9 13 9 8 5 8 6 4 5 4 6 2 4 1 1 4 5 3 3 3 7 2 7 5 5 2 4 3 0 2 3 1 6
21 19 18 18 16 15 14 10 10 12 14 3 9 7 7 7 9 7 6 6 6 5 7 4 2 1 1 2 3 3 2 0 4 6 3 6 3 2 0 2 2 4 5
23 19 18 18 18 16 14 12 11 7 8 11 6 5 7 6 5 7 7 7 7 4 4 4 5 6 1 2 4 1 2 4 3 5 3 3 2 2 1 2 1 3 7

GFSSE_850_spd_108.txt.gz
Wind_Speed
11 12 14 14 14 14 15 14 15 15 16 17 17 18 19 19 20 19 20 23 22 21 22 21 19 20 20 20 22 23 23 24 23 20 20 20 20 21 22 21 14 18 17
16 13 15 15 15 14 14 13 13 13 15 16 16 18 18 19 22 23 22 20 20 19 19 20 18 18 19 21 22 22 23 24 25 24 19 18 19 16 17 17 17 18 16
18 16 15 14 13 12 11 12 12 12 13 15 16 17 19 20 21 21 21 19 19 18 19 18 16 16 17 21 25 25 21 19 22 23 17 17 19 19 18 18 17 15 16
18 16 14 14 12 11 12 11 11 11 13 14 16 17 19 18 19 20 19 18 19 18 19 18 17 16 18 19 21 23 19 23 19 17 13 11 17 17 17 17 16 15 13
24 15 13 12 11 11 11 11 12 12 14 14 16 17 18 19 19 19 18 17 15 16 17 17 17 16 17 19 24 24 24 22 16 12 11 11 15 16 16 13 13 12 11
20 11 11 11 11 11 12 13 13 14 15 16 16 16 17 17 18 18 18 17 16 15 15 15 15 14 16 18 24 21 21 19 13 10 11 13 15 14 13 12 11 11 11
16 13 14 13 13 14 13 14 14 15 15 16 17 15 16 16 17 17 17 17 17 16 16 16 15 14 15 18 22 21 22 18 8 12 14 15 15 12 12 11 11 11 11
20 15 14 14 13 15 14 14 15 15 16 16 16 15 15 16 16 15 17 18 18 18 18 17 17 16 16 17 18 20 17 13 9 12 11 12 12 11 10 10 11 11 11
19 16 14 14 15 15 14 15 14 14 15 16 16 15 15 16 16 16 18 18 18 18 18 18 18 18 19 22 23 20 18 17 11 13 9 10 11 11 11 11 11 12 12
16 17 11 14 14 12 14 15 14 13 15 16 17 18 16 17 16 16 16 17 17 18 19 22 23 24 23 19 20 20 19 15 8 4 4 9 11 12 12 12 13 12 13
15 16 11 14 16 6 14 16 16 15 17 19 19 21 20 14 13 15 13 17 17 18 19 18 17 16 21 20 19 15 15 14 4 7 7 9 11 12 13 13 13 13 14
12 13 19 12 14 14 11 17 16 18 17 9 11 11 17 15 7 15 16 17 18 17 16 14 11 12 6 13 17 13 12 11 1 4 7 10 12 13 14 14 13 14 15
14 15 15 14 12 14 13 10 11 15 10 11 8 15 14 10 16 12 13 15 13 15 5 4 11 7 17 5 9 9 9 9 1 6 8 11 12 14 15 14 14 14 15
16 18 14 17 12 13 8 12 10 10 11 9 8 12 11 8 6 8 7 11 3 4 12 10 6 9 14 14 12 9 8 7 5 7 9 12 14 15 14 14 15 15 16
17 15 18 16 13 14 10 12 13 13 13 10 11 11 4 12 8 4 13 12 8 11 3 9 5 18 13 11 8 5 7 9 3 11 11 13 14 14 14 14 15 15 16
18 16 13 11 18 13 14 11 13 16 14 11 5 8 12 7 7 5 2 6 8 11 6 10 9 7 10 9 8 8 5 8 7 7 14 13 14 13 13 14 15 16 16
16 14 9 15 19 12 18 10 10 14 12 14 10 5 3 6 13 6 4 8 9 11 15 11 11 10 6 6 11 9 7 5 13 4 6 10 14 13 13 14 15 16 17
17 12 11 13 14 13 23 17 8 12 12 10 9 8 3 13 11 11 3 5 7 3 0 12 6 6 6 5 5 7 6 0 9 10 6 2 3 9 11 14 15 17 19
17 15 18 16 13 15 14 8 11 14 7 9 4 4 3 7 10 4 7 6 6 6 7 9 6 6 4 6 6 7 7 3 5 6 9 6 5 4 2 6 8 13 17
17 16 16 17 15 15 13 13 11 13 9 9 8 5 2 4 7 5 7 7 4 10 8 7 7 6 8 3 6 6 7 3 10 1 9 8 9 9 2 4 5 8 10
18 17 14 18 15 17 19 18 10 16 7 9 8 3 5 3 5 7 8 5 6 5 6 11 3 5 4 1 2 5 5 8 10 7 5 12 2 6 3 4 4 3 5
20 19 19 20 19 15 13 10 11 10 12 9 7 7 7 6 7 2 3 6 5 4 4 6 3 7 1 5 6 2 7 10 9 8 6 10 5 5 4 5 1 8 3
23 21 21 19 20 20 9 13 10 11 12 11 6 8 8 6 5 4 6 5 3 2 4 7 1 5 5 5 4 7 7 2 9 7 7 9 8 10 6 4 6 2 8
25 23 22 20 20 20 12 14 18 9 10 13 7 8 10 7 6 3 6 1 5 3 5 3 2 2 4 4 2 8 7 2 6 7 10 13 9 9 4 6 9 6 5
25 26 25 21 17 18 23 15 14 13 13 15 9 11 12 11 11 5 5 6 5 1 4 6 4 4 1 5 6 3 3 2 9 11 11 2 9 6 4 4 6 2 5
30 27 25 21 21 19 17 18 15 9 14 7 10 9 10 2 7 9 7 7 7 6 3 6 8 7 3 2 1 3 13 13 13 20 5 10 13 4 14 8 6 11 13

GFSSE_850_spd_114.txt.gz
Wind_Speed
18 19 18 17 16 16 14 15 15 17 17 17 18 19 20 23 24 24 24 22 22 21 21 21 21 20 20 21 20 20 19 18 19 20 19 19 19 17 16 16 15 15 14
20 19 16 17 16 15 14 13 14 16 17 15 18 20 21 23 21 22 21 20 20 21 20 19 21 22 24 24 23 22 20 17 17 17 18 19 18 16 16 17 16 14 14
22 19 19 16 15 15 14 13 14 15 16 16 21 21 21 21 19 19 20 19 18 18 19 19 21 22 23 21 21 20 20 19 16 15 16 17 16 16 15 15 15 13 13
22 20 19 17 15 14 13 13 14 15 17 19 19 19 19 19 17 18 18 17 17 18 19 20 23 23 20 19 18 16 16 16 14 13 15 16 16 15 13 14 13 12 12
22 19 17 15 14 14 14 14 15 16 17 17 17 17 17 18 18 17 17 16 16 17 19 19 20 20 18 20 18 15 12 10 10 10 12 14 15 13 12 11 10 11 10
20 18 17 15 14 14 14 16 16 16 17 18 18 16 16 16 15 15 15 15 14 15 18 18 17 19 18 16 15 15 12 6 6 9 11 12 11 10 8 8 8 9 8
19 17 16 15 15 16 16 17 17 17 18 18 17 16 16 15 14 14 13 13 13 15 17 17 19 19 16 14 13 13 13 10 8 10 10 10 10 8 8 9 8 8 7
16 17 17 17 17 17 18 18 18 18 17 17 16 16 15 15 14 14 14 15 15 17 17 17 19 18 17 14 12 11 14 12 9 6 6 7 9 8 9 10 10 10 10
16 17 18 17 17 16 17 17 17 16 17 16 16 15 15 16 16 17 16 16 16 18 19 18 18 18 17 12 8 9 10 10 9 6 5 6 8 8 10 11 11 11 10
16 15 17 16 17 18 18 18 18 17 17 17 17 16 17 18 18 19 18 18 17 17 19 20 19 18 16 13 10 7 5 9 9 6 4 6 8 10 11 11 10 10 10
20 17 17 16 18 18 20 20 18 18 19 19 19 18 17 16 18 17 17 19 19 18 16 16 17 18 15 11 8 4 1 6 10 6 4 6 9 11 12 11 12 11 11
22 19 14 17 17 19 20 20 20 18 18 20 20 20 18 18 17 16 15 15 14 10 6 10 14 15 15 13 11 6 3 4 9 4 4 6 9 12 12 13 12 12 12
21 20 19 19 21 19 21 22 18 19 17 16 15 15 18 18 15 15 13 11 6 6 7 12 9 8 10 11 12 7 3 6 9 4 5 8 10 12 12 12 12 11 12
21 20 19 19 19 16 20 16 18 18 16 17 14 14 15 13 10 8 12 7 10 6 10 6 7 7 6 6 5 3 2 6 9 6 7 9 11 11 12 12 12 12 12
23 21 20 15 15 14 15 16 17 16 14 14 12 14 15 10 7 7 10 13 11 7 7 13 10 12 8 6 5 6 4 5 8 8 9 10 11 11 12 13 13 13 13
21 19 19 18 12 11 12 18 15 11 11 10 8 7 10 11 7 6 10 12 8 7 4 3 3 3 3 5 3 2 4 5 10 12 11 11 12 13 14 14 14 14 14
21 22 19 19 14 11 14 18 15 13 11 7 9 9 7 9 7 6 4 4 2 3 8 3 1 2 6 7 7 4 5 6 5 7 11 12 12 14 16 16 16 16 16
24 20 18 18 16 15 15 18 12 13 12 8 10 11 8 6 6 4 1 3 3 10 4 3 3 2 3 11 6 5 2 3 4 6 4 5 7 8 9 10 12 13 15
20 18 18 21 19 17 19 19 14 12 10 10 9 7 8 7 7 4 4 5 3 1 5 6 9 5 2 0 4 5 6 5 6 5 3 4 4 6 8 8 10 11 11
18 18 14 24 20 18 17 24 15 14 11 10 9 6 7 8 4 5 7 3 4 6 5 6 6 6 5 2 6 8 2 3 2 6 8 7 6 8 4 5 6 7 7
20 21 16 19 23 23 21 18 18 14 11 9 7 4 7 11 5 6 4 6 4 3 2 6 5 7 5 4 5 3 8 5 3 2 5 5 6 9 8 8 9 9 7
23 20 20 20 24 22 18 14 14 14 10 9 8 7 5 4 7 5 10 7 8 3 2 4 5 6 7 6 3 4 4 4 8 8 10 11 7 10 11 10 9 9 7
23 23 24 23 19 18 20 15 13 13 13 11 10 6 8 5 7 4 7 4 6 4 4 3 5 6 6 1 3 3 3 3 6 8 4 5 3 7 7 8 14 12 9
22 25 22 22 18 21 21 17 14 15 13 10 10 10 12 7 4 4 4 3 7 3 4 3 4 7 6 8 4 3 1 3 2 6 6 7 2 6 9 10 13 17 13
22 25 25 23 19 22 19 16 15 16 16 13 13 12 12 11 9 6 1 7 4 4 6 6 3 2 5 8 8 8 6 3 3 3 10 9 7 10 9 8 17 15 14
23 23 26 26 22 23 23 17 19 14 15 13 11 12 12 13 14 11 9 7 6 9 6 7 6 2 1 4 4 6 6 8 6 4 3 10 7 3 6 7 13 15 12

GFSSE_850_spd_117.txt.gz
Wind_Speed
25 23 17 14 13 13 14 14 15 16 16 16 15 16 18 20 20 20 18 17 16 16 15 15 15 15 15 17 16 16 15 14 15 15 16 16 15 14 13 13 13 12 11
26 18 14 14 13 14 13 13 14 15 16 17 17 18 20 19 20 19 17 16 16 15 15 16 15 17 17 17 16 16 16 16 16 15 15 15 14 14 14 12 12 11 11
19 15 14 14 12 13 13 13 14 14 15 16 17 17 17 17 17 16 16 15 14 13 15 17 18 18 18 18 17 17 15 14 13 14 14 14 14 12 12 12 12 11 11
17 16 14 12 12 12 12 13 14 14 17 19 18 15 15 15 15 16 14 14 13 13 14 16 17 16 15 14 14 14 15 14 13 12 12 13 12 10 11 11 9 10 10
18 17 14 13 12 12 12 13 14 15 16 17 16 15 14 14 13 14 14 13 12 13 15 18 15 14 13 12 12 12 11 11 11 9 10 11 12 10 9 7 8 7 6
19 16 15 12 12 12 12 14 15 15 16 14 14 13 13 13 13 12 13 13 13 13 14 14 12 13 11 13 13 12 11 10 8 8 7 8 9 6 4 5 5 5 5
18 15 13 12 11 11 14 14 16 15 15 14 13 13 13 12 11 10 11 12 13 12 11 13 12 12 11 11 12 13 12 10 7 6 5 5 6 5 4 5 5 4 3
15 14 14 13 13 14 15 15 16 16 15 14 14 13 13 13 12 11 13 14 14 13 12 14 13 10 10 10 11 15 13 10 8 5 4 5 6 7 6 7 7 6 6
14 14 14 14 14 15 15 15 15 15 15 14 14 13 13 14 14 14 14 14 13 13 13 15 13 12 8 8 9 10 12 12 9 6 5 4 5 6 7 9 8 8 8
13 14 15 16 16 16 16 16 15 14 14 14 14 16 16 16 15 16 16 15 14 13 12 12 12 11 7 8 8 8 7 10 11 8 6 5 6 8 9 10 9 9 10
15 15 14 15 15 15 16 16 14 15 15 14 15 15 16 15 16 16 17 18 17 15 14 12 11 11 7 4 5 7 8 8 10 9 7 6 7 9 11 11 11 11 10
18 17 15 16 16 17 17 16 15 15 15 16 17 16 14 14 15 16 15 16 13 12 11 9 8 7 6 3 3 5 7 9 10 8 7 7 8 10 11 11 10 11 11
19 16 17 17 17 16 15 17 16 17 16 15 16 15 15 14 13 12 10 8 6 6 7 9 9 7 4 3 1 4 8 10 9 9 8 9 9 10 11 10 10 11 11
21 19 20 19 18 18 20 18 17 15 14 13 13 13 13 13 11 7 5 4 4 6 8 8 8 5 4 4 2 7 9 11 10 10 10 10 10 11 10 11 11 11 11
23 22 23 19 19 19 15 17 15 14 13 13 14 13 10 8 7 4 4 6 3 3 7 6 7 7 5 4 4 10 8 12 11 11 11 10 11 11 11 12 12 12 12
21 21 21 17 15 15 14 15 15 13 11 10 8 9 7 8 8 10 9 8 6 7 6 6 5 3 4 5 5 6 9 12 11 11 11 11 13 14 15 15 15 14 13
20 21 20 17 14 13 14 13 11 11 9 8 7 10 8 6 7 7 7 5 5 3 5 3 3 3 3 4 4 6 7 8 7 9 11 11 13 13 13 12 11 12 13
23 22 19 16 12 11 16 14 12 11 8 9 7 7 8 9 7 7 8 8 9 7 7 5 4 4 5 6 4 3 5 5 5 6 6 7 5 3 3 3 3 5 8
23 21 21 18 17 15 21 15 14 12 9 10 5 6 5 6 6 6 7 7 5 6 6 6 8 6 5 2 1 4 6 7 3 1 0 1 0 1 2 4 6 7 6
25 21 19 20 18 17 19 15 12 13 12 11 9 7 7 4 2 4 4 3 3 4 4 5 6 3 4 2 1 2 1 2 4 3 3 3 3 4 4 4 6 8 7
26 24 23 25 21 18 18 19 14 15 12 9 7 6 6 6 2 4 2 5 5 2 1 5 6 6 1 3 3 3 6 7 7 8 7 7 8 7 8 10 10 11 10
26 25 25 27 25 19 19 21 15 13 11 7 7 7 7 6 6 4 5 7 5 1 3 1 4 3 3 0 2 3 3 3 7 8 10 12 13 11 10 8 10 12 10
28 26 25 29 28 25 21 18 18 14 12 13 11 9 8 6 5 4 7 4 7 4 5 3 4 1 1 3 1 2 2 4 6 4 7 8 8 8 9 7 6 10 11
29 25 24 25 27 26 21 17 18 16 15 13 12 9 9 8 7 5 6 7 7 5 5 5 1 4 3 1 2 0 1 3 4 5 8 6 8 6 7 9 9 14 9
28 27 26 26 25 23 24 20 18 16 15 11 12 11 12 10 9 8 4 8 6 4 6 6 3 1 2 3 2 2 3 3 3 5 7 8 12 12 13 12 13 15 11
28 28 28 26 24 23 25 23 19 16 16 14 13 13 13 13 13 11 9 7 9 7 6 8 8 5 3 0 1 3 2 4 3 4 3 6 7 3 4 8 11 21 18

GFSSE_850_spd_120.txt.gz
Wind_Speed
18 17 14 14 13 11 10 12 13 13 14 14 13 15 16 15 16 15 14 14 14 14 14 12 14 12 13 13 13 13 14 15 15 15 15 15 14 14 14 13 13 11 10
22 16 14 13 13 13 11 12 13 13 14 15 17 18 16 17 16 15 15 14 14 13 14 14 13 14 14 14 16 16 15 15 15 15 15 14 14 15 13 13 13 12 11
17 14 12 11 12 12 12 12 12 14 15 17 18 17 16 15 15 13 14 13 11 12 14 15 16 16 16 15 14 14 13 12 13 13 14 15 14 14 14 14 12 11 10
13 13 12 11 11 11 11 12 12 16 15 17 15 16 14 13 13 12 11 11 12 13 13 14 14 14 13 14 14 15 15 14 12 11 12 13 12 11 11 10 10 10 9
13 12 10 9 9 10 11 12 13 16 15 14 14 14 13 13 12 13 12 9 10 13 14 13 12 14 14 13 13 12 13 13 11 12 11 12 13 11 8 9 8 8 6
13 11 10 8 8 9 11 12 13 14 14 13 13 13 13 13 12 11 11 11 12 14 13 11 12 13 15 15 14 13 12 12 11 10 9 9 9 7 7 7 6 7 5
13 11 9 8 7 10 12 13 13 13 12 12 12 12 12 11 11 10 11 12 11 12 11 11 12 12 12 14 17 16 13 12 11 11 10 8 8 8 8 7 7 6 6
11 11 9 8 9 11 12 13 12 13 12 12 12 12 12 11 11 10 12 13 10 11 12 12 10 12 12 14 16 17 16 13 11 10 8 8 10 9 9 9 9 8 8
10 11 11 9 11 11 12 13 12 12 11 11 11 12 12 11 12 13 13 12 11 11 12 11 10 11 11 11 12 14 15 15 12 10 9 8 9 9 10 10 10 10 9
11 10 12 12 12 14 13 13 13 12 12 11 12 13 13 13 12 13 14 14 12 12 12 10 8 8 10 10 10 12 13 13 12 10 9 9 9 10 11 12 11 11 12
13 12 14 13 13 13 13 13 12 12 13 13 13 13 14 15 16 17 16 15 14 13 11 10 8 6 6 8 10 12 13 11 11 10 10 10 10 12 12 12 12 12 12
16 15 14 14 14 14 13 12 12 12 14 14 14 14 14 16 18 16 14 13 11 10 9 9 9 7 7 7 8 10 11 10 10 10 10 11 12 12 12 12 12 11 12
16 16 16 14 13 12 12 14 13 14 15 14 15 13 14 13 13 11 9 7 7 6 8 7 7 5 4 4 6 8 9 9 11 11 12 12 13 12 11 11 10 10 11
17 16 16 15 15 14 15 14 14 14 14 13 13 13 12 11 9 5 3 6 8 9 9 7 7 5 3 3 8 9 8 10 11 12 12 12 12 11 11 11 11 11 11
17 18 17 17 16 17 15 14 13 13 13 12 13 11 9 8 6 3 3 6 7 7 7 8 7 6 5 5 9 9 9 10 12 13 12 12 13 12 11 10 10 10 10
19 21 18 18 18 16 15 12 12 13 16 15 12 11 9 8 7 9 6 9 9 8 6 5 4 4 5 6 7 10 12 15 15 13 13 14 13 10 9 9 10 10 11
21 22 20 19 16 13 14 13 12 12 12 9 9 8 9 7 9 9 7 7 6 7 5 3 3 3 4 6 8 9 11 12 12 12 12 10 7 6 5 4 6 8 10
21 22 21 17 14 13 13 12 10 9 8 9 8 8 8 7 8 8 8 9 8 5 6 7 6 8 7 7 7 6 5 6 8 9 7 4 1 3 4 5 7 6 6
22 22 21 17 14 14 14 11 9 8 6 10 8 8 8 8 8 9 10 9 7 7 7 9 8 8 7 6 3 4 4 3 2 2 2 2 2 3 4 5 7 9 9
24 22 19 16 15 15 18 14 13 9 8 9 6 8 7 5 5 8 8 6 7 5 6 6 6 4 5 3 1 3 3 2 1 2 1 2 4 6 6 8 9 10 9
24 23 20 20 18 18 21 18 14 13 10 8 6 4 7 6 2 3 3 5 5 3 3 4 4 5 2 4 4 2 3 5 5 6 6 6 8 10 9 11 8 10 8
26 24 22 22 21 19 18 16 14 13 11 10 8 5 7 6 3 2 3 6 5 2 1 1 1 2 1 1 1 1 1 4 7 8 7 8 10 10 10 9 7 8 8
28 27 25 24 23 19 16 19 16 15 12 10 10 8 7 6 6 4 4 4 5 4 3 4 2 1 1 2 1 1 1 3 7 8 7 7 8 9 8 8 8 13 13
28 26 26 26 26 22 19 18 18 17 15 11 12 10 9 8 7 5 5 4 4 4 4 6 2 2 1 2 2 2 2 4 4 6 8 9 10 11 11 12 8 11 11
29 26 24 26 29 27 24 19 20 17 14 13 11 11 10 8 8 9 5 7 6 6 6 6 4 3 1 1 1 2 3 5 4 6 9 6 7 9 6 7 9 14 11
31 27 25 24 25 28 26 21 19 18 16 16 14 12 12 11 9 10 9 6 8 6 5 7 7 6 4 2 1 2 1 2 3 4 4 6 7 6 3 6 10 9 7

GFSSE_850_spd_123.txt.gz
Wind_Speed
18 15 16 14 13 11 9 10 11 11 13 15 17 16 18 16 16 15 15 14 15 14 15 13 13 14 15 15 15 17 16 16 17 16 16 15 15 14 14 14 14 12 12
20 15 17 15 11 10 10 12 12 12 16 18 17 16 18 18 18 17 16 15 14 14 15 14 14 15 16 17 18 17 16 15 16 16 16 16 15 15 15 14 13 12 12
18 17 13 11 10 10 11 11 13 14 17 17 17 18 18 17 17 15 16 15 13 15 16 16 17 16 15 16 16 15 15 15 15 15 16 14 15 14 13 12 12 12 12
15 14 12 10 9 10 12 11 15 14 16 16 16 16 15 15 14 14 14 14 16 16 16 16 16 15 15 16 16 16 15 14 14 13 13 13 12 12 11 10 10 10 10
14 14 12 11 9 10 12 13 15 16 15 14 15 14 14 14 15 14 12 13 15 14 15 16 16 15 15 14 13 14 14 14 14 13 13 13 11 10 9 8 8 7 8
14 12 10 9 9 10 11 14 14 15 14 14 14 13 13 13 13 12 13 14 15 14 14 15 16 17 16 15 14 14 14 13 13 11 10 8 8 9 9 8 8 8 7
12 11 9 8 8 10 12 13 13 13 12 13 13 13 13 13 12 13 13 12 13 13 13 14 15 15 17 18 17 15 14 13 13 12 11 11 11 11 11 10 9 9 8
10 9 8 8 8 9 11 12 12 13 13 13 13 13 13 12 12 12 12 11 11 12 13 14 15 15 16 16 16 15 14 12 12 12 11 10 12 11 11 10 10 10 9
9 8 8 10 10 10 11 12 12 12 13 13 13 14 13 12 12 11 11 11 12 13 13 14 14 14 13 13 14 14 14 13 12 12 11 12 11 11 11 11 12 11 11
10 10 10 11 10 10 11 12 12 12 12 13 13 14 13 14 13 13 13 13 13 13 11 10 11 12 12 12 12 13 12 13 12 12 12 12 12 12 12 12 12 12 12
11 12 12 11 11 9 11 11 11 11 12 13 14 13 15 16 16 14 15 14 14 12 10 10 9 9 10 10 11 13 12 11 12 12 12 12 13 13 12 12 12 12 12
13 14 12 11 11 11 10 11 12 12 13 14 14 16 17 17 16 16 14 13 12 11 10 8 8 8 8 8 10 13 11 11 12 12 12 12 13 12 12 11 10 10 11
14 14 14 12 13 11 11 11 11 13 13 13 14 16 16 14 12 12 9 7 7 6 7 8 7 6 5 7 9 11 10 12 12 13 13 12 12 11 10 9 9 9 10
16 15 15 15 15 13 11 11 12 13 13 13 13 13 13 11 9 7 7 8 7 6 6 5 4 4 5 7 8 9 10 12 12 12 12 11 10 10 10 10 10 10 11
16 16 15 15 14 13 12 12 12 12 12 12 12 11 10 7 6 6 8 10 9 7 6 6 5 5 6 10 13 12 12 13 13 12 11 10 9 9 10 10 11 11 11
16 16 16 16 15 15 13 11 11 11 11 11 10 9 7 5 7 9 10 10 9 8 6 4 4 5 8 10 14 15 15 14 13 12 11 10 9 8 8 8 8 8 9
17 17 17 18 16 15 12 11 12 14 12 10 10 9 8 8 8 9 8 7 7 5 3 1 3 6 10 13 13 14 14 13 11 11 10 7 5 6 7 7 8 9 9
20 19 20 19 15 14 13 13 12 10 9 9 9 8 8 9 8 7 7 7 5 5 5 6 8 10 11 11 10 10 9 8 8 7 4 2 4 7 8 9 9 9 10
20 20 20 18 15 15 14 12 11 9 9 8 10 8 8 7 7 8 8 7 5 6 8 9 10 10 10 9 7 7 6 4 3 2 2 2 3 5 7 9 10 12 12
20 21 19 17 15 15 14 12 10 9 9 10 9 8 8 7 7 7 7 6 5 5 6 7 7 7 6 3 4 4 2 2 2 2 3 2 4 7 8 10 12 11 10
20 21 21 18 16 16 18 16 13 10 10 10 9 9 8 6 6 6 5 6 4 3 4 4 6 6 4 4 5 4 2 4 4 4 4 5 7 10 11 11 9 7 9
21 22 21 19 17 16 19 17 14 12 11 9 7 6 9 7 4 5 5 5 4 2 1 1 1 2 2 2 3 3 2 4 7 8 8 8 9 9 9 9 8 9 12
25 23 22 20 19 17 19 17 15 14 13 11 10 7 8 7 5 5 5 6 5 3 2 3 3 2 1 1 1 2 2 2 5 7 8 9 9 10 8 10 11 11 14
26 24 23 21 20 19 18 19 18 16 14 12 9 9 9 9 7 6 7 5 5 4 5 5 2 2 2 2 2 2 3 3 1 4 6 8 9 10 10 11 6 9 6
27 25 24 23 22 22 19 16 17 15 14 12 11 10 8 9 8 9 5 7 7 6 6 6 6 3 2 1 1 3 4 4 3 3 4 7 7 5 5 8 9 8 7
29 26 25 25 23 24 23 19 16 16 15 12 12 11 10 9 9 9 8 7 9 7 7 8 8 6 5 3 2 2 2 2 3 4 4 6 5 5 3 3 7 7 7

GFSSE_850_spd_126.txt.gz
Wind_Speed
12 14 18 15 14 10 11 9 11 12 14 15 15 16 15 14 15 15 15 16 15 15 15 15 15 16 16 18 18 18 18 18 18 17 17 16 15 15 15 19 15 11 12
15 18 16 13 12 10 8 7 11 16 17 16 16 18 18 17 17 18 16 15 15 16 16 17 17 19 19 18 18 17 17 17 19 19 17 16 16 16 15 15 13 12 11
18 18 13 10 9 9 10 9 13 18 16 17 17 17 17 17 17 17 17 16 17 18 18 18 18 18 17 17 17 17 17 16 19 22 22 12 13 13 13 13 12 12 11
14 10 10 10 9 10 10 12 14 15 16 16 17 16 16 15 16 16 16 17 18 18 17 16 17 17 17 17 18 16 16 16 17 20 13 11 10 11 11 11 10 10 10
13 11 11 11 10 11 12 12 14 14 15 15 15 16 16 15 14 14 15 16 16 18 18 17 16 15 15 15 16 16 16 16 20 13 12 13 9 10 10 9 8 9 9
12 11 10 11 11 11 15 14 14 14 14 15 15 15 15 14 13 14 14 16 16 17 17 18 17 15 15 15 16 15 15 15 15 11 9 11 8 10 9 8 7 8 8
12 9 8 10 12 12 13 14 13 13 14 14 15 15 14 13 13 14 14 14 15 16 16 16 18 19 18 17 16 14 14 15 11 11 10 9 10 11 11 10 10 10 10
11 9 7 9 11 12 13 13 13 13 13 13 13 13 13 13 13 13 12 12 13 15 16 17 17 17 17 17 16 14 12 16 9 10 10 7 11 12 12 11 11 11 11
10 10 9 8 11 12 12 13 13 13 13 13 14 14 13 12 11 11 12 13 14 14 15 15 14 15 15 15 14 14 14 15 9 9 8 6 12 13 12 12 12 12 11
10 10 11 12 10 13 11 13 13 13 13 14 14 13 13 13 14 14 12 13 14 14 13 13 13 14 14 14 14 12 14 15 7 8 8 10 13 14 12 11 11 11 10
11 11 11 8 11 11 12 11 12 12 12 13 12 15 16 11 11 12 12 13 12 12 12 11 11 11 14 15 13 11 15 6 7 8 7 12 13 12 11 11 10 9 9
12 12 10 10 10 11 11 12 11 11 10 10 10 12 12 13 13 12 14 12 11 11 9 9 10 11 12 6 5 10 7 6 7 7 7 10 11 11 10 10 10 10 10
13 11 11 11 11 10 10 9 9 10 9 10 12 11 12 10 9 8 6 6 6 8 6 5 5 7 5 5 5 6 6 8 7 7 7 10 10 9 9 10 10 10 11
13 13 12 11 11 10 9 10 11 10 9 10 10 11 10 8 7 6 5 6 8 6 7 6 5 6 6 5 5 7 7 7 7 7 6 8 9 9 9 9 9 10 11
13 13 12 12 12 11 12 11 11 10 10 10 9 8 7 5 5 7 9 7 7 6 6 7 7 6 7 7 8 8 8 8 8 7 5 8 9 9 9 9 10 11 11
13 13 12 12 12 11 10 11 10 10 9 9 8 7 8 5 8 7 8 6 6 6 4 5 5 6 7 7 9 9 9 7 10 9 6 6 7 7 7 8 8 9 10
14 13 13 12 12 11 11 11 10 9 9 8 7 7 7 8 9 10 6 6 4 3 4 3 5 7 7 8 9 9 7 8 7 9 5 3 3 7 7 8 9 11 12
14 14 14 13 12 11 10 10 10 9 8 8 6 6 8 9 9 7 5 6 5 5 4 5 7 7 7 7 7 6 5 5 6 6 2 2 3 3 9 9 10 12 14
14 15 15 14 12 11 12 10 9 8 8 8 7 6 8 7 7 6 5 4 6 6 6 7 8 6 6 6 5 5 4 4 2 2 2 4 4 5 6 10 13 12 13
15 14 15 13 13 13 11 11 8 7 7 8 7 6 7 4 7 6 3 5 6 6 6 7 7 7 5 5 4 4 4 3 4 3 4 4 5 7 8 12 9 11 11
16 16 15 15 14 13 11 10 7 7 8 8 7 8 8 4 6 7 4 4 4 4 6 5 4 4 2 4 4 3 4 4 5 5 5 5 8 7 10 8 6 5 10
17 18 17 16 14 15 12 11 9 9 7 7 6 7 7 5 5 4 6 4 4 2 2 3 4 3 2 3 2 3 5 5 6 6 8 7 8 6 6 7 8 11 13
17 18 18 17 15 14 14 14 12 11 10 9 7 5 6 7 4 6 6 6 4 3 2 1 1 2 2 1 1 2 5 2 5 5 6 5 7 6 6 8 10 10 13
18 17 17 17 17 15 18 15 14 10 9 7 6 6 7 7 6 5 7 6 5 3 5 3 3 2 2 3 2 2 3 4 6 6 3 4 5 6 6 4 4 7 9
18 18 18 17 18 16 16 16 14 11 10 8 7 9 8 8 8 7 7 7 6 3 6 6 4 4 1 2 2 3 4 4 3 3 6 6 4 4 3 4 4 5 7
19 18 18 19 20 19 20 17 16 13 12 11 9 8 7 7 7 9 8 8 7 7 6 5 7 7 5 4 2 2 3 3 3 4 5 5 5 4 1 2 5 6 7